[[{"header":{"parameterUnit":"m.s-1","parameterCategory":1,"la1":31.0,"la2":29.5877,"lo1":-88.7671,"lo2":-86.6584,"dy":0.0162,"dx":0.0185,"nx":115,"ny":88,"refTime":"2026-03-20T12:00:00:Z","depth":0,"parameterNumber":2,"parameterNumberName":"U-component_of_WINDS"},"data":[0.0,0.0,0.0,0.0,0.0,0.0,0.0,0.0,0.0,0.0,0.0,0.0,0.0,0.0,0.0,0.0,0.0,0.0,0.0,0.0,0.0,0.0,0.0,0.0,0.0,0.0,0.0,0.0,0.0,0.0,0.0,0.0,0.0,0.0,0.0,0.0,0.0,0.0,0.0,0.0,0.0,0.0,0.0,0.0,0.0,0.0,0.0,0.0,0.0,0.0,0.0,0.0,0.0,0.0,0.0,0.0,0.0,0.0,0.0,0.0,0.0,0.0,0.0,0.0,0.0,0.0,0.0,0.0,0.0,0.0,0.0,0.0,0.0,0.0,0.0,0.0,0.0,0.0,0.0,0.0,0.0,0.0,0.0,0.0,0.0,0.0,0.0,0.0,0.0,0.0,0.0,0.0,0.0,0.0,0.0,0.0,0.0,0.0,0.0,0.0,0.0,0.0,0.0,0.0,0.0,0.0,0.0,0.0,0.0,0.0,0.0,0.0,0.0,0.0,0.0,0.0,0.0,0.0,0.0,0.0,0.0,0.0,0.0,0.0,0.0,0.0,0.0,0.0,0.0,0.0,0.0,0.0,0.0,0.0,0.0,0.0,0.0,0.0,0.0,0.0,0.0,0.0,0.0,0.0,0.0,0.0,0.0,0.0,0.0,0.0,0.0,0.0,0.0,0.0,0.0,0.0,0.0,0.0,0.0,0.0,0.0,0.0,0.0,0.0,0.0,0.0,0.0,0.0,0.0,0.0,0.0,0.0,0.0,0.0,0.0,0.0,0.0,0.0,0.0,0.0,0.0,0.0,0.0,0.0,0.0,0.0,0.0,0.0,0.0,0.0,0.0,0.0,0.0,0.0,0.0,0.0,0.0,0.0,0.0,0.0,0.0,0.0,0.0,0.0,0.0,0.0,0.0,0.0,0.0,0.0,0.0,0.0,0.0,0.0,0.0,0.0,0.0,0.0,0.0,0.0,0.0,0.0,0.0,0.0,0.0,0.0,0.0,0.0,0.0,0.0,0.0,0.0,0.0,0.0,0.0,0.0,0.0,0.0,0.0,0.0,0.0,0.0,0.0,0.0,0.0,0.0,0.0,0.0,0.0,0.0,0.0,0.0,0.0,0.0,0.0,0.0,0.0,0.0,0.0,0.0,0.0,0.0,0.0,0.0,0.0,0.0,0.0,0.0,0.0,0.0,0.0,0.0,0.0,0.0,0.0,0.0,0.0,0.0,0.0,0.0,0.0,0.0,0.0,0.0,0.0,0.0,0.0,0.0,0.0,0.0,0.0,0.0,0.0,0.0,0.0,0.0,0.0,0.0,0.0,0.0,0.0,0.0,0.0,0.0,0.0,0.0,0.0,0.0,0.0,0.0,0.0,0.0,0.0,0.0,0.0,0.0,0.0,0.0,0.0,0.0,0.0,0.0,0.0,0.0,0.0,0.0,0.0,0.0,0.0,0.0,0.0,0.0,0.0,0.0,0.0,0.0,0.0,0.0,0.0,0.0,0.0,0.0,0.0,0.0,0.0,0.0,0.0,0.0,0.0,0.0,0.0,0.0,0.0,0.0,0.0,0.0,0.0,0.0,0.0,0.0,0.0,0.0,0.0,0.0,0.0,0.0,0.0,0.0,0.0,0.0,0.0,0.0,0.0,0.0,0.0,0.0,0.0,0.0,0.0,0.0,0.0,0.0,0.0,0.0,0.0,0.0,0.0,0.0,0.0,0.0,0.0,0.0,0.0,0.0,0.0,0.0,0.0,0.0,0.0,0.0,0.0,0.0,0.0,0.0,0.0,0.0,0.0,0.0,0.0,0.0,0.0,0.0,0.0,0.0,0.0,0.0,0.0,0.0,0.0,0.0,0.0,0.0,0.0,0.0,0.0,0.0,0.0,0.0,0.0,0.0,0.0,0.0,0.0,0.0,0.0,0.0,0.0,0.0,0.0,0.0,0.0,0.0,0.0,0.0,0.0,0.0,0.0,0.0,0.0,0.0,0.0,0.0,0.0,0.0,0.0,0.0,0.0,0.0,0.0,0.0,0.0,0.0,0.0,0.0,0.0,0.0,0.0,0.0,0.0,0.0,0.0,0.0,0.0,0.0,0.0,0.0,0.0,0.0,0.0,0.0,0.0,0.0,0.0,0.0,0.0,0.0,0.0,0.0,0.0,0.0,0.0,0.0,0.0,0.0,0.0,0.0,0.0,0.0,0.0,0.0,0.0,0.0,0.0,0.0,0.0,0.0,0.0,0.0,0.0,0.0,0.0,0.0,0.0,0.0,0.0,0.0,0.0,0.0,0.0,0.0,0.0,0.0,0.0,0.0,0.0,0.0,0.0,0.0,0.0,0.0,0.0,0.0,0.0,0.0,0.0,0.0,0.0,0.0,0.0,0.0,0.0,0.0,0.0,0.0,0.0,0.0,0.0,0.0,0.0,0.0,0.0,0.0,0.0,0.0,0.0,0.0,0.0,0.0,0.0,0.0,0.0,0.0,0.0,0.0,0.0,0.0,0.0,0.0,0.0,0.0,0.0,0.0,0.0,0.0,0.0,0.0,0.0,0.0,0.0,0.0,0.0,0.0,0.0,0.0,0.0,0.0,0.0,0.0,0.0,0.0,0.0,0.0,0.0,0.0,0.0,0.0,0.0,0.0,0.0,0.0,0.0,0.0,0.0,0.0,0.0,0.0,0.0,0.0,0.0,0.0,0.0,0.0,0.0,0.0,0.0,0.0,0.0,0.0,0.0,0.0,0.0,0.0,0.0,0.0,0.0,0.0,0.0,0.0,0.0,0.0,0.0,0.0,0.0,0.0,0.0,0.0,0.0,0.0,0.0,0.0,0.0,0.0,0.0,0.0,0.0,0.0,0.0,0.0,0.0,0.0,0.0,0.0,0.0,0.0,0.0,0.0,0.0,0.0,0.0,0.0,0.0,0.0,0.0,0.0,0.0,0.0,0.0,0.0,0.0,0.0,0.0,0.0,0.0,0.0,0.0,0.0,0.0,0.0,0.0,0.0,0.0,0.0,0.0,0.0,0.0,0.0,0.0,0.0,0.0,0.0,0.0,0.0,0.0,0.0,0.0,0.0,0.0,0.0,0.0,0.0,0.0,0.0,0.0,0.0,0.0,0.0,0.0,0.0,0.0,0.0,0.0,0.0,0.0,0.0,0.0,0.0,0.0,0.0,0.0,0.0,0.0,0.0,0.0,0.0,0.0,0.0,0.0,0.0,0.0,0.0,0.0,0.0,0.0,0.0,0.0,0.0,0.0,0.0,0.0,0.0,0.0,0.0,0.0,0.0,0.0,0.0,0.0,0.0,0.0,0.0,0.0,0.0,0.0,0.0,0.0,0.0,0.0,0.0,0.0,0.0,0.0,0.0,0.0,0.0,0.0,0.0,0.0,0.0,0.0,0.0,0.0,0.0,0.0,0.0,0.0,0.0,0.0,0.0,0.0,0.0,0.0,0.0,0.0,0.0,0.0,0.0,0.0,0.0,0.0,0.0,0.0,0.0,0.0,0.0,0.0,0.0,0.0,0.0,0.0,0.0,0.0,0.0,0.0,0.0,0.0,0.0,0.0,0.0,0.0,0.0,0.0,0.0,0.0,0.0,0.0,0.0,0.0,0.0,0.0,0.0,0.0,0.0,0.0,0.0,0.0,0.0,0.0,0.0,0.0,0.0,0.0,0.0,0.0,0.0,0.0,0.0,0.0,0.0,0.0,0.0,0.0,0.0,0.0,0.0,0.0,0.0,0.0,0.0,0.0,0.0,0.0,0.0,0.0,0.0,0.0,0.0,0.0,0.0,0.0,0.0,0.0,0.0,0.0,0.0,0.0,0.0,0.0,0.0,0.0,0.0,0.0,0.0,0.0,0.0,0.0,0.0,0.0,0.0,0.0,0.0,0.0,0.0,0.0,0.0,0.0,0.0,0.0,0.0,0.0,0.0,0.0,0.0,0.0,0.0,0.0,0.0,0.0,0.0,0.0,0.0,0.0,0.0,0.0,0.0,0.0,0.0,0.0,0.0,0.0,0.0,0.0,0.0,0.0,0.0,0.0,0.0,0.0,0.0,0.0,0.0,0.0,0.0,0.0,0.0,0.0,0.0,0.0,0.0,0.0,0.0,0.0,0.0,0.0,0.0,0.0,0.0,0.0,0.0,0.0,0.0,0.0,0.0,0.0,0.0,0.0,0.0,0.0,0.0,0.0,0.0,0.0,0.0,0.0,0.0,0.0,0.0,0.0,0.0,0.0,0.0,0.0,0.0,0.0,0.0,0.0,0.0,-2.5772,0.0,0.0,0.0,0.0,0.0,0.0,0.0,0.0,0.0,0.0,0.0,0.0,0.0,0.0,0.0,0.0,0.0,0.0,0.0,0.0,0.0,0.0,0.0,0.0,0.0,0.0,0.0,0.0,0.0,0.0,0.0,0.0,0.0,0.0,0.0,0.0,0.0,0.0,0.0,0.0,0.0,0.0,0.0,0.0,0.0,0.0,0.0,0.0,0.0,0.0,0.0,0.0,0.0,0.0,0.0,0.0,0.0,0.0,0.0,0.0,0.0,0.0,0.0,0.0,0.0,0.0,0.0,0.0,0.0,0.0,0.0,0.0,0.0,0.0,0.0,0.0,0.0,0.0,0.0,0.0,0.0,0.0,0.0,0.0,0.0,0.0,0.0,0.0,0.0,0.0,0.0,0.0,0.0,0.0,0.0,0.0,0.0,0.0,0.0,0.0,0.0,0.0,0.0,0.0,0.0,0.0,0.0,0.0,0.0,0.0,-2.4422,-2.5535,-2.6069,-2.626,-2.6053,0.0,0.0,0.0,0.0,0.0,0.0,0.0,0.0,0.0,0.0,0.0,0.0,0.0,0.0,0.0,0.0,0.0,0.0,0.0,0.0,0.0,0.0,0.0,0.0,0.0,0.0,0.0,0.0,0.0,0.0,0.0,0.0,0.0,0.0,0.0,0.0,0.0,0.0,0.0,0.0,0.0,0.0,0.0,0.0,0.0,0.0,0.0,0.0,0.0,0.0,0.0,0.0,0.0,0.0,0.0,0.0,0.0,0.0,0.0,0.0,0.0,0.0,0.0,0.0,0.0,0.0,0.0,0.0,0.0,0.0,0.0,0.0,0.0,0.0,0.0,0.0,0.0,0.0,0.0,0.0,0.0,0.0,0.0,0.0,0.0,0.0,0.0,0.0,0.0,0.0,0.0,0.0,0.0,0.0,0.0,0.0,0.0,0.0,0.0,0.0,0.0,0.0,0.0,0.0,0.0,0.0,0.0,0.0,0.0,0.0,0.0,0.0,-2.6917,-2.6896,-2.6405,0.0,0.0,0.0,0.0,0.0,0.0,0.0,0.0,0.0,0.0,0.0,0.0,0.0,0.0,0.0,0.0,0.0,0.0,0.0,0.0,0.0,0.0,0.0,0.0,0.0,0.0,0.0,0.0,0.0,0.0,0.0,0.0,0.0,0.0,0.0,0.0,0.0,0.0,0.0,0.0,0.0,0.0,0.0,0.0,0.0,0.0,0.0,0.0,0.0,0.0,0.0,0.0,0.0,0.0,0.0,0.0,0.0,0.0,0.0,0.0,0.0,0.0,0.0,0.0,0.0,0.0,0.0,0.0,0.0,0.0,0.0,0.0,0.0,0.0,0.0,0.0,0.0,0.0,0.0,0.0,0.0,0.0,0.0,0.0,0.0,0.0,0.0,0.0,0.0,0.0,0.0,0.0,0.0,0.0,0.0,0.0,0.0,0.0,0.0,0.0,0.0,0.0,0.0,0.0,0.0,0.0,0.0,0.0,0.0,0.0,-2.5728,-2.7489,-2.7884,0.0,-2.7291,0.0,0.0,0.0,0.0,0.0,0.0,0.0,0.0,0.0,0.0,0.0,0.0,0.0,0.0,0.0,0.0,0.0,0.0,0.0,0.0,0.0,0.0,0.0,0.0,0.0,0.0,0.0,0.0,0.0,0.0,0.0,0.0,0.0,0.0,0.0,0.0,0.0,0.0,0.0,0.0,0.0,0.0,0.0,0.0,0.0,0.0,0.0,0.0,0.0,0.0,0.0,0.0,0.0,0.0,0.0,0.0,0.0,0.0,0.0,0.0,0.0,0.0,0.0,0.0,0.0,0.0,0.0,0.0,0.0,0.0,0.0,0.0,0.0,0.0,0.0,0.0,0.0,0.0,0.0,0.0,0.0,0.0,0.0,0.0,0.0,0.0,0.0,0.0,0.0,0.0,0.0,0.0,0.0,0.0,0.0,0.0,0.0,0.0,0.0,0.0,0.0,0.0,0.0,0.0,0.0,0.0,0.0,0.0,0.0,0.0,0.0,-2.766,-2.7478,-2.7392,0.0,0.0,0.0,0.0,0.0,0.0,0.0,0.0,0.0,0.0,0.0,0.0,0.0,0.0,0.0,0.0,0.0,0.0,0.0,0.0,0.0,0.0,0.0,0.0,0.0,0.0,0.0,0.0,0.0,0.0,0.0,0.0,0.0,0.0,0.0,0.0,0.0,0.0,0.0,0.0,0.0,0.0,0.0,0.0,0.0,0.0,0.0,0.0,0.0,0.0,0.0,0.0,0.0,0.0,0.0,0.0,0.0,0.0,0.0,0.0,0.0,0.0,0.0,0.0,0.0,0.0,0.0,0.0,0.0,0.0,0.0,0.0,0.0,0.0,0.0,0.0,0.0,0.0,0.0,0.0,0.0,0.0,0.0,0.0,0.0,0.0,0.0,0.0,0.0,0.0,0.0,0.0,0.0,0.0,0.0,0.0,0.0,0.0,0.0,0.0,0.0,0.0,0.0,0.0,0.0,0.0,0.0,0.0,0.0,0.0,-2.7056,0.0,-2.7726,-2.7614,-2.7423,-2.716,0.0,0.0,0.0,0.0,0.0,0.0,0.0,0.0,0.0,0.0,0.0,0.0,0.0,0.0,0.0,0.0,0.0,0.0,0.0,0.0,0.0,0.0,0.0,0.0,0.0,0.0,0.0,0.0,0.0,0.0,0.0,0.0,0.0,0.0,0.0,0.0,0.0,0.0,0.0,0.0,0.0,0.0,0.0,0.0,0.0,0.0,0.0,0.0,0.0,0.0,0.0,0.0,0.0,0.0,0.0,0.0,0.0,0.0,0.0,0.0,0.0,0.0,0.0,0.0,0.0,0.0,0.0,0.0,0.0,0.0,0.0,0.0,0.0,0.0,0.0,0.0,0.0,0.0,0.0,0.0,0.0,0.0,0.0,0.0,0.0,0.0,0.0,0.0,0.0,0.0,0.0,0.0,0.0,0.0,0.0,0.0,0.0,0.0,0.0,0.0,0.0,0.0,0.0,0.0,0.0,0.0,0.0,0.0,0.0,-2.7719,-2.7745,-2.7906,-2.88,-2.8411,0.0,0.0,0.0,0.0,0.0,0.0,0.0,0.0,0.0,0.0,0.0,0.0,0.0,0.0,0.0,0.0,0.0,0.0,0.0,0.0,0.0,0.0,0.0,0.0,0.0,0.0,0.0,0.0,0.0,0.0,0.0,0.0,0.0,0.0,0.0,0.0,0.0,0.0,0.0,0.0,0.0,0.0,0.0,0.0,0.0,0.0,0.0,0.0,0.0,0.0,0.0,0.0,0.0,0.0,0.0,0.0,0.0,0.0,0.0,0.0,0.0,0.0,0.0,0.0,0.0,0.0,0.0,0.0,0.0,0.0,0.0,0.0,0.0,0.0,0.0,0.0,0.0,0.0,0.0,0.0,0.0,0.0,0.0,0.0,0.0,0.0,0.0,0.0,0.0,0.0,0.0,0.0,0.0,0.0,0.0,0.0,0.0,0.0,0.0,0.0,0.0,0.0,0.0,0.0,0.0,0.0,0.0,0.0,0.0,-2.8001,-2.8733,-2.899,-2.873,-2.8418,-2.786,0.0,0.0,0.0,0.0,0.0,0.0,0.0,0.0,0.0,0.0,0.0,0.0,0.0,0.0,0.0,0.0,0.0,0.0,0.0,0.0,0.0,0.0,0.0,0.0,0.0,0.0,0.0,0.0,0.0,0.0,0.0,0.0,0.0,0.0,0.0,0.0,0.0,0.0,0.0,0.0,0.0,0.0,0.0,0.0,0.0,0.0,0.0,0.0,0.0,0.0,0.0,0.0,0.0,0.0,0.0,0.0,0.0,0.0,0.0,0.0,0.0,0.0,0.0,0.0,0.0,0.0,0.0,0.0,0.0,0.0,0.0,0.0,0.0,0.0,0.0,0.0,0.0,0.0,0.0,0.0,0.0,0.0,0.0,0.0,0.0,0.0,0.0,0.0,0.0,0.0,0.0,0.0,0.0,0.0,0.0,0.0,0.0,0.0,0.0,0.0,0.0,0.0,0.0,0.0,0.0,0.0,0.0,0.0,0.0,-2.8097,0.0,-2.9444,0.0,-2.8447,-2.7773,0.0,0.0,0.0,0.0,0.0,0.0,0.0,0.0,0.0,0.0,0.0,0.0,0.0,0.0,0.0,0.0,0.0,0.0,0.0,0.0,0.0,0.0,0.0,0.0,0.0,0.0,0.0,0.0,0.0,0.0,0.0,0.0,0.0,0.0,0.0,0.0,0.0,0.0,0.0,0.0,0.0,0.0,0.0,0.0,0.0,0.0,0.0,0.0,0.0,0.0,0.0,0.0,0.0,0.0,0.0,0.0,0.0,0.0,0.0,0.0,0.0,0.0,0.0,0.0,0.0,0.0,0.0,0.0,0.0,0.0,0.0,0.0,0.0,0.0,0.0,0.0,0.0,0.0,0.0,0.0,0.0,0.0,0.0,0.0,0.0,0.0,0.0,0.0,0.0,0.0,0.0,0.0,0.0,0.0,0.0,0.0,0.0,0.0,0.0,0.0,0.0,0.0,0.0,0.0,0.0,0.0,0.0,0.0,-2.607,-2.8116,-2.8821,-2.8926,-2.8424,-2.8945,-2.8274,0.0,0.0,0.0,0.0,0.0,0.0,0.0,0.0,0.0,0.0,0.0,0.0,0.0,0.0,0.0,0.0,0.0,0.0,0.0,0.0,0.0,0.0,0.0,0.0,0.0,0.0,0.0,0.0,0.0,0.0,0.0,0.0,0.0,0.0,0.0,0.0,0.0,0.0,0.0,0.0,0.0,0.0,0.0,0.0,0.0,0.0,0.0,0.0,0.0,0.0,0.0,0.0,0.0,0.0,0.0,0.0,0.0,0.0,0.0,0.0,0.0,0.0,0.0,0.0,0.0,0.0,0.0,0.0,0.0,0.0,0.0,0.0,0.0,0.0,0.0,0.0,0.0,0.0,0.0,0.0,0.0,0.0,0.0,0.0,0.0,0.0,0.0,0.0,0.0,0.0,0.0,0.0,0.0,0.0,0.0,0.0,0.0,0.0,0.0,0.0,0.0,0.0,0.0,0.0,0.0,0.0,0.0,0.0,0.0,-2.8067,-2.809,-2.8081,-2.8203,-2.8686,-2.7755,0.0,0.0,0.0,0.0,0.0,0.0,0.0,0.0,0.0,0.0,0.0,0.0,0.0,0.0,0.0,0.0,0.0,0.0,0.0,0.0,0.0,0.0,0.0,0.0,0.0,0.0,0.0,0.0,0.0,0.0,0.0,0.0,0.0,0.0,0.0,0.0,0.0,0.0,0.0,0.0,0.0,0.0,0.0,0.0,0.0,0.0,0.0,0.0,0.0,0.0,0.0,0.0,0.0,0.0,0.0,0.0,0.0,0.0,0.0,0.0,0.0,0.0,0.0,0.0,0.0,0.0,0.0,0.0,0.0,0.0,0.0,0.0,0.0,0.0,0.0,0.0,0.0,0.0,0.0,0.0,0.0,0.0,0.0,0.0,0.0,0.0,0.0,0.0,0.0,0.0,0.0,0.0,0.0,0.0,0.0,0.0,0.0,0.0,0.0,0.0,0.0,0.0,0.0,0.0,0.0,0.0,0.0,0.0,0.0,-2.5349,-2.6227,-2.7041,-2.7933,-2.822,-2.7312,-2.5088,0.0,0.0,0.0,0.0,0.0,0.0,0.0,0.0,0.0,0.0,0.0,0.0,0.0,0.0,0.0,0.0,0.0,0.0,0.0,0.0,0.0,0.0,0.0,0.0,0.0,0.0,0.0,0.0,0.0,0.0,0.0,0.0,0.0,0.0,0.0,0.0,0.0,0.0,0.0,0.0,0.0,0.0,0.0,0.0,0.0,0.0,0.0,0.0,0.0,0.0,0.0,0.0,0.0,0.0,0.0,0.0,0.0,0.0,0.0,0.0,0.0,0.0,0.0,0.0,0.0,0.0,0.0,0.0,0.0,0.0,0.0,0.0,0.0,0.0,0.0,0.0,0.0,0.0,0.0,0.0,0.0,0.0,0.0,0.0,0.0,0.0,0.0,0.0,0.0,0.0,0.0,0.0,0.0,0.0,0.0,0.0,0.0,0.0,0.0,0.0,0.0,0.0,0.0,0.0,0.0,0.0,0.0,0.0,-2.0682,-2.3339,-2.5574,-2.7349,-2.7651,-2.7029,0.0,0.0,0.0,0.0,0.0,0.0,0.0,0.0,0.0,0.0,0.0,0.0,0.0,0.0,0.0,0.0,0.0,0.0,0.0,0.0,0.0,0.0,0.0,0.0,0.0,0.0,0.0,0.0,0.0,0.0,0.0,0.0,0.0,0.0,0.0,0.0,0.0,0.0,0.0,0.0,0.0,0.0,0.0,0.0,0.0,0.0,0.0,0.0,0.0,0.0,0.0,0.0,0.0,0.0,0.0,0.0,0.0,0.0,0.0,0.0,0.0,0.0,0.0,0.0,0.0,0.0,0.0,0.0,0.0,0.0,0.0,0.0,0.0,0.0,0.0,0.0,0.0,0.0,0.0,0.0,0.0,0.0,0.0,0.0,0.0,0.0,0.0,0.0,0.0,0.0,0.0,0.0,0.0,0.0,0.0,0.0,0.0,0.0,0.0,0.0,0.0,0.0,0.0,0.0,0.0,0.0,0.0,0.0,0.0,-1.8332,-1.9639,-2.1668,-2.4485,-2.7869,-2.7596,0.0,0.0,0.0,0.0,0.0,0.0,0.0,0.0,0.0,0.0,0.0,0.0,0.0,0.0,0.0,0.0,0.0,0.0,0.0,0.0,0.0,0.0,0.0,0.0,0.0,0.0,0.0,0.0,0.0,0.0,0.0,0.0,0.0,0.0,0.0,0.0,0.0,0.0,0.0,0.0,0.0,0.0,0.0,0.0,0.0,0.0,0.0,0.0,0.0,0.0,0.0,0.0,0.0,0.0,0.0,0.0,0.0,0.0,0.0,0.0,0.0,0.0,0.0,0.0,0.0,0.0,0.0,0.0,0.0,0.0,0.0,0.0,0.0,0.0,0.0,0.0,0.0,0.0,0.0,0.0,0.0,0.0,0.0,0.0,0.0,0.0,0.0,0.0,0.0,0.0,0.0,0.0,0.0,0.0,0.0,0.0,0.0,0.0,0.0,0.0,0.0,0.0,0.0,0.0,0.0,0.0,0.0,0.0,-1.6136,-1.5902,-1.6564,-1.8127,-2.0626,-2.5503,-2.6055,0.0,0.0,0.0,0.0,0.0,0.0,0.0,0.0,0.0,0.0,0.0,0.0,0.0,0.0,0.0,0.0,0.0,0.0,0.0,0.0,0.0,0.0,0.0,0.0,0.0,0.0,0.0,0.0,0.0,0.0,0.0,0.0,0.0,0.0,0.0,0.0,0.0,0.0,0.0,0.0,0.0,0.0,0.0,0.0,0.0,0.0,0.0,0.0,0.0,0.0,0.0,0.0,0.0,0.0,0.0,0.0,0.0,0.0,0.0,0.0,0.0,0.0,0.0,0.0,0.0,0.0,0.0,0.0,0.0,0.0,0.0,0.0,0.0,0.0,0.0,0.0,0.0,0.0,0.0,0.0,0.0,0.0,0.0,0.0,0.0,0.0,0.0,0.0,0.0,0.0,0.0,0.0,0.0,0.0,0.0,0.0,0.0,0.0,0.0,0.0,0.0,0.0,0.0,0.0,0.0,0.0,0.0,0.0,-1.4892,-1.3581,-1.411,-1.5045,-1.6526,-2.17,-2.3153,0.0,0.0,0.0,0.0,0.0,0.0,0.0,0.0,0.0,0.0,0.0,0.0,0.0,0.0,0.0,0.0,0.0,0.0,0.0,0.0,0.0,0.0,0.0,0.0,0.0,0.0,0.0,0.0,0.0,0.0,0.0,0.0,0.0,0.0,0.0,0.0,0.0,0.0,0.0,0.0,0.0,0.0,0.0,0.0,0.0,0.0,0.0,0.0,0.0,0.0,0.0,0.0,0.0,0.0,0.0,0.0,0.0,0.0,0.0,0.0,0.0,0.0,0.0,0.0,0.0,0.0,0.0,0.0,0.0,0.0,0.0,0.0,0.0,0.0,0.0,0.0,0.0,0.0,0.0,0.0,0.0,0.0,0.0,0.0,0.0,0.0,0.0,0.0,0.0,0.0,0.0,0.0,0.0,0.0,0.0,0.0,0.0,0.0,0.0,0.0,0.0,0.0,0.0,0.0,0.0,0.0,0.0,0.0,-1.3575,-1.1988,-1.2632,-1.3152,-1.3471,-1.8683,-2.0404,0.0,0.0,0.0,0.0,0.0,0.0,0.0,0.0,0.0,0.0,0.0,0.0,0.0,0.0,0.0,0.0,0.0,0.0,0.0,0.0,0.0,0.0,0.0,0.0,0.0,0.0,0.0,0.0,0.0,0.0,0.0,0.0,0.0,0.0,0.0,0.0,0.0,0.0,0.0,0.0,0.0,0.0,0.0,0.0,0.0,0.0,0.0,0.0,0.8049,0.0,0.0,0.0,0.0,0.0,0.0,0.0,0.0,0.0,0.0,0.0,0.0,0.0,0.0,0.0,0.0,0.0,0.0,0.0,0.0,0.0,0.0,0.0,0.0,0.0,0.0,0.0,0.0,0.0,0.0,0.0,0.0,0.0,0.0,0.0,0.0,0.0,0.0,0.0,0.0,0.0,0.0,0.0,0.0,0.0,0.0,0.0,0.0,0.0,0.0,0.0,0.0,0.0,0.0,0.0,0.0,0.0,0.0,0.0,-1.2196,-1.0675,-1.0994,-1.0952,-1.0722,-1.509,-1.6764,0.0,0.0,0.0,0.0,0.0,0.0,0.0,0.0,0.0,0.0,0.0,0.0,0.0,0.0,0.0,0.0,0.0,0.0,0.0,0.0,0.0,0.0,0.0,0.0,0.0,0.0,0.0,0.0,0.0,0.0,0.0,0.0,0.0,0.0,0.0,0.0,0.0,0.0,0.0,0.0,0.0,0.0,0.0,0.0,0.0,0.0,0.0,0.0,0.0,0.0,0.0,0.0,0.0,0.0,0.0,0.0,0.0,0.0,0.0,0.0,0.0,0.0,0.0,0.0,0.0,0.0,0.0,0.0,0.0,0.0,0.0,0.0,0.0,0.0,0.0,0.0,0.0,0.0,0.0,0.0,0.0,0.0,0.0,0.0,0.0,0.0,0.0,0.0,0.0,0.0,0.0,0.0,0.0,0.0,0.0,0.0,0.0,0.0,0.0,0.0,0.0,0.0,0.0,0.0,0.0,0.0,0.0,-1.2554,-1.0921,-0.9508,-0.9291,-0.8909,-0.8345,-1.1688,-1.3,-1.1933,0.0,0.0,0.0,0.0,0.0,0.0,0.0,0.0,0.0,0.0,0.0,0.0,0.0,0.0,0.0,0.0,0.0,0.0,0.0,0.0,0.0,0.0,0.0,0.0,0.0,0.0,0.0,0.0,0.0,0.0,0.0,0.0,0.0,0.0,0.0,0.0,0.0,0.0,1.6767,1.5392,0.0,0.0,0.0,0.0,0.0,0.0,0.0,0.0,0.5945,0.0,0.0,0.0,0.0,0.0,0.0,0.0,0.0,0.0,0.0,0.0,0.0,0.0,0.0,0.0,0.0,0.0,0.0,0.0,0.0,0.0,0.0,0.0,0.0,0.0,0.0,0.0,0.0,0.0,0.0,0.0,0.0,0.0,0.0,0.0,0.0,0.0,0.0,0.0,0.0,0.0,0.0,0.0,0.0,0.0,0.0,0.0,0.0,0.0,0.0,0.0,0.0,0.0,0.0,0.0,0.0,-1.0764,-1.088,-1.0067,-0.8248,-0.7722,-0.7717,-0.817,-0.9996,-1.0275,-0.8888,0.0,0.0,0.0,0.0,0.0,0.0,0.0,0.0,0.0,0.0,0.0,0.0,0.0,0.0,0.0,0.0,0.0,0.0,0.0,0.0,0.0,0.0,0.0,0.0,0.0,0.0,0.0,0.0,0.0,0.0,0.0,0.0,0.0,0.0,0.0,0.0,0.0,0.0,0.0,1.4319,1.3379,0.0,0.0,0.0,0.0,0.0,0.0,0.0,0.0,0.6266,0.0,0.0,0.0,0.0,0.0,0.0,0.0,0.0,0.0,0.0,0.0,0.0,0.0,0.0,0.0,0.0,0.0,0.0,0.0,0.0,0.0,0.0,0.0,0.0,0.0,0.0,0.0,0.0,0.0,0.0,0.0,0.0,0.0,0.0,0.0,0.0,0.0,0.0,0.0,0.0,0.0,0.0,0.0,0.0,0.0,0.0,0.0,0.0,0.0,0.0,0.0,0.0,0.0,0.0,0.0,-1.0785,-1.0023,-0.8935,-0.7336,-0.6883,-0.6864,-0.7273,-0.849,-0.8548,0.0,0.0,0.0,0.0,0.0,0.0,0.0,0.0,0.0,0.0,0.0,0.0,0.0,0.0,0.0,0.0,0.0,0.0,0.0,0.0,0.0,0.0,0.0,0.0,0.0,0.0,0.0,0.0,0.0,0.0,0.0,0.0,0.0,0.0,0.0,0.0,0.0,0.0,0.0,0.0,1.4485,1.4005,1.3239,0.0,0.0,0.0,0.0,0.0,0.0,0.3273,0.4976,0.0,0.0,0.0,0.0,0.0,0.0,0.0,0.0,0.0,0.0,0.0,0.0,0.0,0.0,0.0,0.0,0.0,0.0,0.0,0.0,0.0,0.0,0.0,0.0,0.0,0.0,0.0,0.0,0.0,0.0,0.0,0.0,0.0,0.0,0.0,0.0,0.0,0.0,0.0,0.0,0.0,0.0,0.0,0.0,0.0,0.0,0.0,0.0,0.0,0.0,0.0,0.0,0.0,0.0,0.0,-1.0775,-0.9309,-0.794,-0.6615,-0.6116,-0.5937,-0.6062,-0.6828,-0.6906,0.0,0.0,0.0,0.0,0.0,0.0,0.0,0.0,0.0,0.0,0.0,0.0,0.0,0.0,0.0,0.0,0.0,0.0,0.0,0.0,0.0,0.0,0.0,0.0,0.0,0.0,0.0,0.0,0.0,0.0,0.0,0.0,0.0,0.0,0.0,0.0,0.0,0.0,0.0,0.0,0.0,1.4354,1.4343,1.262,0.0,0.0,0.0,0.0,0.1949,0.2796,0.0,0.0,0.0,0.0,0.0,0.0,0.0,0.0,0.0,0.0,0.0,0.0,0.0,0.0,0.0,0.0,0.0,0.0,0.0,0.0,0.0,0.0,0.0,0.0,0.0,0.0,0.0,0.0,0.0,0.0,0.0,0.0,0.0,0.0,0.0,0.0,0.0,0.0,0.0,0.0,0.0,0.0,0.0,0.0,0.0,0.0,0.0,0.0,0.0,0.0,0.0,0.0,0.0,0.0,0.0,0.0,-0.9074,-0.8158,-0.7215,-0.6038,-0.5027,-0.4545,-0.456,-0.4603,-0.467,0.0,0.0,0.0,0.0,0.0,0.0,0.0,0.0,0.0,0.0,0.0,0.0,0.0,0.0,0.0,0.0,0.0,0.0,0.0,0.0,0.0,0.0,0.0,0.0,0.0,0.0,0.0,0.0,0.0,0.0,0.0,0.0,0.0,0.0,0.0,0.0,0.0,0.0,0.0,0.0,0.0,1.2929,1.4953,1.3486,1.1927,0.0,0.0,0.4821,0.019,0.2933,0.0,0.0,0.0,0.0,0.0,0.0,0.0,0.0,0.0,0.0,0.0,0.0,0.0,0.0,0.0,0.0,0.0,0.0,0.0,0.0,0.0,0.0,0.0,0.0,0.0,0.0,0.0,0.0,0.0,0.0,0.0,0.0,0.0,0.0,0.0,0.0,0.0,0.0,0.0,0.0,0.0,0.0,0.0,0.0,0.0,0.0,0.0,0.0,0.0,0.0,0.0,0.0,0.0,0.0,0.0,-1.1847,-0.8961,-0.758,-0.6401,-0.5384,-0.4258,-0.3758,-0.3845,-0.3147,-0.328,0.0,0.0,0.0,0.0,0.0,0.0,0.0,0.0,0.0,0.0,0.0,0.0,0.0,0.0,0.0,0.0,0.0,0.0,0.0,0.0,0.0,0.0,0.0,0.0,0.0,0.0,0.0,0.0,0.0,0.0,0.0,0.0,0.0,0.0,0.0,0.0,0.0,0.0,0.0,0.0,0.0,0.0,1.4554,1.3744,0.0,0.0,0.0,0.616,0.3469,0.0,0.0,0.0,0.0,0.0,0.0,0.0,0.0,0.0,0.0,0.0,0.0,0.0,0.0,0.0,0.0,0.0,0.0,0.0,0.0,0.0,0.0,0.0,0.0,0.0,0.0,0.0,0.0,0.0,0.0,0.0,0.0,0.0,0.0,0.0,0.0,0.0,0.0,0.0,0.0,0.0,0.0,0.0,0.0,0.0,0.0,0.0,0.0,0.0,0.0,0.0,0.0,0.0,0.0,0.0,0.0,0.0,-0.8436,-0.6749,-0.5454,-0.4469,-0.3524,-0.2872,-0.2643,-0.1672,0.0,0.0,0.0,0.0,0.0,0.0,0.0,0.0,0.0,0.0,0.0,0.0,0.0,0.0,0.0,0.0,0.0,0.0,0.0,0.0,0.0,0.0,0.0,0.0,0.0,0.0,0.0,0.9764,0.0,0.0,0.0,0.0,0.0,0.0,0.0,0.0,0.0,0.0,0.0,0.0,0.0,0.0,1.1044,1.2681,1.2947,1.3097,0.0,0.0,0.8123,0.7104,0.5584,0.5082,0.0,0.0,0.0,0.0,0.0,0.0,0.0,0.0,0.0,0.0,0.0,0.0,0.0,0.0,0.0,0.0,0.0,0.0,0.0,0.0,0.0,0.0,0.0,0.0,0.0,0.0,0.0,0.0,0.0,0.0,0.0,0.0,0.0,0.0,0.0,0.0,0.0,0.0,0.0,0.0,0.0,0.0,0.0,0.0,0.0,0.0,0.0,0.0,0.0,0.0,0.0,0.0,0.0,0.0,0.0,-0.66,-0.5464,-0.4288,-0.3066,-0.2684,-0.1756,-0.0383,0.0117,-0.0202,0.0,0.0,0.0,0.0,0.0,0.0,0.0,0.0,0.0,0.0,0.0,0.0,0.0,0.0,0.0,0.0,0.0,0.0,0.0,0.0,0.0,0.0,0.0,0.0,0.0,0.0,0.0,0.0,0.0,0.0,0.0,0.0,0.0,0.0,0.0,0.0,0.0,0.0,0.0,0.0,0.0,0.7265,0.8618,1.0576,1.1554,0.0,0.0,1.092,0.9497,0.8913,0.8537,0.8153,0.0,0.0,0.0,0.0,0.0,0.0,0.0,0.0,0.0,0.0,0.0,0.0,0.0,0.0,0.0,0.0,0.0,0.0,0.0,0.0,0.0,0.0,0.0,0.0,0.0,0.0,0.0,0.0,0.0,0.0,0.0,0.0,0.0,0.0,0.0,0.0,0.0,0.0,0.0,0.0,0.0,0.0,0.0,0.0,0.0,0.0,0.0,0.0,0.0,0.0,0.0,0.0,0.0,-0.8964,-0.7358,-0.5358,-0.3806,-0.2768,-0.208,-0.0965,0.0672,0.0936,0.0524,0.0,0.0,0.0,0.0,0.0,0.0,0.0,0.0,0.0,0.0,0.0,0.0,0.0,0.0,0.0,0.0,0.0,0.0,0.0,0.0,0.0,0.0,0.0,0.0,0.0,0.0,0.0,0.0,0.8121,0.7866,0.7581,0.0,0.0,0.0,0.0,0.0,0.0,0.0,0.0,0.0,0.0,0.6031,0.7568,0.9938,0.0,0.0,1.1291,1.1601,1.0104,0.9788,0.9509,0.8907,0.8538,0.0,0.0,0.0,0.0,0.0,0.0,0.0,0.0,0.0,0.0,0.0,0.0,0.0,0.0,0.0,0.0,0.0,0.0,0.0,0.0,0.0,0.0,0.0,0.0,0.0,0.0,0.0,0.0,0.0,0.0,0.0,0.0,0.0,0.0,0.0,0.0,0.0,0.0,0.0,0.0,0.0,0.0,0.0,0.0,0.0,0.0,0.0,0.0,0.0,0.0,0.0,0.0,-0.9033,-0.7702,-0.5423,-0.3682,-0.2683,-0.1734,-0.0221,0.1788,0.1643,0.1392,0.0,0.0,0.0,0.0,0.0,0.0,0.0,0.0,0.0,0.0,0.0,0.0,0.0,0.0,0.0,0.0,0.0,0.0,0.0,0.0,0.0,0.0,0.0,0.0,0.0,0.0,0.0,0.0,0.772,0.7346,0.7414,0.0,0.0,0.0,0.0,0.0,0.0,0.0,0.0,0.0,0.0,0.5013,0.6914,0.9088,1.0467,1.0312,1.1339,1.1906,1.1232,1.0865,1.0475,1.0025,0.0,0.0,0.0,0.0,0.0,0.0,0.0,0.0,0.0,0.0,0.0,0.0,0.0,0.0,0.0,0.0,0.0,0.0,0.0,0.0,0.0,0.0,0.0,0.0,0.0,0.0,0.0,-1.3245,0.0,0.0,-1.0795,0.0,0.0,0.0,0.0,0.0,0.0,0.0,0.0,0.0,0.0,0.0,0.0,0.0,0.0,0.0,0.0,0.0,0.0,0.0,0.0,0.0,0.0,-0.9615,-0.7095,-0.5439,-0.3982,-0.2825,-0.1633,0.0398,0.3241,0.2374,0.2554,0.4085,0.0,0.0,0.0,0.0,0.0,0.0,0.0,0.0,0.0,0.0,0.0,0.0,0.0,0.0,0.0,0.0,0.0,0.0,0.0,0.0,0.0,0.0,0.0,0.0,0.0,0.0,0.8512,0.799,0.7644,0.0,0.0,0.0,0.0,0.0,0.0,0.0,0.0,0.0,0.0,0.2197,0.3921,0.6284,0.7708,0.8966,1.0176,1.1039,1.1993,1.3238,1.2567,1.1801,0.0,0.0,0.0,0.0,0.0,0.0,0.0,0.0,0.0,0.0,0.0,0.0,0.0,0.0,0.0,0.0,0.0,0.0,0.0,0.0,0.0,0.0,0.0,0.0,0.0,0.0,0.0,-1.3978,-1.4131,0.0,0.0,0.0,0.0,0.0,0.0,0.0,0.0,0.0,0.0,0.0,-1.5853,-1.8266,0.0,0.0,0.0,0.0,0.0,0.0,0.0,0.0,0.0,0.0,0.0,0.0,-1.1545,-0.8083,-0.666,-0.5002,-0.2873,-0.1828,0.0189,0.3319,0.2405,0.0951,-0.1003,0.0,0.0,0.0,0.0,0.0,0.0,0.0,0.0,0.0,0.0,0.0,0.0,0.0,0.0,0.0,0.0,0.0,0.0,0.0,0.0,0.0,0.0,0.0,0.0,0.0,0.8482,0.0,0.0,0.0,0.0,0.0,0.0,0.0,0.0,0.0,0.0,0.0,-0.0404,0.0072,0.1858,0.3943,0.6177,0.7549,0.9117,0.0,0.0,0.0,0.0,0.0,0.0,0.0,0.0,0.0,0.0,0.0,0.0,0.0,0.0,-1.0285,-1.0912,-1.1469,-1.1722,-1.1152,0.0,0.0,0.0,0.0,0.0,0.0,0.0,0.0,0.0,0.0,0.0,0.0,0.0,0.0,-1.5143,0.0,-1.4085,0.0,0.0,0.0,0.0,0.0,0.0,0.0,0.0,-1.5156,-1.521,-1.5164,-1.7126,-1.8049,0.0,-1.9792,-2.1637,0.0,0.0,0.0,0.0,0.0,0.0,0.0,0.0,-1.3651,-1.0083,-0.8115,-0.6108,-0.3875,-0.1935,0.0474,0.3322,0.3464,0.1432,-0.2905,-0.5245,-0.758,0.0,0.0,0.0,0.0,0.0,0.0,0.0,0.0,0.0,0.0,0.0,0.0,0.0,0.0,0.0,0.0,0.0,0.0,0.0,0.0,0.0,0.0,0.0,0.8232,0.0,0.0,0.0,0.0,0.0,0.0,0.0,0.0,0.0,-0.1304,-0.1724,-0.1589,-0.0753,0.1553,0.4087,0.6549,0.0,0.0,0.0,0.0,0.0,0.0,0.0,1.1877,1.0067,0.9151,0.8052,0.6127,0.3773,0.0875,-0.294,0.0,0.0,-1.1007,-1.2872,-1.3831,-1.2981,-1.2475,-1.2207,-1.2373,-1.1652,-1.0485,0.0,0.0,0.0,0.0,0.0,0.0,0.0,0.0,-1.6401,-1.5645,0.0,-1.4462,0.0,0.0,0.0,0.0,0.0,-2.0074,0.0,0.0,-1.8267,-1.6943,-1.5022,-1.6347,-1.6804,-1.6433,-1.7719,-1.9353,-2.1239,-2.3865,0.0,0.0,0.0,0.0,0.0,0.0,-1.6044,-1.3014,-0.9733,-0.7302,-0.5779,-0.1958,0.1223,0.3534,0.5433,0.3902,-0.1196,-0.2799,-0.4911,-0.7826,-0.7422,0.0,0.0,0.0,0.0,0.0,0.0,0.0,0.0,0.0,0.0,0.0,0.0,0.0,0.0,0.0,0.0,0.0,0.0,0.0,0.0,0.7483,0.0,0.0,0.0,0.0,0.0,0.0,0.0,0.0,0.0,0.0,-0.1049,-0.2456,-0.2797,-0.1405,0.0,0.0,0.0,0.0,1.0289,1.2251,1.3201,1.3194,1.1685,1.1135,1.0712,1.0137,0.0,0.0,0.4271,0.2152,0.0308,-0.0964,-0.3339,-0.57,-0.8212,-1.0413,-1.2066,-1.2674,-1.272,-1.2884,-1.3238,-1.1801,-1.042,-1.1247,0.0,0.0,0.0,0.0,-1.3166,-1.2924,-1.2595,-1.3084,-1.2734,-1.1855,-1.2284,0.0,0.0,0.0,0.0,0.0,0.0,-2.0498,-2.0238,-1.7644,-1.5432,-1.3653,-1.4182,-1.3754,-1.2612,-1.4949,-1.6338,-1.6931,-1.9094,-2.1835,-2.4877,0.0,0.0,0.0,0.0,-1.8843,-1.5432,-1.2156,-0.9662,-0.7976,-0.2426,0.2012,0.5059,0.6519,0.5204,0.0902,-0.0618,-0.2078,-0.3641,-0.4904,0.0,0.0,0.0,0.0,0.0,0.0,0.0,0.0,0.0,0.0,0.0,0.0,0.0,0.0,0.0,0.0,0.0,0.0,0.0,0.5402,0.5776,0.5902,0.0,0.0,0.0,0.0,0.0,0.0,0.0,0.0,0.0,-0.2634,-0.2015,-0.1033,0.0,0.0,0.6473,0.7509,0.9923,1.1937,1.28,1.3454,0.0,0.0,1.2316,1.1626,0.9701,0.7802,0.6131,0.4966,0.2242,0.0092,-0.0226,-0.2821,-0.4832,-0.4593,-0.7845,-1.0913,-1.2426,-1.2769,-1.2258,-1.0976,-0.9982,-0.9028,-1.1209,-1.1824,-1.1713,-1.1981,-1.2348,-1.1506,-1.1327,-1.1609,-1.0679,-0.9881,-0.9234,-0.997,-1.0426,-1.0831,-1.3934,0.0,0.0,0.0,-1.9704,-1.9119,-1.6161,-1.3625,-1.1584,-1.0912,-0.9762,-0.8343,-1.0434,-1.1732,-1.2212,-1.4183,-1.7495,-2.1936,0.0,0.0,-2.389,-2.2172,-1.9629,-1.6291,-1.3283,-1.0094,-0.6541,-0.023,0.413,0.6313,0.7411,0.6538,0.3577,0.2548,0.1438,0.0162,-0.1591,-0.2601,0.0,0.0,0.0,0.0,0.0,0.0,0.0,0.0,0.0,0.0,0.0,0.1703,0.0,0.0,0.0,0.0,0.4284,0.4394,0.4598,0.4761,0.0,0.0,0.0,0.0,0.0,0.0,0.0,0.0003,0.106,0.076,-0.1912,-0.0085,0.1376,0.0953,0.4062,0.6841,0.8189,0.0,1.1762,1.2807,1.3647,1.3795,1.2854,1.2619,1.1745,0.9397,0.8285,0.7414,0.6523,0.3983,0.2107,0.1885,0.1042,0.0091,-0.0386,-0.3381,-0.6602,-0.9145,-0.9431,-0.8669,-0.7246,-0.6754,-0.6177,-1.1164,-1.1409,-1.1558,-1.1695,-1.167,-1.0215,-1.0521,-1.1818,-0.8892,-0.7252,-0.6726,-0.7573,-0.7747,-0.7734,-1.3045,0.0,-1.7545,-1.8362,-1.7776,-1.6066,-1.3934,-1.1505,-0.8886,-0.7147,-0.5458,-0.3894,-0.5178,-0.639,-0.7659,-0.9433,-1.2498,-1.674,-2.0682,-2.2556,-2.2345,-2.0997,-1.8926,-1.6164,-1.3402,-0.8895,-0.2485,0.3283,0.6707,0.7571,0.8229,0.791,0.6494,0.6383,0.555,0.384,0.2405,0.1182,0.0144,0.0,0.0,0.0,0.0,0.0,0.0,0.0,0.0,0.0,0.0,0.0,0.0,0.0,0.0,0.0,0.1934,0.0,0.4098,0.4163,0.0,0.0,0.0,0.1177,0.1531,0.0395,-0.0293,-0.0035,0.0,0.0,0.0837,0.2971,0.4117,0.2857,0.413,0.6244,0.9219,0.9761,1.0504,1.2548,1.3897,1.4283,1.3277,1.2638,1.1733,1.002,0.9506,0.9392,0.8756,0.7183,0.5746,0.5396,0.6914,0.7097,0.3696,0.2339,0.0641,-0.3356,-0.3643,-0.3114,-0.295,-0.2695,-0.2287,-1.1384,-1.1387,-1.1077,-1.0927,-1.0743,-0.8697,-0.7454,-0.6775,-0.622,-0.5429,-0.4578,-0.4938,-0.5956,-0.7527,-0.9858,-1.1758,-1.3281,-1.3206,-1.3052,-1.2779,-1.0353,-0.8208,-0.6369,-0.531,-0.374,-0.1922,-0.3294,-0.4335,-0.4957,-0.6316,-0.8271,-1.0872,-1.3168,-1.6422,-2.0396,-1.9263,-1.8126,-1.7147,-1.2669,-0.6321,0.171,0.2565,0.5117,0.983,0.96,0.9293,0.9016,0.9906,0.9842,0.8569,0.718,0.6111,0.5388,0.2713,0.0,0.0,0.0,0.0,0.0,0.0,0.0,0.0,0.0,0.0297,-0.4547,0.0,-0.2322,0.0,0.1921,0.2448,0.2106,0.2758,0.0,0.0,0.11,-0.0072,-0.1242,-0.2736,-0.2728,-0.0277,0.2269,0.4558,0.6392,0.583,0.5894,0.7452,0.7495,0.7978,0.9671,1.0312,1.114,1.2759,1.4848,1.5905,1.4843,1.4,1.3343,1.3073,1.2218,1.1402,1.0822,1.0474,0.9868,0.8856,0.8924,0.8763,0.7649,0.7653,0.6742,0.4123,0.2509,0.1266,0.0463,0.1078,0.1649,-1.1505,-1.1505,-1.0256,-0.9958,-1.0222,-0.8168,-0.652,-0.521,-0.4096,-0.2846,-0.1584,-0.1798,-0.3153,-0.5298,-0.6327,-0.748,-0.8678,-0.8589,-0.8692,-0.8884,-0.7195,-0.5518,-0.3879,-0.3083,-0.1424,0.094,0.1668,0.1265,-0.0154,-0.1101,-0.274,-0.508,-0.6926,-0.9686,-1.3246,-1.5374,-1.5574,-1.3784,-0.7463,-0.1876,0.2721,0.4812,0.7174,0.9863,0.9949,0.9799,0.9551,0.9657,0.9595,0.9381,0.7771,0.6592,0.5907,0.3401,0.131,0.0,0.0,0.0,0.0,0.0,0.0,0.0,0.0,0.0,0.0,0.0,-0.2742,0.0008,0.1049,0.1784,0.2405,0.2743,0.2716,0.2194,0.1159,-0.0112,-0.1643,-0.3323,-0.267,0.1584,0.4706,0.7098,0.8526,0.8048,0.8469,1.095,1.0595,1.0298,1.0912,1.101,1.1627,1.3903,1.5745,1.6725,1.6105,1.561,1.5086,1.4602,1.3947,1.316,1.2197,1.2277,1.2334,1.1937,1.1075,1.0412,1.0362,1.0156,0.9456,0.7779,0.651,0.5422,0.4213,0.4244,0.4348,-1.1505,-1.1587,-0.9536,-0.9118,-0.9723,-0.82,-0.6765,-0.5292,-0.2823,-0.0649,0.115,0.083,-0.0248,-0.1869,-0.2617,-0.3374,-0.4133,-0.4401,-0.4625,-0.4759,-0.4182,-0.3052,-0.1521,-0.0767,0.107,0.3838,0.6845,0.7172,0.4969,0.4257,0.2636,0.022,-0.1693,-0.3143,-0.4298,-0.9717,-1.1024,-0.7885,-0.041,0.3206,0.2784,0.8035,1.0303,0.9274,0.9796,0.9733,0.8942,0.7866,0.7488,0.7939,0.6168,0.4907,0.4422,0.2409,0.0433,0.0,-0.2424,0.0,0.0,0.0,0.0,0.0,0.0,0.0,0.0,-0.3623,-0.2061,-0.0326,0.0129,0.125,0.3494,0.3397,0.3112,0.289,0.1849,0.0644,-0.0616,-0.2347,-0.1196,0.4605,0.7559,0.9088,0.9071,0.9733,1.1092,1.2867,1.2871,1.2684,1.2895,1.2126,1.254,1.554,1.6589,1.7222,1.7374,1.7287,1.6773,1.5719,1.5386,1.4829,1.3741,1.3781,1.4165,1.4541,1.3366,1.2231,1.2437,1.1807,1.0955,0.9827,0.9636,0.9182,0.7748,0.7014,0.6816,-1.1022,-1.1006,-1.0088,-0.9199,-0.8402,-0.8432,-0.7019,-0.4664,-0.3911,-0.1852,0.0956,0.036,0.0874,0.2129,0.1048,0.0358,0.0015,-0.0563,-0.0946,-0.1108,-0.0879,-0.0301,0.0534,0.0967,0.2714,0.5468,0.5689,0.6135,0.6818,0.524,0.4148,0.3532,0.2014,0.1041,0.0598,0.0,0.0,0.0,0.4225,0.6783,0.6534,0.8295,0.959,1.0082,0.9763,0.0,0.8124,0.8105,0.7519,0.6167,0.4928,0.0,0.0,0.0,0.0,0.0,0.0,0.0,0.0,0.0,0.0,0.0,-0.4417,-0.443,-0.4841,-0.4622,-0.3222,-0.034,0.1199,0.2186,0.2568,0.3587,0.412,0.3898,0.3031,0.2112,0.1214,-0.0445,0.0939,0.75,0.9002,0.9637,1.0083,1.0636,1.1552,1.3018,1.3489,1.4255,1.5461,1.4454,1.4361,1.5924,1.7289,1.8329,1.9232,1.8704,1.8259,1.8049,1.7592,1.7136,1.6812,1.6661,1.6636,1.6638,1.6102,1.538,1.5016,1.5334,1.5156,1.3821,1.3333,1.2434,0.9836,0.9604,0.9872,-1.1416,0.0,-1.0047,-0.9159,0.0,-0.7617,-0.6529,-0.5187,-0.4467,-0.2024,0.1448,0.1448,0.2388,0.3944,0.3284,0.2833,0.2567,0.2021,0.1593,0.1214,0.0816,0.0966,0.1549,0.1866,0.31,0.522,0.7485,0.8618,0.8774,0.8714,0.8419,0.7858,0.5899,0.4734,0.4363,0.3743,0.3737,0.4359,0.6562,0.8172,0.914,0.9894,1.0293,1.0343,0.0,0.0,0.0,0.0,0.0,0.0,0.0,0.0,0.0,0.0,0.0,-0.2394,-0.381,-0.5083,-0.5916,-0.53,-0.4937,-0.5056,-0.3715,-0.3455,-0.4723,-0.3651,-0.1407,0.2066,0.3222,0.3889,0.4273,0.586,0.6689,0.6068,0.5075,0.426,0.3926,0.3819,0.5533,0.9582,1.1145,1.1604,1.159,1.2269,1.3278,1.4615,1.5313,1.6005,1.6736,1.6072,1.5917,1.7541,1.8398,1.9201,1.9763,1.9696,1.9257,1.9033,1.8688,1.8322,1.7967,1.7521,1.7263,1.7403,1.6545,1.5809,1.6976,1.7823,1.7993,1.65,1.5891,1.5345,1.3627,1.2893,1.2499,-1.1788,-1.1059,-0.9777,-0.8952,-0.836,-0.6724,-0.5986,-0.5778,0.0,0.0,0.0,0.2173,0.3163,0.4226,0.4233,0.4041,0.3721,0.3309,0.2795,0.2215,0.1388,0.1278,0.178,0.1986,0.286,0.4452,0.9154,1.1029,1.0302,1.1829,1.2319,1.1587,0.9219,0.7723,0.7257,0.6796,0.7121,0.814,0.7945,0.8865,1.1033,1.1437,1.1211,1.0359,0.9887,0.7503,0.2993,-0.0216,-0.1975,-0.2294,-0.3648,-0.4338,-0.4221,-0.4175,-0.45,-0.5188,-0.4909,-0.4994,-0.5698,-0.4783,-0.4217,-0.4382,-0.1704,-0.0983,-0.3142,-0.1141,0.1579,0.4946,0.5443,0.5955,0.6872,0.8406,0.9182,0.8435,0.7567,0.705,0.7152,0.8598,1.0387,1.2413,1.3618,1.3941,1.3372,1.4297,1.5423,1.6665,1.7457,1.8007,1.8024,1.7411,1.74,1.9003,1.9501,1.9816,2.02,2.0365,2.0235,2.0059,1.9795,1.9339,1.8691,1.7925,1.7744,1.8374,1.6849,1.7021,1.8543,1.9767,1.9913,1.8482,1.8041,1.79,1.7669,1.6328,1.5137,-1.1136,-1.0221,-0.9397,-0.8396,-0.731,-0.6794,-0.613,-0.533,-0.4287,-0.2923,-0.1275,0.0085,0.1496,0.2898,0.3122,0.3054,0.2772,0.221,0.1562,0.087,0.051,0.0531,0.0893,0.0922,0.2173,0.456,0.7268,0.9188,1.0254,1.1008,1.1956,1.2744,1.0619,0.9219,0.8988,0.8396,0.8498,0.9349,0.9101,0.9924,1.1851,1.1562,1.1102,1.052,0.8879,0.6245,0.2573,-0.146,-0.4162,-0.5272,-0.7175,-0.781,-0.7037,-0.7485,-0.713,-0.5421,-0.5556,-0.5189,-0.385,-0.3899,-0.3076,-0.0858,0.1656,0.2954,0.2677,0.3507,0.4755,0.6334,0.7228,0.8304,0.9339,0.9632,1.0017,1.0295,1.052,1.0662,1.0709,1.224,1.4006,1.5701,1.6146,1.5974,1.5386,1.6571,1.7682,1.8078,1.9046,1.9975,1.9759,1.9146,1.8909,1.955,1.9816,2.0247,2.0936,2.1297,2.1559,2.2438,2.1795,2.1257,2.1074,2.0143,1.956,1.9681,1.9763,2.03,2.0717,2.1645,2.1679,2.0821,2.0273,2.0063,1.9988,1.9126,1.8042,-1.1012,-1.0153,-0.9131,-0.8123,-0.716,-0.6421,-0.5709,-0.4953,-0.3885,-0.2777,-0.1649,-0.0726,0.0459,0.1784,0.1935,0.1946,0.1855,0.1338,0.0815,0.0281,-0.0693,-0.1371,-0.1692,-0.1422,-0.0514,0.0998,0.4317,0.6707,0.8268,1.0596,1.1999,1.2211,1.0821,0.9849,0.9261,0.9309,0.9434,0.9676,0.9912,1.0845,1.2374,1.2362,1.1736,1.0407,0.9904,0.7251,0.2018,-0.155,-0.4179,-0.5792,-0.7364,-0.8023,-0.7539,-0.7509,-0.6751,-0.5102,-0.4487,-0.3652,-0.235,-0.113,-0.0051,0.0994,0.2716,0.4138,0.505,0.5627,0.6338,0.7328,0.8376,0.9255,0.999,1.1553,1.2673,1.2845,1.3015,1.3543,1.4679,1.6016,1.7253,1.8122,1.8906,1.9026,1.8197,1.9036,1.9717,1.9802,2.0494,2.0941,2.1182,2.0914,2.0418,1.9982,2.0337,2.0891,2.1414,2.1925,2.2409,2.2998,2.272,2.2493,2.2402,2.1389,2.0478,2.0231,2.0554,2.1092,2.1791,2.2321,2.2227,2.1713,2.1344,2.1085,2.0724,2.0207,1.937,-1.108,-1.0302,-0.9083,-0.7981,-0.6988,-0.6041,-0.5251,-0.4595,-0.3728,-0.2765,-0.1775,-0.1124,-0.0275,0.0625,0.0703,0.0727,0.0675,0.0134,-0.0476,-0.1162,-0.2578,-0.3712,-0.4487,-0.4202,-0.379,-0.2845,0.0942,0.351,0.5044,0.866,1.0499,1.0341,1.0245,0.9873,0.9212,0.9535,0.9632,0.958,1.022,1.1236,1.2597,1.2552,1.1807,1.0594,1.0337,0.7749,0.2179,-0.0997,-0.3437,-0.5203,-0.6441,-0.7077,-0.6975,-0.6357,-0.5457,-0.4295,-0.2954,-0.1683,-0.0552,0.1408,0.2682,0.2795,0.3649,0.4913,0.6447,0.714,0.7573,0.8088,0.9196,1.0157,1.0876,1.3154,1.5003,1.4982,1.5508,1.6331,1.7768,1.8782,1.9626,2.0178,2.1412,2.1842,2.1132,2.1054,2.1309,2.1562,2.1706,2.1947,2.2355,2.2535,2.2073,2.1519,2.1481,2.184,2.1934,2.2573,2.3188,2.3471,2.3436,2.3368,2.3144,2.2081,2.0915,2.0599,2.0167,2.1086,2.2883,2.3478,2.3138,2.2723,2.2665,2.2405,2.1657,2.111,2.0398,-1.1235,-1.0334,-0.9389,-0.7981,-0.6341,-0.5859,-0.5136,-0.4317,-0.4126,-0.3529,-0.2476,-0.1289,-0.0826,-0.0825,-0.0603,-0.0615,-0.0983,-0.1934,-0.3152,-0.4487,-0.5622,-0.6402,-0.7024,-0.7471,-0.7148,-0.5911,-0.288,-0.1095,-0.0135,0.334,0.5828,0.7347,0.8546,0.9173,0.9249,0.8775,0.8669,0.9051,0.9581,1.0737,1.2353,1.1091,1.0599,1.1177,0.8342,0.5777,0.339,0.0288,-0.2165,-0.3717,-0.4946,-0.5561,-0.5396,-0.4746,-0.3822,-0.2674,-0.1349,0.0154,0.1858,0.2655,0.3757,0.5242,0.5539,0.6325,0.7877,0.8839,0.8936,0.8672,0.9916,1.1396,1.2334,1.4014,1.5405,1.6156,1.7983,1.9437,1.9251,1.9219,2.0102,2.2312,2.3299,2.3541,2.2243,2.2239,2.2622,2.3155,2.3304,2.3397,2.3573,2.3805,2.4086,2.4107,2.3564,2.2958,2.34,2.3792,2.4227,2.4953,2.4658,2.4313,2.4019,2.3397,2.2413,2.1666,2.0588,2.157,2.3611,2.5245,2.5321,2.4173,2.4285,2.4851,2.3799,2.2777,2.185,-1.0865,-1.0478,-0.8972,-0.7543,-0.6242,-0.5411,-0.4806,-0.4357,-0.3688,-0.3193,-0.2767,-0.2065,-0.1864,-0.2051,-0.2217,-0.2617,-0.3249,-0.439,-0.5583,-0.6831,-0.8559,-0.993,-1.0866,-1.1506,-1.1498,-1.0849,-0.901,-0.6901,-0.4163,-0.0059,0.3086,0.4853,0.604,0.6839,0.7325,0.7528,0.7662,0.7726,0.8276,0.912,1.0057,1.0493,1.0206,0.9356,0.8208,0.622,0.3486,0.1183,-0.0651,-0.2004,-0.297,-0.3379,-0.3231,-0.2693,-0.2027,-0.1141,0.0555,0.2114,0.3436,0.429,0.52,0.6218,0.6821,0.7406,0.7928,0.9218,0.9779,0.9602,1.1205,1.2757,1.3385,1.5166,1.6753,1.7776,1.9646,2.0953,2.1026,2.1832,2.2687,2.3145,2.4372,2.5078,2.4413,2.4556,2.4738,2.4693,2.465,2.4569,2.4282,2.4409,2.4723,2.4929,2.441,2.3945,2.3896,2.4361,2.491,2.5311,2.5274,2.5036,2.4937,2.4368,2.3613,2.3444,2.2585,2.2313,2.3354,2.47,2.5286,2.4529,2.4141,2.4348,2.441,2.3632,2.275,-1.0606,-1.0441,-0.8545,-0.7207,-0.6352,-0.52,-0.4599,-0.4316,-0.3386,-0.2882,-0.2756,-0.2774,-0.286,-0.3036,-0.3312,-0.4023,-0.5187,-0.6474,-0.7776,-0.9121,-1.1179,-1.2819,-1.4167,-1.4943,-1.5133,-1.4744,-1.3717,-1.1399,-0.778,-0.3644,-0.0407,0.1345,0.2716,0.3751,0.4558,0.5357,0.5755,0.5634,0.636,0.6998,0.7448,0.8686,0.8928,0.8068,0.7671,0.6188,0.3389,0.1926,0.0645,-0.0505,-0.1221,-0.1447,-0.1145,-0.0882,-0.0316,0.0706,0.2313,0.3804,0.4956,0.575,0.6503,0.7205,0.7881,0.8115,0.8253,0.9428,1.0287,1.045,1.2341,1.3779,1.4206,1.6214,1.7975,1.9068,2.0895,2.225,2.2539,2.378,2.4325,2.4124,2.5151,2.6042,2.6042,2.6261,2.6252,2.5807,2.5536,2.517,2.4524,2.4549,2.4802,2.4964,2.4985,2.4696,2.4125,2.4588,2.5263,2.5418,2.5408,2.5434,2.5563,2.4937,2.472,2.4527,2.4121,2.3182,2.2337,2.3067,2.4457,2.3884,2.3787,2.4169,2.4717,2.3951,2.3519,-1.0761,-1.0332,-0.8272,-0.7144,-0.6672,-0.5472,-0.4707,-0.4282,-0.3443,-0.284,-0.2587,-0.3161,-0.3562,-0.3746,-0.355,-0.4428,-0.6413,-0.7867,-0.9645,-1.1629,-1.3195,-1.4695,-1.6178,-1.7206,-1.7446,-1.684,-1.5685,-1.3429,-1.0136,-0.7684,-0.5631,-0.3688,-0.1469,0.0147,0.1312,0.2141,0.2569,0.2806,0.3752,0.4428,0.4566,0.5101,0.6192,0.7279,0.6113,0.4705,0.3547,0.2444,0.1434,0.0548,-0.0035,-0.01,0.0396,0.0389,0.1197,0.2964,0.3841,0.5008,0.6453,0.6869,0.7401,0.8508,0.8622,0.8648,0.8645,0.9808,1.0609,1.095,1.2993,1.4427,1.4811,1.6822,1.8661,1.9821,2.201,2.3206,2.3371,2.4083,2.4963,2.5422,2.5948,2.647,2.6784,2.6765,2.6893,2.6632,2.6153,2.5375,2.4543,2.4513,2.4772,2.4922,2.4977,2.4966,2.4937,2.5019,2.5216,2.5337,2.541,2.5499,2.5504,2.5479,2.5561,2.5515,2.4959,2.3645,2.1424,2.1279,2.2815,2.3485,2.453,2.5067,2.5257,2.4442,2.399,-1.0058,-0.8948,-0.7841,-0.7162,-0.673,-0.5496,-0.4735,-0.4342,-0.3427,-0.2871,-0.2776,-0.3494,-0.407,-0.4395,-0.504,-0.6082,-0.7551,-0.9234,-1.1184,-1.3258,-1.4812,-1.618,-1.7348,-1.8178,-1.8401,-1.8072,-1.7271,-1.5421,-1.2646,-1.0586,-0.8567,-0.6509,-0.4763,-0.3126,-0.1692,-0.0724,-0.0104,0.0477,0.1331,0.2104,0.2799,0.3085,0.3785,0.4918,0.4691,0.3956,0.2882,0.2425,0.1875,0.1076,0.1049,0.115,0.1404,0.1893,0.2884,0.4376,0.4778,0.5374,0.6402,0.7098,0.7506,0.783,0.8558,0.8996,0.928,1.0062,1.0743,1.1379,1.3258,1.4779,1.5775,1.7527,1.9298,2.0498,2.222,2.3645,2.4036,2.4444,2.4914,2.567,2.6619,2.7717,2.8181,2.842,2.8196,2.7656,2.6931,2.5875,2.4782,2.4582,2.4757,2.4817,2.4922,2.4991,2.5004,2.5056,2.5152,2.5234,2.5293,2.536,2.5385,2.5415,2.5448,2.5299,2.5056,2.334,2.0886,2.0979,2.2289,2.354,2.4645,2.4989,2.5831,2.4692,2.429,-0.95,-0.8142,-0.7695,-0.7192,-0.6579,-0.5528,-0.4779,-0.4257,-0.342,-0.3069,-0.3265,-0.4005,-0.4751,-0.5558,-0.6884,-0.8176,-0.9412,-1.12,-1.3058,-1.4875,-1.6396,-1.7584,-1.8375,-1.886,-1.8859,-1.8457,-1.7865,-1.6244,-1.4013,-1.2456,-1.0613,-0.8582,-0.7136,-0.5723,-0.4226,-0.3395,-0.259,-0.1788,-0.0948,-0.0052,0.075,0.1303,0.194,0.2682,0.3272,0.3206,0.2397,0.2269,0.2017,0.158,0.1685,0.1951,0.2275,0.3008,0.4026,0.5103,0.5305,0.5733,0.6574,0.7424,0.7819,0.7706,0.8569,0.9215,0.9248,0.9944,1.057,1.1407,1.3183,1.5031,1.6281,1.8075,1.9817,2.0976,2.238,2.3566,2.4314,2.4407,2.5039,2.6265,2.7698,2.8781,2.9322,2.9377,2.9114,2.8611,2.764,2.6395,2.5425,2.4851,2.4757,2.4802,2.4889,2.4964,2.4977,2.5032,2.5087,2.5145,2.5581,2.5554,2.5451,2.544,2.5283,2.5101,2.4034,2.219,2.1271,2.1216,2.2016,2.3272,2.3652,2.3844,2.4384,2.471,2.4385,-0.9135,-0.8111,-0.7897,-0.7229,-0.6287,-0.5687,-0.4861,-0.4026,-0.3465,-0.3454,-0.3881,-0.4671,-0.5573,-0.6879,-0.8503,-1.0389,-1.1787,-1.3374,-1.4985,-1.6535,-1.7733,-1.8596,-1.9103,-1.9123,-1.8755,-1.8107,-1.729,-1.5935,-1.4106,-1.2959,-1.1602,-1.0149,-0.8613,-0.7291,-0.6347,-0.5507,-0.4812,-0.3745,-0.2717,-0.212,-0.1816,-0.0289,0.0756,0.1274,0.1963,0.237,0.2317,0.2008,0.1839,0.1903,0.1891,0.2299,0.304,0.3789,0.4472,0.5176,0.547,0.6166,0.7124,0.7809,0.8269,0.8461,0.9056,0.9108,0.8985,0.9511,1.032,1.1324,1.3099,1.4908,1.6356,1.8217,1.9989,2.1459,2.237,2.3326,2.3934,2.421,2.502,2.7117,2.8611,2.9494,2.9588,2.9549,2.9436,2.9157,2.8054,2.6914,2.6218,2.5418,2.4926,2.4936,2.495,2.4917,2.4964,2.501,2.5044,2.5139,2.5755,2.6054,2.582,2.574,2.5343,2.5082,2.4358,2.2595,2.0751,2.0726,2.0996,2.1932,2.2243,2.2831,2.3336,2.383,2.4254,-0.8657,-0.7996,-0.8008,-0.7504,-0.6655,-0.6063,-0.5333,-0.4557,-0.3902,-0.3872,-0.4331,-0.502,-0.5908,-0.716,-0.9029,-1.0824,-1.2358,-1.4016,-1.5609,-1.6978,-1.749,-1.8071,-1.8617,-1.875,-1.8111,-1.6967,-1.5992,-1.4932,-1.3607,-1.2359,-1.1258,-1.0264,-0.8958,-0.8024,-0.7235,-0.6202,-0.5123,-0.4282,-0.3386,-0.2706,-0.2292,-0.1196,-0.0091,0.1048,0.1806,0.2241,0.2417,0.2016,0.1914,0.2059,0.2192,0.2829,0.3863,0.4749,0.5351,0.5717,0.5944,0.6253,0.6789,0.7578,0.8156,0.845,0.88,0.9177,0.94,0.9447,1.0158,1.1419,1.3124,1.4633,1.5974,1.7548,1.9125,2.0481,2.199,2.2997,2.351,2.4737,2.6135,2.7324,2.8619,2.9316,2.9451,2.9451,2.9471,2.9324,2.8073,2.699,2.6722,2.5618,2.4846,2.4945,2.4917,2.4889,2.4889,2.4927,2.4993,2.5168,2.5697,2.6008,2.5904,2.5847,2.5452,2.472,2.4041,2.2758,2.096,2.0287,2.0553,2.1025,2.1708,2.2249,2.2682,2.3078,2.3481,-0.8428,-0.7994,-0.7717,-0.7171,-0.6432,-0.583,-0.5187,-0.45,-0.4127,-0.4219,-0.4772,-0.5339,-0.6332,-0.777,-0.973,-1.1399,-1.2789,-1.4325,-1.5826,-1.7169,-1.7549,-1.7856,-1.8113,-1.7411,-1.6557,-1.5475,-1.4511,-1.3494,-1.2492,-1.1336,-1.0325,-0.9553,-0.8397,-0.753,-0.7072,-0.5992,-0.4948,-0.4123,-0.3268,-0.2523,-0.1884,-0.1013,0.0176,0.1474,0.2199,0.2511,0.2549,0.2415,0.2457,0.2598,0.2895,0.3581,0.4445,0.5237,0.5783,0.5974,0.6249,0.6513,0.6753,0.745,0.8006,0.8314,0.8594,0.8989,0.9462,0.9365,0.9999,1.1371,1.2947,1.447,1.5844,1.704,1.8258,1.9296,2.1187,2.25,2.3206,2.5029,2.6527,2.7442,2.8513,2.9156,2.9328,2.9349,2.9221,2.8911,2.7848,2.6823,2.6572,2.5596,2.5177,2.4959,2.4985,2.4912,2.4779,2.4821,2.4915,2.5211,2.5597,2.5646,2.5597,2.5758,2.5585,2.4221,2.3298,2.1763,2.0063,1.9904,2.0009,2.0624,2.0916,2.1022,2.1254,2.2124,2.2731,-0.8348,-0.8024,-0.7199,-0.6463,-0.573,-0.5225,-0.4703,-0.405,-0.4115,-0.4574,-0.5187,-0.5655,-0.6815,-0.87,-1.0503,-1.1988,-1.3244,-1.4313,-1.565,-1.6833,-1.7436,-1.7602,-1.7221,-1.5672,-1.4541,-1.3789,-1.274,-1.1748,-1.0777,-0.9959,-0.9096,-0.8193,-0.7163,-0.6422,-0.5828,-0.5202,-0.426,-0.3469,-0.2632,-0.1741,-0.0889,0.0086,0.1161,0.2373,0.2957,0.3135,0.2954,0.3252,0.3429,0.3315,0.3799,0.4291,0.4705,0.5339,0.5864,0.6008,0.6383,0.6799,0.7066,0.7643,0.8107,0.8309,0.8534,0.8803,0.913,0.9293,0.9825,1.1189,1.2707,1.4341,1.5818,1.7002,1.7822,1.8687,2.0539,2.201,2.3476,2.5104,2.6227,2.7211,2.8359,2.9246,2.9228,2.9283,2.8955,2.8368,2.755,2.6822,2.6174,2.5571,2.5073,2.4985,2.5069,2.4993,2.4874,2.4842,2.4907,2.4825,2.5188,2.5299,2.5353,2.5547,2.5183,2.3819,2.2297,2.0739,2.0013,1.997,1.9386,1.9161,1.9335,1.9431,2.0118,2.1135,2.2325,-0.7947,-0.7255,-0.7226,-0.6525,-0.5517,-0.55,-0.5219,-0.4686,-0.4432,-0.4793,-0.5504,-0.5989,-0.7059,-0.8693,-1.0295,-1.1803,-1.2995,-1.3668,-1.4738,-1.5976,-1.5806,-1.5611,-1.5178,-1.3964,-1.2903,-1.2147,-1.0887,-0.9703,-0.8976,-0.8538,-0.7856,-0.6852,-0.5734,-0.5096,-0.4841,-0.3582,-0.2746,-0.2221,-0.13,-0.0489,0.0267,0.1188,0.2113,0.3031,0.3972,0.41,0.366,0.4312,0.4395,0.3799,0.4373,0.4832,0.5232,0.6067,0.6593,0.6753,0.7194,0.7586,0.785,0.8114,0.8407,0.8574,0.8626,0.8856,0.9449,0.9239,1.0004,1.1435,1.2801,1.3905,1.5343,1.6896,1.8552,2.0552,2.1065,2.1878,2.3424,2.4577,2.5602,2.6508,2.7618,2.8441,2.9008,2.9119,2.8886,2.8234,2.7549,2.6785,2.6191,2.542,2.487,2.5099,2.5209,2.5087,2.5,2.4953,2.4802,2.4501,2.4652,2.4905,2.5057,2.5296,2.45,2.3323,2.1481,1.9834,2.0175,2.0431,1.9434,1.8361,1.8799,1.943,1.98,2.062,2.1932,-0.7903,-0.7255,-0.6999,-0.6424,-0.5635,-0.5384,-0.5174,-0.4971,-0.4682,-0.4911,-0.5594,-0.6199,-0.7156,-0.8512,-1.0095,-1.1374,-1.2455,-1.3015,-1.3884,-1.4626,-1.4336,-1.415,-1.3806,-1.2717,-1.1555,-1.0782,-0.945,-0.8427,-0.7615,-0.72,-0.6616,-0.5813,-0.4503,-0.368,-0.3197,-0.2252,-0.1381,-0.0976,-0.0132,0.0656,0.1555,0.2186,0.2979,0.3803,0.4618,0.4801,0.4709,0.5188,0.5266,0.4907,0.5108,0.5528,0.5954,0.674,0.7171,0.7212,0.7647,0.8026,0.8228,0.8332,0.8524,0.8746,0.8734,0.9092,0.963,0.9497,1.0043,1.2013,1.2755,1.3739,1.5153,1.7022,1.9099,2.0841,2.1229,2.1908,2.3798,2.4748,2.5517,2.6417,2.7339,2.8136,2.885,2.8863,2.8621,2.8207,2.7787,2.7064,2.6371,2.5473,2.4861,2.508,2.522,2.513,2.5025,2.4947,2.4817,2.4504,2.469,2.4859,2.4892,2.5103,2.4404,2.3144,2.0953,1.9617,2.0146,2.0286,1.9448,1.8884,1.9192,1.9488,1.9893,2.0385,2.1685,-0.7945,-0.754,-0.6589,-0.6061,-0.5681,-0.497,-0.4735,-0.4857,-0.4695,-0.4901,-0.5462,-0.6259,-0.7141,-0.8242,-0.9779,-1.0949,-1.1549,-1.2337,-1.2903,-1.3153,-1.2878,-1.2646,-1.2575,-1.1265,-1.016,-0.9334,-0.8345,-0.7352,-0.6496,-0.6033,-0.5569,-0.4721,-0.3356,-0.2142,-0.1428,-0.0803,-0.0312,0.0398,0.1169,0.1988,0.2849,0.3456,0.4142,0.4703,0.5,0.5491,0.5771,0.6087,0.6169,0.6081,0.6123,0.6423,0.6878,0.7425,0.765,0.761,0.8084,0.8466,0.8578,0.8706,0.8635,0.8971,0.8848,0.9178,0.9933,0.9996,1.0558,1.2248,1.2695,1.3749,1.5496,1.7424,1.9097,2.0558,2.0994,2.2176,2.3841,2.4918,2.565,2.6543,2.7361,2.796,2.8352,2.8446,2.8324,2.754,2.7241,2.6767,2.6075,2.53,2.4953,2.5019,2.5118,2.5149,2.5057,2.4974,2.4773,2.4598,2.4962,2.513,2.4948,2.4898,2.4531,2.3388,2.1593,2.0415,2.0047,1.9814,1.9254,1.9025,1.9044,1.9503,2.0044,2.0581,2.1585,-0.7316,-0.6446,-0.6159,-0.5367,-0.4423,-0.4409,-0.447,-0.4509,-0.4434,-0.4688,-0.5312,-0.6262,-0.7027,-0.7668,-0.9192,-1.0348,-1.0999,-1.1459,-1.1761,-1.1746,-1.1094,-1.042,-1.0087,-0.9255,-0.8549,-0.7508,-0.6151,-0.558,-0.5316,-0.4583,-0.4133,-0.3767,-0.1437,0.0089,-0.0,0.0756,0.1555,0.2207,0.2979,0.3626,0.4332,0.5099,0.5567,0.5802,0.5825,0.6173,0.6785,0.716,0.7503,0.7769,0.7754,0.7704,0.7772,0.8067,0.8417,0.881,0.9001,0.9365,0.9826,0.9779,0.9646,0.9336,0.9073,0.9222,1.0417,1.0867,1.13,1.2174,1.2532,1.3769,1.6034,1.7852,1.9196,2.021,2.0965,2.1794,2.3042,2.3733,2.4549,2.5592,2.644,2.7116,2.8013,2.8299,2.7886,2.7009,2.6583,2.6265,2.5766,2.5215,2.5177,2.5241,2.5099,2.5149,2.4974,2.4927,2.4849,2.4811,2.514,2.561,2.5436,2.508,2.4797,2.3845,2.2463,2.1523,2.0738,1.9818,1.9331,1.9137,1.9046,1.9843,2.0508,2.095,2.1784,-0.6714,-0.5944,-0.5718,-0.5074,-0.4275,-0.4217,-0.4199,-0.4184,-0.4245,-0.4487,-0.4986,-0.584,-0.6662,-0.7474,-0.8496,-0.9405,-1.0046,-1.0161,-1.0321,-1.0314,-0.9668,-0.8807,-0.8018,-0.7356,-0.665,-0.5952,-0.48,-0.426,-0.3816,-0.2889,-0.2055,-0.1921,0.049,0.1471,0.1558,0.2176,0.2832,0.349,0.4279,0.4976,0.5578,0.6143,0.6742,0.6904,0.7063,0.7405,0.7938,0.8564,0.8867,0.9086,0.928,0.9279,0.8889,0.8951,0.9287,0.9666,0.9829,0.994,1.0316,1.0368,1.0184,1.0047,0.9528,0.9897,1.0572,1.1276,1.1612,1.192,1.2472,1.3659,1.625,1.7885,1.9049,1.9836,2.0503,2.115,2.1827,2.2742,2.4056,2.533,2.6279,2.6901,2.7467,2.7855,2.7805,2.7066,2.7131,2.6811,2.6326,2.584,2.5627,2.5551,2.5298,2.513,2.4915,2.4858,2.4968,2.5059,2.5351,2.5889,2.6168,2.5729,2.5255,2.4214,2.3196,2.2367,2.1542,2.0557,1.9551,1.9381,1.957,2.0353,2.1027,2.1569,2.2601,-0.6169,-0.5675,-0.5254,-0.4792,-0.4359,-0.3977,-0.3808,-0.3819,-0.3947,-0.4114,-0.4584,-0.5193,-0.6077,-0.6984,-0.7853,-0.8561,-0.9101,-0.9012,-0.9192,-0.9209,-0.8295,-0.7366,-0.6521,-0.553,-0.4721,-0.4548,-0.3649,-0.3024,-0.2119,-0.107,-0.0223,0.0669,0.1782,0.2854,0.33,0.35,0.4097,0.4928,0.5481,0.6241,0.689,0.7321,0.7709,0.8354,0.8508,0.8828,0.9313,0.994,1.036,1.01,1.0737,1.0836,1.0521,1.0072,0.9976,1.0277,1.0446,1.0659,1.0821,1.0788,1.0776,1.0804,1.0401,1.041,1.0988,1.1529,1.1931,1.2367,1.301,1.4162,1.6123,1.7581,1.8612,1.9229,1.9702,2.0019,2.0506,2.1727,2.3091,2.5175,2.5949,2.6521,2.6943,2.7278,2.7254,2.7216,2.7295,2.7111,2.6522,2.6136,2.5725,2.5583,2.5329,2.5,2.4795,2.5134,2.5168,2.5434,2.5675,2.6138,2.6639,2.632,2.5753,2.4984,2.4092,2.2994,2.1857,2.0706,1.9969,1.9702,1.9928,2.0557,2.1332,2.2136,2.3235,-0.5796,-0.5166,-0.4722,-0.4068,-0.3397,-0.3212,-0.3228,-0.3296,-0.3237,-0.345,-0.3945,-0.4751,-0.5214,-0.5861,-0.7406,-0.8536,-0.8894,-0.8593,-0.8257,-0.7999,-0.6988,-0.5851,-0.48,-0.3727,-0.2644,-0.1859,-0.1661,-0.1391,-0.0492,0.0134,0.1337,0.304,0.3439,0.3976,0.4718,0.5101,0.553,0.6458,0.6967,0.7713,0.8585,0.9044,0.9385,1.0077,1.0081,1.0285,1.0862,1.1556,1.195,1.1602,1.161,1.1969,1.207,1.151,1.1259,1.1352,1.142,1.1538,1.1746,1.1963,1.1709,1.1324,1.1025,1.1194,1.1598,1.2076,1.2707,1.3604,1.4626,1.5776,1.6202,1.7486,1.8092,1.8475,1.8721,1.9011,1.9325,2.0017,2.1183,2.3446,2.4801,2.612,2.6472,2.6688,2.6568,2.641,2.6273,2.5925,2.5264,2.5166,2.5139,2.5146,2.5244,2.493,2.4622,2.5185,2.5568,2.587,2.6136,2.642,2.6774,2.6737,2.6248,2.5196,2.3909,2.249,2.1486,2.0681,2.0188,1.9788,2.0187,2.0671,2.1444,2.223,2.3209,-0.5135,-0.4763,-0.4425,-0.3814,-0.3112,-0.2816,-0.2571,-0.239,-0.265,-0.2903,-0.3267,-0.3892,-0.457,-0.516,-0.6018,-0.7229,-0.7842,-0.7556,-0.7119,-0.6647,-0.5479,-0.4415,-0.3334,-0.2203,-0.088,-0.0,0.0177,0.0266,0.0979,0.1557,0.2719,0.3932,0.4456,0.5014,0.5707,0.6319,0.6897,0.7769,0.8383,0.9036,0.9864,1.0205,1.0872,1.1126,1.1501,1.1777,1.229,1.2685,1.3032,1.3,1.3067,1.3298,1.3302,1.3076,1.2635,1.2676,1.2503,1.2512,1.2698,1.2791,1.2455,1.2276,1.2019,1.2213,1.272,1.3291,1.3869,1.4917,1.5748,1.6769,1.7324,1.7717,1.7921,1.8095,1.8189,1.8307,1.8528,1.886,2.0124,2.1769,2.3349,2.4794,2.6106,2.6151,2.5932,2.5659,2.5379,2.4829,2.4225,2.4392,2.466,2.5105,2.5335,2.5413,2.5255,2.5744,2.6103,2.6387,2.6437,2.6722,2.6509,2.6333,2.5828,2.5029,2.3594,2.2039,2.1538,2.0911,2.0401,1.996,2.0299,2.0766,2.1523,2.235,2.3298,-0.4616,-0.442,-0.4204,-0.3665,-0.2968,-0.2581,-0.2126,-0.1778,-0.2174,-0.2433,-0.2483,-0.3066,-0.3779,-0.4464,-0.4989,-0.5689,-0.6617,-0.6109,-0.5669,-0.5095,-0.3802,-0.2793,-0.1917,-0.0729,0.0708,0.1769,0.2297,0.2304,0.226,0.2876,0.3818,0.4709,0.5394,0.5888,0.6392,0.7321,0.8016,0.8867,0.9473,1.0089,1.0653,1.1469,1.2152,1.2276,1.2771,1.3324,1.3927,1.3994,1.4182,1.4279,1.4398,1.449,1.4548,1.443,1.4359,1.4296,1.37,1.342,1.3342,1.338,1.3246,1.332,1.3055,1.3452,1.4249,1.489,1.5402,1.6228,1.6923,1.7545,1.8124,1.8161,1.8055,1.8016,1.7989,1.7963,1.8189,1.8545,1.9114,2.0624,2.2145,2.3496,2.4785,2.5677,2.5473,2.5409,2.5139,2.4581,2.4076,2.4189,2.4519,2.5125,2.553,2.5861,2.6085,2.6562,2.6827,2.6981,2.6823,2.6772,2.63,2.5759,2.5152,2.4473,2.3059,2.1682,2.1392,2.11,2.0531,2.0273,2.0444,2.0846,2.1529,2.2374,2.3332,-0.4576,-0.4207,-0.3897,-0.34,-0.2807,-0.2318,-0.2031,-0.1834,-0.1822,-0.1951,-0.2022,-0.2426,-0.2794,-0.3285,-0.3937,-0.4719,-0.506,-0.4776,-0.4155,-0.3484,-0.2166,-0.0966,0.0118,0.1365,0.2415,0.3399,0.4097,0.4113,0.397,0.4353,0.4799,0.5556,0.6271,0.6932,0.7762,0.8342,0.9004,1.0118,1.0457,1.1208,1.2548,1.3658,1.4311,1.4671,1.4824,1.5018,1.5519,1.5509,1.5576,1.562,1.5322,1.5533,1.615,1.6221,1.6662,1.6416,1.5307,1.356,1.3855,1.4021,1.4165,1.4326,1.4172,1.4869,1.5838,1.6552,1.6948,1.7093,1.7833,1.8355,1.8703,1.85,1.8279,1.8095,1.7949,1.8029,1.8189,1.8464,1.9022,1.9435,2.0903,2.2195,2.3494,2.4332,2.5046,2.4985,2.4868,2.4375,2.405,2.4198,2.4801,2.5531,2.6048,2.6365,2.6911,2.7382,2.7403,2.7528,2.7137,2.673,2.584,2.5131,2.4557,2.3693,2.2362,2.1464,2.1114,2.0808,2.0522,2.0527,2.0613,2.0991,2.1519,2.2435,2.3396,-0.4643,-0.4461,-0.4202,-0.3614,-0.2796,-0.1914,-0.1467,-0.1278,-0.0923,-0.1019,-0.1441,-0.1672,-0.2075,-0.2618,-0.3183,-0.3649,-0.3946,-0.3526,-0.2724,-0.1819,-0.0655,0.0501,0.1696,0.295,0.4057,0.489,0.5567,0.615,0.6072,0.5956,0.6132,0.6862,0.7439,0.8156,0.9217,0.96,1.0605,1.1713,1.2632,1.345,1.4312,1.5093,1.5658,1.6061,1.6099,1.6381,1.6751,1.7188,1.7173,1.725,1.7251,1.7618,1.7805,1.7702,1.7715,1.7826,1.6781,1.5847,1.5694,1.5412,1.5302,1.5267,1.536,1.6008,1.7476,1.8124,1.8295,1.8321,1.8631,1.895,1.9107,1.8784,1.8592,1.8372,1.8098,1.8285,1.8484,1.862,1.8946,1.9266,1.975,2.122,2.2655,2.3743,2.4757,2.5283,2.5253,2.4998,2.459,2.4409,2.5208,2.6238,2.6653,2.6989,2.7623,2.8163,2.7867,2.778,2.7114,2.6498,2.5244,2.4441,2.3898,2.3312,2.2353,2.1554,2.0925,2.0681,2.0602,2.0649,2.0745,2.1195,2.172,2.2669,2.3803,-0.4414,-0.4179,-0.3888,-0.3189,-0.219,-0.0915,-0.0242,-0.0075,0.0139,-0.0019,-0.0483,-0.0815,-0.1389,-0.1993,-0.2216,-0.2364,-0.26,-0.2211,-0.133,-0.0267,0.0797,0.1873,0.3129,0.4376,0.5567,0.641,0.7036,0.7697,0.8165,0.8297,0.8263,0.847,0.9159,0.9861,1.0627,1.1397,1.2357,1.3565,1.4815,1.5668,1.6257,1.6683,1.7078,1.7276,1.7402,1.7499,1.8018,1.8452,1.8623,1.8806,1.8946,1.91,1.9257,1.8977,1.8856,1.8931,1.8349,1.8078,1.7542,1.6985,1.6566,1.6561,1.6896,1.7864,1.9523,1.973,1.9736,1.9997,2.0049,2.0026,1.9855,1.966,1.9435,1.9013,1.8423,1.8611,1.8812,1.9116,1.9473,1.9962,2.0401,2.0884,2.2179,2.3299,2.4324,2.5293,2.5554,2.5527,2.5218,2.4827,2.5634,2.6673,2.721,2.7505,2.7904,2.8347,2.8236,2.7757,2.7055,2.6269,2.502,2.4008,2.3295,2.2681,2.2215,2.1632,2.0996,2.0828,2.0719,2.0847,2.1053,2.1357,2.1961,2.3041,2.4469,-0.3624,-0.2782,-0.2209,-0.1483,-0.0573,0.1036,0.1774,0.1653,0.1151,0.0987,0.078,0.0261,-0.0335,-0.0862,-0.0843,-0.0826,-0.0924,-0.0362,0.0334,0.1206,0.2224,0.3486,0.4709,0.5891,0.7114,0.7967,0.8681,0.9347,0.9958,1.062,1.0466,1.0362,1.1105,1.198,1.2827,1.3533,1.4362,1.552,1.6738,1.7665,1.8275,1.8757,1.915,1.9262,1.9016,1.8935,1.9652,1.9778,1.9922,2.0117,2.0166,2.022,2.0481,2.0281,2.0214,2.0186,2.0175,1.9895,1.9423,1.8323,1.7839,1.8414,1.9164,1.9976,2.1394,2.1001,2.1129,2.1697,2.147,2.1645,2.15,2.1281,2.0635,2.0146,1.9577,1.9496,1.9686,1.9749,2.0154,2.0657,2.1219,2.1799,2.221,2.3441,2.4527,2.5547,2.5911,2.5904,2.5654,2.5448,2.6165,2.7028,2.7662,2.7979,2.8054,2.803,2.7622,2.6948,2.6193,2.5589,2.4807,2.3851,2.2882,2.2644,2.2248,2.1664,2.1094,2.0837,2.0759,2.1051,2.1411,2.1944,2.3194,2.4652,2.6029,-0.281,-0.2012,-0.0448,0.0266,0.041,0.2066,0.2518,0.2252,0.2431,0.2162,0.1697,0.1724,0.1415,0.088,0.085,0.0958,0.1074,0.1639,0.2322,0.3281,0.4419,0.5406,0.6475,0.7518,0.8706,0.9331,1.0233,1.1115,1.1638,1.2389,1.3369,1.3524,1.3385,1.3678,1.4481,1.5697,1.6656,1.7519,1.868,1.97,1.9624,2.0728,2.1157,2.0862,2.0495,2.0555,2.106,2.1123,2.1236,2.1413,2.1628,2.1737,2.1664,2.1569,2.1477,2.1384,2.139,2.128,2.1001,1.9838,1.9245,1.9639,2.0681,2.1822,2.2742,2.2121,2.1941,2.2238,2.2477,2.2547,2.2179,2.1904,2.1591,2.1253,2.0933,2.0616,2.0717,2.0895,2.0991,2.1598,2.2304,2.2964,2.3295,2.3689,2.4785,2.5782,2.6045,2.6282,2.6134,2.5816,2.6355,2.6753,2.7318,2.7473,2.749,2.7243,2.6935,2.6191,2.5398,2.4833,2.4283,2.3548,2.2728,2.2535,2.2409,2.2006,2.1495,2.0909,2.0882,2.1278,2.2007,2.2785,2.4328,2.6062,2.7258,-0.172,-0.0639,0.1145,0.1865,0.1955,0.3504,0.4029,0.3881,0.4468,0.4113,0.3138,0.357,0.3358,0.2811,0.2736,0.2754,0.2955,0.3541,0.4275,0.5195,0.6236,0.7213,0.8116,0.8993,0.9871,1.0645,1.1572,1.2505,1.3437,1.3957,1.4878,1.5607,1.588,1.5983,1.6409,1.7808,1.8933,1.9657,2.0685,2.1764,2.1631,2.2122,2.2776,2.2335,2.1957,2.1956,2.2401,2.2612,2.267,2.2825,2.2992,2.3098,2.295,2.2725,2.2548,2.2309,2.2168,2.2179,2.1925,2.1633,2.0667,2.0426,2.1824,2.2863,2.3427,2.3201,2.2883,2.3463,2.3333,2.3064,2.2956,2.2971,2.2747,2.2415,2.1732,2.1454,2.2081,2.2357,2.2352,2.2581,2.322,2.3814,2.4288,2.4499,2.4958,2.5765,2.5997,2.651,2.711,2.667,2.6128,2.6427,2.6651,2.6686,2.662,2.6279,2.5935,2.5546,2.4792,2.4188,2.3602,2.2997,2.2747,2.2686,2.2537,2.2375,2.2211,2.2028,2.1744,2.1574,2.254,2.3692,2.5054,2.667,2.7787,-0.0342,0.1474,0.249,0.3326,0.4105,0.5564,0.6518,0.6898,0.7071,0.659,0.5661,0.5459,0.5077,0.4713,0.4617,0.4543,0.4611,0.5357,0.6032,0.6604,0.7976,0.8885,0.9507,1.0253,1.1456,1.2803,1.3582,1.4273,1.5299,1.5885,1.6664,1.7498,1.811,1.8432,1.8444,1.9832,2.092,2.1592,2.2579,2.3423,2.3793,2.3606,2.3861,2.3742,2.3462,2.3423,2.3714,2.3887,2.3866,2.3876,2.3758,2.3724,2.3551,2.3392,2.3068,2.2568,2.2598,2.254,2.2451,2.2863,2.2265,2.1383,2.2859,2.402,2.482,2.4537,2.3951,2.4681,2.4671,2.4642,2.4547,2.4311,2.3918,2.3407,2.2727,2.2532,2.3113,2.3453,2.3371,2.3766,2.4127,2.4482,2.5013,2.5384,2.5447,2.5749,2.5994,2.6539,2.7208,2.7031,2.615,2.5817,2.5906,2.5701,2.555,2.5238,2.491,2.4613,2.4259,2.3726,2.3395,2.3112,2.2917,2.2849,2.2849,2.2798,2.3087,2.3348,2.3079,2.2883,2.3658,2.4749,2.6034,2.7287,2.8483,0.0542,0.2004,0.3981,0.5482,0.65,0.6952,0.7638,0.8353,0.844,0.8171,0.7624,0.7243,0.677,0.6426,0.6439,0.64,0.6374,0.7228,0.7852,0.8413,0.9802,1.0735,1.147,1.2438,1.3384,1.4452,1.5205,1.5853,1.6465,1.7463,1.8432,1.9315,2.037,2.0968,2.1002,2.1739,2.2575,2.3223,2.3949,2.4529,2.4678,2.4996,2.5139,2.5058,2.4876,2.4855,2.4954,2.4941,2.4752,2.4552,2.4379,2.4162,2.4094,2.3982,2.3861,2.3603,2.3651,2.3761,2.3897,2.4148,2.4045,2.3667,2.3847,2.504,2.5806,2.5579,2.5595,2.5677,2.5626,2.5454,2.5102,2.4994,2.4682,2.4281,2.3794,2.3671,2.3945,2.4059,2.4188,2.5056,2.5566,2.5715,2.6094,2.5681,2.5628,2.5426,2.5544,2.5603,2.6155,2.6243,2.578,2.5253,2.5052,2.4748,2.4503,2.4306,2.4139,2.3916,2.3697,2.343,2.3168,2.3102,2.3109,2.3042,2.3164,2.3307,2.3663,2.4007,2.4202,2.4426,2.505,2.5779,2.6928,2.8179,2.9408,0.1744,0.328,0.5092,0.6937,0.844,0.8657,0.919,0.9919,1.0014,0.9855,0.9593,0.9274,0.8828,0.8431,0.8337,0.8456,0.834,0.9151,1.0233,1.0787,1.1908,1.2853,1.3827,1.474,1.5413,1.6224,1.7188,1.8018,1.8303,1.9098,1.9962,2.103,2.2524,2.2957,2.3087,2.3471,2.3891,2.4447,2.5029,2.5715,2.5882,2.6051,2.618,2.6165,2.6059,2.5941,2.5832,2.5556,2.5269,2.5052,2.4846,2.4636,2.4611,2.4766,2.472,2.4642,2.4589,2.4599,2.4728,2.4942,2.4855,2.4909,2.5307,2.5795,2.6297,2.6125,2.6071,2.6137,2.6206,2.5937,2.5626,2.5546,2.5123,2.471,2.4508,2.4369,2.4533,2.4621,2.4967,2.5873,2.7026,2.7128,2.6735,2.6151,2.5655,2.5353,2.5078,2.5126,2.5122,2.5099,2.5144,2.4677,2.4217,2.3897,2.3671,2.3495,2.3347,2.321,2.3168,2.3126,2.3217,2.3175,2.3223,2.3295,2.3417,2.3656,2.4226,2.4584,2.4761,2.5367,2.6213,2.7006,2.7885,2.9004,3.0228,0.324,0.5177,0.5879,0.7692,0.9875,1.0551,1.1354,1.2155,1.1914,1.1835,1.1887,1.1383,1.0937,1.0666,1.0516,1.0521,1.0661,1.1207,1.2063,1.3194,1.3986,1.4919,1.5757,1.6623,1.7323,1.7893,1.8697,1.9613,2.0292,2.0661,2.13,2.2623,2.42,2.4759,2.495,2.5254,2.5461,2.5815,2.6134,2.6962,2.7504,2.7026,2.7143,2.7145,2.7075,2.6785,2.6559,2.6343,2.6122,2.5864,2.5548,2.5321,2.5362,2.5702,2.5464,2.5267,2.5163,2.5203,2.5169,2.5378,2.5663,2.5779,2.5957,2.6314,2.6521,2.659,2.6539,2.6505,2.6556,2.633,2.6082,2.5642,2.5201,2.495,2.4751,2.4833,2.5025,2.5315,2.5652,2.6581,2.8083,2.8285,2.7066,2.633,2.5538,2.5337,2.5015,2.4773,2.4647,2.402,2.4028,2.3858,2.3429,2.3059,2.291,2.3028,2.3077,2.3095,2.3028,2.3028,2.3126,2.3265,2.3319,2.3458,2.3624,2.4004,2.4569,2.5,2.5305,2.6056,2.6889,2.763,2.832,2.9721,3.0916,0.4395,0.6271,0.7983,0.9331,1.0448,1.2347,1.3219,1.324,1.3554,1.3691,1.3454,1.3474,1.2928,1.2437,1.278,1.2702,1.2775,1.3011,1.3473,1.4437,1.5636,1.6319,1.7103,1.7993,1.8921,1.975,2.0421,2.0938,2.187,2.2217,2.3716,2.5578,2.5835,2.6327,2.6916,2.7496,2.7384,2.7352,2.747,2.8152,2.8836,2.8526,2.8424,2.8168,2.839,2.8014,2.7603,2.7657,2.759,2.754,2.7199,2.7009,2.7034,2.7163,2.6969,2.6387,2.628,2.615,2.5772,2.5733,2.5937,2.6279,2.64,2.6691,2.6925,2.7006,2.6906,2.6873,2.6891,2.6725,2.64,2.5937,2.553,2.5262,2.5123,2.5155,2.5387,2.5775,2.6114,2.6862,2.8399,2.8023,2.6913,2.605,2.5347,2.5195,2.494,2.4635,2.4186,2.3556,2.3368,2.3257,2.2858,2.2596,2.2756,2.2902,2.297,2.302,2.2977,2.3003,2.3151,2.3295,2.3412,2.3649,2.3985,2.4409,2.4929,2.5264,2.547,2.6437,2.7288,2.8027,2.8892,3.0361,3.1632,0.553,0.7242,0.8745,1.0243,1.1901,1.3748,1.467,1.4907,1.4856,1.4616,1.435,1.4665,1.4441,1.377,1.4084,1.4311,1.4366,1.4912,1.557,1.6571,1.7207,1.8192,1.8965,1.9448,2.0153,2.1017,2.1619,2.1992,2.3171,2.4516,2.5983,2.6569,2.6946,2.7631,2.8146,2.8424,2.8905,2.8939,2.9025,2.9265,2.9593,2.9851,2.9437,2.9351,2.9679,2.9265,2.8785,2.8912,2.876,2.859,2.8168,2.7867,2.785,2.785,2.8143,2.7578,2.7164,2.6831,2.6405,2.6012,2.6256,2.6435,2.6607,2.6859,2.7072,2.7201,2.7135,2.7085,2.7149,2.7117,2.6708,2.6347,2.5974,2.5659,2.5535,2.5445,2.5783,2.6161,2.6614,2.7153,2.7342,2.7128,2.6487,2.5694,2.5253,2.5207,2.4799,2.4191,2.3719,2.3135,2.3128,2.3241,2.2688,2.2198,2.249,2.2773,2.2842,2.2919,2.2995,2.3045,2.3199,2.3389,2.3571,2.3966,2.4393,2.4829,2.5206,2.5333,2.5632,2.6698,2.7731,2.8489,2.9582,3.1127,3.2309,0.6666,0.8218,0.8838,1.1074,1.3818,1.4867,1.5839,1.6801,1.5772,1.5139,1.5127,1.5602,1.5629,1.5327,1.5547,1.5954,1.6262,1.68,1.7543,1.8974,1.9512,2.0163,2.0527,2.1319,2.1709,2.1839,2.2394,2.3502,2.4421,2.5875,2.7048,2.706,2.7711,2.8501,2.9211,2.9351,2.9833,3.0315,3.0247,3.0283,3.0542,3.0504,3.0259,3.0542,3.0491,3.0231,2.9765,2.94,2.9113,2.8908,2.8693,2.8458,2.8467,2.8493,2.8893,2.858,2.7998,2.7382,2.6829,2.6352,2.6272,2.6452,2.6623,2.6825,2.704,2.7282,2.7264,2.7293,2.7324,2.7198,2.6875,2.6521,2.6222,2.5954,2.5803,2.5697,2.5834,2.6182,2.6579,2.6965,2.6777,2.6564,2.6268,2.5513,2.5084,2.5182,2.4537,2.3745,2.3206,2.263,2.2497,2.2767,2.2403,2.1953,2.2326,2.2588,2.2685,2.279,2.2919,2.3095,2.3265,2.3504,2.3786,2.4155,2.4542,2.5032,2.5396,2.562,2.62,2.7283,2.8244,2.8981,3.022,3.1738,3.2903,0.754,0.8881,1.0813,1.2937,1.4871,1.5415,1.6089,1.6824,1.6719,1.6856,1.7095,1.7555,1.771,1.7411,1.7426,1.7848,1.846,1.8676,1.9185,2.001,2.0917,2.1511,2.1651,2.2638,2.318,2.3796,2.4441,2.5246,2.6484,2.7796,2.8884,2.936,2.9544,2.9719,3.0333,3.0439,3.0975,3.1336,3.1561,3.1479,3.162,3.1638,3.1585,3.1463,3.1237,3.1306,3.0977,3.0869,3.0839,3.0785,3.0454,3.0272,3.0232,3.0102,2.9862,2.9447,2.8716,2.7992,2.7292,2.673,2.6424,2.6417,2.6572,2.6775,2.6992,2.725,2.7376,2.7404,2.7386,2.723,2.7006,2.6691,2.645,2.6222,2.6026,2.5942,2.587,2.6147,2.6503,2.6445,2.6281,2.6081,2.5819,2.5494,2.5084,2.4421,2.3585,2.2865,2.2575,2.2093,2.1352,2.1498,2.1793,2.1702,2.2141,2.248,2.2632,2.279,2.2944,2.3144,2.3301,2.3141,2.3107,2.4026,2.4618,2.4995,2.5508,2.6239,2.6933,2.7787,2.8592,2.9264,3.0544,3.202,3.3214,0.881,1.0064,1.2113,1.3922,1.5419,1.6336,1.7153,1.7917,1.8875,1.9366,1.9253,1.8999,1.8866,1.9164,1.93,1.9703,2.031,2.0593,2.0797,2.1319,2.2264,2.2867,2.342,2.4033,2.4576,2.5279,2.6092,2.707,2.839,2.9278,3.0122,3.0537,3.0516,3.0726,3.1237,3.1673,3.1792,3.1823,3.2462,3.257,3.2456,3.2317,3.2178,3.1968,3.2002,3.2053,3.2037,3.1899,3.1754,3.1562,3.1111,3.0851,3.0721,3.068,3.0523,3.0139,2.9482,2.871,2.7923,2.7241,2.6626,2.6584,2.6487,2.664,2.6825,2.7023,2.7154,2.7233,2.7483,2.739,2.7038,2.6725,2.6606,2.6468,2.6206,2.6003,2.5686,2.5557,2.5727,2.5671,2.551,2.5284,2.5086,2.5014,2.463,2.4265,2.3305,2.2577,2.218,2.1628,2.0845,2.0494,2.1007,2.1642,2.2271,2.2525,2.2632,2.279,2.2902,2.29,2.286,2.2449,2.2443,2.2993,2.3733,2.4691,2.5309,2.6323,2.7071,2.7768,2.8644,2.9502,3.0906,3.2336,3.3616,1.0252,1.1663,1.3132,1.4663,1.612,1.749,1.8581,1.953,2.1152,2.1755,2.1357,2.0017,1.9845,2.0265,2.0783,2.1247,2.1839,2.2629,2.2775,2.3109,2.4203,2.4549,2.5015,2.5655,2.6222,2.6925,2.7738,2.8675,2.9761,3.0577,3.1029,3.0959,3.1133,3.1446,3.1847,3.1945,3.1898,3.2338,3.277,3.2884,3.2805,3.2674,3.2521,3.2472,3.2507,3.2573,3.2555,3.2386,3.2179,3.1821,3.1389,3.1117,3.0975,3.0935,3.0895,3.0576,3.0018,2.9359,2.8758,2.7773,2.7161,2.6733,2.6517,2.647,2.6641,2.6808,2.694,2.6835,2.7089,2.7276,2.6939,2.6708,2.6623,2.6555,2.6277,2.599,2.5551,2.5153,2.51,2.5116,2.4901,2.4667,2.457,2.4513,2.4282,2.3948,2.3437,2.274,2.2024,2.1353,2.0605,2.0428,2.0663,2.1399,2.2158,2.2371,2.2426,2.2517,2.2565,2.2529,2.2375,2.1965,2.1603,2.144,2.2299,2.414,2.5447,2.65,2.7191,2.7784,2.9242,3.0335,3.1232,3.2654,3.4074,1.1619,1.427,1.4517,1.6044,1.8216,1.8674,1.9469,2.0674,2.1278,2.1817,2.2249,2.2325,2.2184,2.2301,2.2689,2.305,2.3367,2.4398,2.4911,2.5169,2.5745,2.6051,2.6505,2.715,2.7985,2.8822,2.962,3.0481,3.108,3.1815,3.2207,3.2155,3.2106,3.2212,3.2282,3.236,3.257,3.2866,3.3024,3.3183,3.3042,3.2948,3.2902,3.287,3.2852,3.2852,3.2737,3.2488,3.2266,3.1948,3.1579,3.1312,3.1173,3.1112,3.1072,3.0914,3.037,2.9789,2.9097,2.8127,2.7411,2.6875,2.6628,2.6264,2.6437,2.6605,2.6352,2.5614,2.5912,2.6519,2.6404,2.6367,2.6293,2.633,2.6173,2.5901,2.553,2.5262,2.51,2.4918,2.4717,2.4554,2.4457,2.4317,2.4135,2.3766,2.3345,2.2668,2.2056,2.122,2.0414,2.0426,2.046,2.0958,2.1584,2.1957,2.2073,2.2169,2.2065,2.1719,2.1487,2.1393,2.1093,2.0622,2.2332,2.449,2.5664,2.6386,2.7276,2.8066,2.9965,3.1291,3.2008,3.2921,3.4259]},{"header":{"parameterUnit":"m.s-1","parameterCategory":1,"la1":31.0,"la2":29.5877,"lo1":-88.7671,"lo2":-86.6584,"dy":0.0162,"dx":0.0185,"nx":115,"ny":88,"refTime":"2026-03-20T12:00:00:Z","depth":0,"parameterNumber":3,"parameterNumberName":"V-component_of_WINDS"},"data":[0.0,0.0,0.0,0.0,0.0,0.0,0.0,0.0,0.0,0.0,0.0,0.0,0.0,0.0,0.0,0.0,0.0,0.0,0.0,0.0,0.0,0.0,0.0,0.0,0.0,0.0,0.0,0.0,0.0,0.0,0.0,0.0,0.0,0.0,0.0,0.0,0.0,0.0,0.0,0.0,0.0,0.0,0.0,0.0,0.0,0.0,0.0,0.0,0.0,0.0,0.0,0.0,0.0,0.0,0.0,0.0,0.0,0.0,0.0,0.0,0.0,0.0,0.0,0.0,0.0,0.0,0.0,0.0,0.0,0.0,0.0,0.0,0.0,0.0,0.0,0.0,0.0,0.0,0.0,0.0,0.0,0.0,0.0,0.0,0.0,0.0,0.0,0.0,0.0,0.0,0.0,0.0,0.0,0.0,0.0,0.0,0.0,0.0,0.0,0.0,0.0,0.0,0.0,0.0,0.0,0.0,0.0,0.0,0.0,0.0,0.0,0.0,0.0,0.0,0.0,0.0,0.0,0.0,0.0,0.0,0.0,0.0,0.0,0.0,0.0,0.0,0.0,0.0,0.0,0.0,0.0,0.0,0.0,0.0,0.0,0.0,0.0,0.0,0.0,0.0,0.0,0.0,0.0,0.0,0.0,0.0,0.0,0.0,0.0,0.0,0.0,0.0,0.0,0.0,0.0,0.0,0.0,0.0,0.0,0.0,0.0,0.0,0.0,0.0,0.0,0.0,0.0,0.0,0.0,0.0,0.0,0.0,0.0,0.0,0.0,0.0,0.0,0.0,0.0,0.0,0.0,0.0,0.0,0.0,0.0,0.0,0.0,0.0,0.0,0.0,0.0,0.0,0.0,0.0,0.0,0.0,0.0,0.0,0.0,0.0,0.0,0.0,0.0,0.0,0.0,0.0,0.0,0.0,0.0,0.0,0.0,0.0,0.0,0.0,0.0,0.0,0.0,0.0,0.0,0.0,0.0,0.0,0.0,0.0,0.0,0.0,0.0,0.0,0.0,0.0,0.0,0.0,0.0,0.0,0.0,0.0,0.0,0.0,0.0,0.0,0.0,0.0,0.0,0.0,0.0,0.0,0.0,0.0,0.0,0.0,0.0,0.0,0.0,0.0,0.0,0.0,0.0,0.0,0.0,0.0,0.0,0.0,0.0,0.0,0.0,0.0,0.0,0.0,0.0,0.0,0.0,0.0,0.0,0.0,0.0,0.0,0.0,0.0,0.0,0.0,0.0,0.0,0.0,0.0,0.0,0.0,0.0,0.0,0.0,0.0,0.0,0.0,0.0,0.0,0.0,0.0,0.0,0.0,0.0,0.0,0.0,0.0,0.0,0.0,0.0,0.0,0.0,0.0,0.0,0.0,0.0,0.0,0.0,0.0,0.0,0.0,0.0,0.0,0.0,0.0,0.0,0.0,0.0,0.0,0.0,0.0,0.0,0.0,0.0,0.0,0.0,0.0,0.0,0.0,0.0,0.0,0.0,0.0,0.0,0.0,0.0,0.0,0.0,0.0,0.0,0.0,0.0,0.0,0.0,0.0,0.0,0.0,0.0,0.0,0.0,0.0,0.0,0.0,0.0,0.0,0.0,0.0,0.0,0.0,0.0,0.0,0.0,0.0,0.0,0.0,0.0,0.0,0.0,0.0,0.0,0.0,0.0,0.0,0.0,0.0,0.0,0.0,0.0,0.0,0.0,0.0,0.0,0.0,0.0,0.0,0.0,0.0,0.0,0.0,0.0,0.0,0.0,0.0,0.0,0.0,0.0,0.0,0.0,0.0,0.0,0.0,0.0,0.0,0.0,0.0,0.0,0.0,0.0,0.0,0.0,0.0,0.0,0.0,0.0,0.0,0.0,0.0,0.0,0.0,0.0,0.0,0.0,0.0,0.0,0.0,0.0,0.0,0.0,0.0,0.0,0.0,0.0,0.0,0.0,0.0,0.0,0.0,0.0,0.0,0.0,0.0,0.0,0.0,0.0,0.0,0.0,0.0,0.0,0.0,0.0,0.0,0.0,0.0,0.0,0.0,0.0,0.0,0.0,0.0,0.0,0.0,0.0,0.0,0.0,0.0,0.0,0.0,0.0,0.0,0.0,0.0,0.0,0.0,0.0,0.0,0.0,0.0,0.0,0.0,0.0,0.0,0.0,0.0,0.0,0.0,0.0,0.0,0.0,0.0,0.0,0.0,0.0,0.0,0.0,0.0,0.0,0.0,0.0,0.0,0.0,0.0,0.0,0.0,0.0,0.0,0.0,0.0,0.0,0.0,0.0,0.0,0.0,0.0,0.0,0.0,0.0,0.0,0.0,0.0,0.0,0.0,0.0,0.0,0.0,0.0,0.0,0.0,0.0,0.0,0.0,0.0,0.0,0.0,0.0,0.0,0.0,0.0,0.0,0.0,0.0,0.0,0.0,0.0,0.0,0.0,0.0,0.0,0.0,0.0,0.0,0.0,0.0,0.0,0.0,0.0,0.0,0.0,0.0,0.0,0.0,0.0,0.0,0.0,0.0,0.0,0.0,0.0,0.0,0.0,0.0,0.0,0.0,0.0,0.0,0.0,0.0,0.0,0.0,0.0,0.0,0.0,0.0,0.0,0.0,0.0,0.0,0.0,0.0,0.0,0.0,0.0,0.0,0.0,0.0,0.0,0.0,0.0,0.0,0.0,0.0,0.0,0.0,0.0,0.0,0.0,0.0,0.0,0.0,0.0,0.0,0.0,0.0,0.0,0.0,0.0,0.0,0.0,0.0,0.0,0.0,0.0,0.0,0.0,0.0,0.0,0.0,0.0,0.0,0.0,0.0,0.0,0.0,0.0,0.0,0.0,0.0,0.0,0.0,0.0,0.0,0.0,0.0,0.0,0.0,0.0,0.0,0.0,0.0,0.0,0.0,0.0,0.0,0.0,0.0,0.0,0.0,0.0,0.0,0.0,0.0,0.0,0.0,0.0,0.0,0.0,0.0,0.0,0.0,0.0,0.0,0.0,0.0,0.0,0.0,0.0,0.0,0.0,0.0,0.0,0.0,0.0,0.0,0.0,0.0,0.0,0.0,0.0,0.0,0.0,0.0,0.0,0.0,0.0,0.0,0.0,0.0,0.0,0.0,0.0,0.0,0.0,0.0,0.0,0.0,0.0,0.0,0.0,0.0,0.0,0.0,0.0,0.0,0.0,0.0,0.0,0.0,0.0,0.0,0.0,0.0,0.0,0.0,0.0,0.0,0.0,0.0,0.0,0.0,0.0,0.0,0.0,0.0,0.0,0.0,0.0,0.0,0.0,0.0,0.0,0.0,0.0,0.0,0.0,0.0,0.0,0.0,0.0,0.0,0.0,0.0,0.0,0.0,0.0,0.0,0.0,0.0,0.0,0.0,0.0,0.0,0.0,0.0,0.0,0.0,0.0,0.0,0.0,0.0,0.0,0.0,0.0,0.0,0.0,0.0,0.0,0.0,0.0,0.0,0.0,0.0,0.0,0.0,0.0,0.0,0.0,0.0,0.0,0.0,0.0,0.0,0.0,0.0,0.0,0.0,0.0,0.0,0.0,0.0,0.0,0.0,0.0,0.0,0.0,0.0,0.0,0.0,0.0,0.0,0.0,0.0,0.0,0.0,0.0,0.0,0.0,0.0,0.0,0.0,0.0,0.0,0.0,0.0,0.0,0.0,0.0,0.0,0.0,0.0,0.0,0.0,0.0,0.0,0.0,0.0,0.0,0.0,0.0,0.0,0.0,0.0,0.0,0.0,0.0,0.0,0.0,0.0,0.0,0.0,0.0,0.0,0.0,0.0,0.0,0.0,0.0,0.0,0.0,0.0,0.0,0.0,0.0,0.0,0.0,0.0,0.0,0.0,0.0,0.0,0.0,0.0,0.0,0.0,0.0,0.0,0.0,0.0,0.0,0.0,0.0,0.0,0.0,0.0,0.0,0.0,0.0,0.0,0.0,0.0,0.0,0.0,0.0,0.0,0.0,0.0,0.0,0.0,0.0,0.0,0.0,0.0,0.0,0.0,0.0,0.0,0.0,0.0,0.0,0.0,0.0,0.0,0.0,0.0,0.0,0.0,0.0,0.0,0.0,0.0,0.0,0.0,0.0,0.0,0.0,0.0,0.0,0.0,0.0,0.0,0.0,0.0,0.0,0.0,0.0,0.0,0.0,0.0,0.0,0.0,0.0,0.0,0.0,0.0,0.0,0.0,0.0,0.0,0.0,0.0,0.0,0.0,0.0,0.0,0.0,0.0,0.0,0.0,0.0,0.0,0.0,0.0,0.0,-1.0087,0.0,0.0,0.0,0.0,0.0,0.0,0.0,0.0,0.0,0.0,0.0,0.0,0.0,0.0,0.0,0.0,0.0,0.0,0.0,0.0,0.0,0.0,0.0,0.0,0.0,0.0,0.0,0.0,0.0,0.0,0.0,0.0,0.0,0.0,0.0,0.0,0.0,0.0,0.0,0.0,0.0,0.0,0.0,0.0,0.0,0.0,0.0,0.0,0.0,0.0,0.0,0.0,0.0,0.0,0.0,0.0,0.0,0.0,0.0,0.0,0.0,0.0,0.0,0.0,0.0,0.0,0.0,0.0,0.0,0.0,0.0,0.0,0.0,0.0,0.0,0.0,0.0,0.0,0.0,0.0,0.0,0.0,0.0,0.0,0.0,0.0,0.0,0.0,0.0,0.0,0.0,0.0,0.0,0.0,0.0,0.0,0.0,0.0,0.0,0.0,0.0,0.0,0.0,0.0,0.0,0.0,0.0,0.0,0.0,0.0,-1.8154,-1.6189,-1.4081,-1.2036,-1.0066,0.0,0.0,0.0,0.0,0.0,0.0,0.0,0.0,0.0,0.0,0.0,0.0,0.0,0.0,0.0,0.0,0.0,0.0,0.0,0.0,0.0,0.0,0.0,0.0,0.0,0.0,0.0,0.0,0.0,0.0,0.0,0.0,0.0,0.0,0.0,0.0,0.0,0.0,0.0,0.0,0.0,0.0,0.0,0.0,0.0,0.0,0.0,0.0,0.0,0.0,0.0,0.0,0.0,0.0,0.0,0.0,0.0,0.0,0.0,0.0,0.0,0.0,0.0,0.0,0.0,0.0,0.0,0.0,0.0,0.0,0.0,0.0,0.0,0.0,0.0,0.0,0.0,0.0,0.0,0.0,0.0,0.0,0.0,0.0,0.0,0.0,0.0,0.0,0.0,0.0,0.0,0.0,0.0,0.0,0.0,0.0,0.0,0.0,0.0,0.0,0.0,0.0,0.0,0.0,0.0,0.0,0.0,0.0,0.0,0.0,0.0,0.0,-1.2196,-0.9989,-0.7821,0.0,0.0,0.0,0.0,0.0,0.0,0.0,0.0,0.0,0.0,0.0,0.0,0.0,0.0,0.0,0.0,0.0,0.0,0.0,0.0,0.0,0.0,0.0,0.0,0.0,0.0,0.0,0.0,0.0,0.0,0.0,0.0,0.0,0.0,0.0,0.0,0.0,0.0,0.0,0.0,0.0,0.0,0.0,0.0,0.0,0.0,0.0,0.0,0.0,0.0,0.0,0.0,0.0,0.0,0.0,0.0,0.0,0.0,0.0,0.0,0.0,0.0,0.0,0.0,0.0,0.0,0.0,0.0,0.0,0.0,0.0,0.0,0.0,0.0,0.0,0.0,0.0,0.0,0.0,0.0,0.0,0.0,0.0,0.0,0.0,0.0,0.0,0.0,0.0,0.0,0.0,0.0,0.0,0.0,0.0,0.0,0.0,0.0,0.0,0.0,0.0,0.0,0.0,0.0,0.0,0.0,0.0,0.0,0.0,0.0,-1.4929,-0.9065,-0.826,0.0,-0.2868,0.0,0.0,0.0,0.0,0.0,0.0,0.0,0.0,0.0,0.0,0.0,0.0,0.0,0.0,0.0,0.0,0.0,0.0,0.0,0.0,0.0,0.0,0.0,0.0,0.0,0.0,0.0,0.0,0.0,0.0,0.0,0.0,0.0,0.0,0.0,0.0,0.0,0.0,0.0,0.0,0.0,0.0,0.0,0.0,0.0,0.0,0.0,0.0,0.0,0.0,0.0,0.0,0.0,0.0,0.0,0.0,0.0,0.0,0.0,0.0,0.0,0.0,0.0,0.0,0.0,0.0,0.0,0.0,0.0,0.0,0.0,0.0,0.0,0.0,0.0,0.0,0.0,0.0,0.0,0.0,0.0,0.0,0.0,0.0,0.0,0.0,0.0,0.0,0.0,0.0,0.0,0.0,0.0,0.0,0.0,0.0,0.0,0.0,0.0,0.0,0.0,0.0,0.0,0.0,0.0,0.0,0.0,0.0,0.0,0.0,0.0,-0.8193,-0.5903,-0.3667,0.0,0.0,0.0,0.0,0.0,0.0,0.0,0.0,0.0,0.0,0.0,0.0,0.0,0.0,0.0,0.0,0.0,0.0,0.0,0.0,0.0,0.0,0.0,0.0,0.0,0.0,0.0,0.0,0.0,0.0,0.0,0.0,0.0,0.0,0.0,0.0,0.0,0.0,0.0,0.0,0.0,0.0,0.0,0.0,0.0,0.0,0.0,0.0,0.0,0.0,0.0,0.0,0.0,0.0,0.0,0.0,0.0,0.0,0.0,0.0,0.0,0.0,0.0,0.0,0.0,0.0,0.0,0.0,0.0,0.0,0.0,0.0,0.0,0.0,0.0,0.0,0.0,0.0,0.0,0.0,0.0,0.0,0.0,0.0,0.0,0.0,0.0,0.0,0.0,0.0,0.0,0.0,0.0,0.0,0.0,0.0,0.0,0.0,0.0,0.0,0.0,0.0,0.0,0.0,0.0,0.0,0.0,0.0,0.0,0.0,-0.9781,0.0,-0.5578,-0.3146,-0.1437,-0.0652,0.0,0.0,0.0,0.0,0.0,0.0,0.0,0.0,0.0,0.0,0.0,0.0,0.0,0.0,0.0,0.0,0.0,0.0,0.0,0.0,0.0,0.0,0.0,0.0,0.0,0.0,0.0,0.0,0.0,0.0,0.0,0.0,0.0,0.0,0.0,0.0,0.0,0.0,0.0,0.0,0.0,0.0,0.0,0.0,0.0,0.0,0.0,0.0,0.0,0.0,0.0,0.0,0.0,0.0,0.0,0.0,0.0,0.0,0.0,0.0,0.0,0.0,0.0,0.0,0.0,0.0,0.0,0.0,0.0,0.0,0.0,0.0,0.0,0.0,0.0,0.0,0.0,0.0,0.0,0.0,0.0,0.0,0.0,0.0,0.0,0.0,0.0,0.0,0.0,0.0,0.0,0.0,0.0,0.0,0.0,0.0,0.0,0.0,0.0,0.0,0.0,0.0,0.0,0.0,0.0,0.0,0.0,0.0,0.0,-0.6082,-0.4955,0.0487,0.0691,0.062,0.0,0.0,0.0,0.0,0.0,0.0,0.0,0.0,0.0,0.0,0.0,0.0,0.0,0.0,0.0,0.0,0.0,0.0,0.0,0.0,0.0,0.0,0.0,0.0,0.0,0.0,0.0,0.0,0.0,0.0,0.0,0.0,0.0,0.0,0.0,0.0,0.0,0.0,0.0,0.0,0.0,0.0,0.0,0.0,0.0,0.0,0.0,0.0,0.0,0.0,0.0,0.0,0.0,0.0,0.0,0.0,0.0,0.0,0.0,0.0,0.0,0.0,0.0,0.0,0.0,0.0,0.0,0.0,0.0,0.0,0.0,0.0,0.0,0.0,0.0,0.0,0.0,0.0,0.0,0.0,0.0,0.0,0.0,0.0,0.0,0.0,0.0,0.0,0.0,0.0,0.0,0.0,0.0,0.0,0.0,0.0,0.0,0.0,0.0,0.0,0.0,0.0,0.0,0.0,0.0,0.0,0.0,0.0,0.0,-0.5697,-0.4615,-0.1392,0.3974,0.1489,0.079,0.0,0.0,0.0,0.0,0.0,0.0,0.0,0.0,0.0,0.0,0.0,0.0,0.0,0.0,0.0,0.0,0.0,0.0,0.0,0.0,0.0,0.0,0.0,0.0,0.0,0.0,0.0,0.0,0.0,0.0,0.0,0.0,0.0,0.0,0.0,0.0,0.0,0.0,0.0,0.0,0.0,0.0,0.0,0.0,0.0,0.0,0.0,0.0,0.0,0.0,0.0,0.0,0.0,0.0,0.0,0.0,0.0,0.0,0.0,0.0,0.0,0.0,0.0,0.0,0.0,0.0,0.0,0.0,0.0,0.0,0.0,0.0,0.0,0.0,0.0,0.0,0.0,0.0,0.0,0.0,0.0,0.0,0.0,0.0,0.0,0.0,0.0,0.0,0.0,0.0,0.0,0.0,0.0,0.0,0.0,0.0,0.0,0.0,0.0,0.0,0.0,0.0,0.0,0.0,0.0,0.0,0.0,0.0,0.0,-0.3388,0.0,0.1994,0.0,0.1678,0.0182,0.0,0.0,0.0,0.0,0.0,0.0,0.0,0.0,0.0,0.0,0.0,0.0,0.0,0.0,0.0,0.0,0.0,0.0,0.0,0.0,0.0,0.0,0.0,0.0,0.0,0.0,0.0,0.0,0.0,0.0,0.0,0.0,0.0,0.0,0.0,0.0,0.0,0.0,0.0,0.0,0.0,0.0,0.0,0.0,0.0,0.0,0.0,0.0,0.0,0.0,0.0,0.0,0.0,0.0,0.0,0.0,0.0,0.0,0.0,0.0,0.0,0.0,0.0,0.0,0.0,0.0,0.0,0.0,0.0,0.0,0.0,0.0,0.0,0.0,0.0,0.0,0.0,0.0,0.0,0.0,0.0,0.0,0.0,0.0,0.0,0.0,0.0,0.0,0.0,0.0,0.0,0.0,0.0,0.0,0.0,0.0,0.0,0.0,0.0,0.0,0.0,0.0,0.0,0.0,0.0,0.0,0.0,0.0,-0.0455,0.4265,0.5147,0.4646,0.3113,0.1517,-0.1234,0.0,0.0,0.0,0.0,0.0,0.0,0.0,0.0,0.0,0.0,0.0,0.0,0.0,0.0,0.0,0.0,0.0,0.0,0.0,0.0,0.0,0.0,0.0,0.0,0.0,0.0,0.0,0.0,0.0,0.0,0.0,0.0,0.0,0.0,0.0,0.0,0.0,0.0,0.0,0.0,0.0,0.0,0.0,0.0,0.0,0.0,0.0,0.0,0.0,0.0,0.0,0.0,0.0,0.0,0.0,0.0,0.0,0.0,0.0,0.0,0.0,0.0,0.0,0.0,0.0,0.0,0.0,0.0,0.0,0.0,0.0,0.0,0.0,0.0,0.0,0.0,0.0,0.0,0.0,0.0,0.0,0.0,0.0,0.0,0.0,0.0,0.0,0.0,0.0,0.0,0.0,0.0,0.0,0.0,0.0,0.0,0.0,0.0,0.0,0.0,0.0,0.0,0.0,0.0,0.0,0.0,0.0,0.0,0.0,0.3633,0.3449,0.3822,0.4467,0.0563,-0.2063,0.0,0.0,0.0,0.0,0.0,0.0,0.0,0.0,0.0,0.0,0.0,0.0,0.0,0.0,0.0,0.0,0.0,0.0,0.0,0.0,0.0,0.0,0.0,0.0,0.0,0.0,0.0,0.0,0.0,0.0,0.0,0.0,0.0,0.0,0.0,0.0,0.0,0.0,0.0,0.0,0.0,0.0,0.0,0.0,0.0,0.0,0.0,0.0,0.0,0.0,0.0,0.0,0.0,0.0,0.0,0.0,0.0,0.0,0.0,0.0,0.0,0.0,0.0,0.0,0.0,0.0,0.0,0.0,0.0,0.0,0.0,0.0,0.0,0.0,0.0,0.0,0.0,0.0,0.0,0.0,0.0,0.0,0.0,0.0,0.0,0.0,0.0,0.0,0.0,0.0,0.0,0.0,0.0,0.0,0.0,0.0,0.0,0.0,0.0,0.0,0.0,0.0,0.0,0.0,0.0,0.0,0.0,0.0,0.0,0.7328,0.6297,0.5317,0.4299,0.1109,-0.245,-0.643,0.0,0.0,0.0,0.0,0.0,0.0,0.0,0.0,0.0,0.0,0.0,0.0,0.0,0.0,0.0,0.0,0.0,0.0,0.0,0.0,0.0,0.0,0.0,0.0,0.0,0.0,0.0,0.0,0.0,0.0,0.0,0.0,0.0,0.0,0.0,0.0,0.0,0.0,0.0,0.0,0.0,0.0,0.0,0.0,0.0,0.0,0.0,0.0,0.0,0.0,0.0,0.0,0.0,0.0,0.0,0.0,0.0,0.0,0.0,0.0,0.0,0.0,0.0,0.0,0.0,0.0,0.0,0.0,0.0,0.0,0.0,0.0,0.0,0.0,0.0,0.0,0.0,0.0,0.0,0.0,0.0,0.0,0.0,0.0,0.0,0.0,0.0,0.0,0.0,0.0,0.0,0.0,0.0,0.0,0.0,0.0,0.0,0.0,0.0,0.0,0.0,0.0,0.0,0.0,0.0,0.0,0.0,0.0,1.4148,1.2804,0.8994,0.2875,0.2602,-0.2543,0.0,0.0,0.0,0.0,0.0,0.0,0.0,0.0,0.0,0.0,0.0,0.0,0.0,0.0,0.0,0.0,0.0,0.0,0.0,0.0,0.0,0.0,0.0,0.0,0.0,0.0,0.0,0.0,0.0,0.0,0.0,0.0,0.0,0.0,0.0,0.0,0.0,0.0,0.0,0.0,0.0,0.0,0.0,0.0,0.0,0.0,0.0,0.0,0.0,0.0,0.0,0.0,0.0,0.0,0.0,0.0,0.0,0.0,0.0,0.0,0.0,0.0,0.0,0.0,0.0,0.0,0.0,0.0,0.0,0.0,0.0,0.0,0.0,0.0,0.0,0.0,0.0,0.0,0.0,0.0,0.0,0.0,0.0,0.0,0.0,0.0,0.0,0.0,0.0,0.0,0.0,0.0,0.0,0.0,0.0,0.0,0.0,0.0,0.0,0.0,0.0,0.0,0.0,0.0,0.0,0.0,0.0,0.0,0.0,1.6006,1.4732,1.146,0.6105,0.1095,-0.5115,0.0,0.0,0.0,0.0,0.0,0.0,0.0,0.0,0.0,0.0,0.0,0.0,0.0,0.0,0.0,0.0,0.0,0.0,0.0,0.0,0.0,0.0,0.0,0.0,0.0,0.0,0.0,0.0,0.0,0.0,0.0,0.0,0.0,0.0,0.0,0.0,0.0,0.0,0.0,0.0,0.0,0.0,0.0,0.0,0.0,0.0,0.0,0.0,0.0,0.0,0.0,0.0,0.0,0.0,0.0,0.0,0.0,0.0,0.0,0.0,0.0,0.0,0.0,0.0,0.0,0.0,0.0,0.0,0.0,0.0,0.0,0.0,0.0,0.0,0.0,0.0,0.0,0.0,0.0,0.0,0.0,0.0,0.0,0.0,0.0,0.0,0.0,0.0,0.0,0.0,0.0,0.0,0.0,0.0,0.0,0.0,0.0,0.0,0.0,0.0,0.0,0.0,0.0,0.0,0.0,0.0,0.0,0.0,1.6564,1.743,1.5996,1.293,0.8281,0.2287,-0.5065,0.0,0.0,0.0,0.0,0.0,0.0,0.0,0.0,0.0,0.0,0.0,0.0,0.0,0.0,0.0,0.0,0.0,0.0,0.0,0.0,0.0,0.0,0.0,0.0,0.0,0.0,0.0,0.0,0.0,0.0,0.0,0.0,0.0,0.0,0.0,0.0,0.0,0.0,0.0,0.0,0.0,0.0,0.0,0.0,0.0,0.0,0.0,0.0,0.0,0.0,0.0,0.0,0.0,0.0,0.0,0.0,0.0,0.0,0.0,0.0,0.0,0.0,0.0,0.0,0.0,0.0,0.0,0.0,0.0,0.0,0.0,0.0,0.0,0.0,0.0,0.0,0.0,0.0,0.0,0.0,0.0,0.0,0.0,0.0,0.0,0.0,0.0,0.0,0.0,0.0,0.0,0.0,0.0,0.0,0.0,0.0,0.0,0.0,0.0,0.0,0.0,0.0,0.0,0.0,0.0,0.0,0.0,0.0,1.7436,1.8354,1.6741,1.3907,0.9734,0.4811,-0.3512,0.0,0.0,0.0,0.0,0.0,0.0,0.0,0.0,0.0,0.0,0.0,0.0,0.0,0.0,0.0,0.0,0.0,0.0,0.0,0.0,0.0,0.0,0.0,0.0,0.0,0.0,0.0,0.0,0.0,0.0,0.0,0.0,0.0,0.0,0.0,0.0,0.0,0.0,0.0,0.0,0.0,0.0,0.0,0.0,0.0,0.0,0.0,0.0,0.0,0.0,0.0,0.0,0.0,0.0,0.0,0.0,0.0,0.0,0.0,0.0,0.0,0.0,0.0,0.0,0.0,0.0,0.0,0.0,0.0,0.0,0.0,0.0,0.0,0.0,0.0,0.0,0.0,0.0,0.0,0.0,0.0,0.0,0.0,0.0,0.0,0.0,0.0,0.0,0.0,0.0,0.0,0.0,0.0,0.0,0.0,0.0,0.0,0.0,0.0,0.0,0.0,0.0,0.0,0.0,0.0,0.0,0.0,0.0,1.877,1.8461,1.7547,1.5197,1.1353,0.549,-0.2732,0.0,0.0,0.0,0.0,0.0,0.0,0.0,0.0,0.0,0.0,0.0,0.0,0.0,0.0,0.0,0.0,0.0,0.0,0.0,0.0,0.0,0.0,0.0,0.0,0.0,0.0,0.0,0.0,0.0,0.0,0.0,0.0,0.0,0.0,0.0,0.0,0.0,0.0,0.0,0.0,0.0,0.0,0.0,0.0,0.0,0.0,0.0,0.0,0.4957,0.0,0.0,0.0,0.0,0.0,0.0,0.0,0.0,0.0,0.0,0.0,0.0,0.0,0.0,0.0,0.0,0.0,0.0,0.0,0.0,0.0,0.0,0.0,0.0,0.0,0.0,0.0,0.0,0.0,0.0,0.0,0.0,0.0,0.0,0.0,0.0,0.0,0.0,0.0,0.0,0.0,0.0,0.0,0.0,0.0,0.0,0.0,0.0,0.0,0.0,0.0,0.0,0.0,0.0,0.0,0.0,0.0,0.0,0.0,2.0197,2.0183,1.8572,1.6313,1.3182,0.5307,-0.3221,0.0,0.0,0.0,0.0,0.0,0.0,0.0,0.0,0.0,0.0,0.0,0.0,0.0,0.0,0.0,0.0,0.0,0.0,0.0,0.0,0.0,0.0,0.0,0.0,0.0,0.0,0.0,0.0,0.0,0.0,0.0,0.0,0.0,0.0,0.0,0.0,0.0,0.0,0.0,0.0,0.0,0.0,0.0,0.0,0.0,0.0,0.0,0.0,0.0,0.0,0.0,0.0,0.0,0.0,0.0,0.0,0.0,0.0,0.0,0.0,0.0,0.0,0.0,0.0,0.0,0.0,0.0,0.0,0.0,0.0,0.0,0.0,0.0,0.0,0.0,0.0,0.0,0.0,0.0,0.0,0.0,0.0,0.0,0.0,0.0,0.0,0.0,0.0,0.0,0.0,0.0,0.0,0.0,0.0,0.0,0.0,0.0,0.0,0.0,0.0,0.0,0.0,0.0,0.0,0.0,0.0,0.0,2.0688,2.1551,2.1998,1.9588,1.7205,1.4824,0.4752,-0.3974,-1.0886,0.0,0.0,0.0,0.0,0.0,0.0,0.0,0.0,0.0,0.0,0.0,0.0,0.0,0.0,0.0,0.0,0.0,0.0,0.0,0.0,0.0,0.0,0.0,0.0,0.0,0.0,0.0,0.0,0.0,0.0,0.0,0.0,0.0,0.0,0.0,0.0,0.0,0.0,-0.5407,-0.6376,0.0,0.0,0.0,0.0,0.0,0.0,0.0,0.0,0.2915,0.0,0.0,0.0,0.0,0.0,0.0,0.0,0.0,0.0,0.0,0.0,0.0,0.0,0.0,0.0,0.0,0.0,0.0,0.0,0.0,0.0,0.0,0.0,0.0,0.0,0.0,0.0,0.0,0.0,0.0,0.0,0.0,0.0,0.0,0.0,0.0,0.0,0.0,0.0,0.0,0.0,0.0,0.0,0.0,0.0,0.0,0.0,0.0,0.0,0.0,0.0,0.0,0.0,0.0,0.0,0.0,2.2694,2.2811,2.2478,2.1771,1.9986,1.7537,1.4295,0.4243,-0.3513,-0.8509,0.0,0.0,0.0,0.0,0.0,0.0,0.0,0.0,0.0,0.0,0.0,0.0,0.0,0.0,0.0,0.0,0.0,0.0,0.0,0.0,0.0,0.0,0.0,0.0,0.0,0.0,0.0,0.0,0.0,0.0,0.0,0.0,0.0,0.0,0.0,0.0,0.0,0.0,0.0,-0.5749,-0.7608,0.0,0.0,0.0,0.0,0.0,0.0,0.0,0.0,-0.1133,0.0,0.0,0.0,0.0,0.0,0.0,0.0,0.0,0.0,0.0,0.0,0.0,0.0,0.0,0.0,0.0,0.0,0.0,0.0,0.0,0.0,0.0,0.0,0.0,0.0,0.0,0.0,0.0,0.0,0.0,0.0,0.0,0.0,0.0,0.0,0.0,0.0,0.0,0.0,0.0,0.0,0.0,0.0,0.0,0.0,0.0,0.0,0.0,0.0,0.0,0.0,0.0,0.0,0.0,0.0,2.3395,2.4198,2.4058,2.3265,2.0723,1.8118,1.5335,0.3692,-0.4216,0.0,0.0,0.0,0.0,0.0,0.0,0.0,0.0,0.0,0.0,0.0,0.0,0.0,0.0,0.0,0.0,0.0,0.0,0.0,0.0,0.0,0.0,0.0,0.0,0.0,0.0,0.0,0.0,0.0,0.0,0.0,0.0,0.0,0.0,0.0,0.0,0.0,0.0,0.0,0.0,-0.4188,-0.5587,-0.9184,0.0,0.0,0.0,0.0,0.0,0.0,-0.0236,-0.2495,0.0,0.0,0.0,0.0,0.0,0.0,0.0,0.0,0.0,0.0,0.0,0.0,0.0,0.0,0.0,0.0,0.0,0.0,0.0,0.0,0.0,0.0,0.0,0.0,0.0,0.0,0.0,0.0,0.0,0.0,0.0,0.0,0.0,0.0,0.0,0.0,0.0,0.0,0.0,0.0,0.0,0.0,0.0,0.0,0.0,0.0,0.0,0.0,0.0,0.0,0.0,0.0,0.0,0.0,0.0,2.3508,2.4899,2.5184,2.4473,2.1328,1.8689,1.6542,0.3592,-0.4571,0.0,0.0,0.0,0.0,0.0,0.0,0.0,0.0,0.0,0.0,0.0,0.0,0.0,0.0,0.0,0.0,0.0,0.0,0.0,0.0,0.0,0.0,0.0,0.0,0.0,0.0,0.0,0.0,0.0,0.0,0.0,0.0,0.0,0.0,0.0,0.0,0.0,0.0,0.0,0.0,0.0,-0.2823,-0.4522,-0.5652,0.0,0.0,0.0,0.0,-0.2903,-0.2528,0.0,0.0,0.0,0.0,0.0,0.0,0.0,0.0,0.0,0.0,0.0,0.0,0.0,0.0,0.0,0.0,0.0,0.0,0.0,0.0,0.0,0.0,0.0,0.0,0.0,0.0,0.0,0.0,0.0,0.0,0.0,0.0,0.0,0.0,0.0,0.0,0.0,0.0,0.0,0.0,0.0,0.0,0.0,0.0,0.0,0.0,0.0,0.0,0.0,0.0,0.0,0.0,0.0,0.0,0.0,0.0,2.2602,2.4559,2.4955,2.3776,2.135,1.9115,1.7017,0.4623,-0.324,0.0,0.0,0.0,0.0,0.0,0.0,0.0,0.0,0.0,0.0,0.0,0.0,0.0,0.0,0.0,0.0,0.0,0.0,0.0,0.0,0.0,0.0,0.0,0.0,0.0,0.0,0.0,0.0,0.0,0.0,0.0,0.0,0.0,0.0,0.0,0.0,0.0,0.0,0.0,0.0,0.0,0.1018,0.049,-0.2682,-0.6275,0.0,0.0,-0.4099,-0.5114,-0.4169,0.0,0.0,0.0,0.0,0.0,0.0,0.0,0.0,0.0,0.0,0.0,0.0,0.0,0.0,0.0,0.0,0.0,0.0,0.0,0.0,0.0,0.0,0.0,0.0,0.0,0.0,0.0,0.0,0.0,0.0,0.0,0.0,0.0,0.0,0.0,0.0,0.0,0.0,0.0,0.0,0.0,0.0,0.0,0.0,0.0,0.0,0.0,0.0,0.0,0.0,0.0,0.0,0.0,0.0,0.0,1.9427,2.3192,2.4989,2.4974,2.3091,2.0699,1.8469,1.6491,0.3835,-0.3774,0.0,0.0,0.0,0.0,0.0,0.0,0.0,0.0,0.0,0.0,0.0,0.0,0.0,0.0,0.0,0.0,0.0,0.0,0.0,0.0,0.0,0.0,0.0,0.0,0.0,0.0,0.0,0.0,0.0,0.0,0.0,0.0,0.0,0.0,0.0,0.0,0.0,0.0,0.0,0.0,0.0,0.0,0.3629,0.042,0.0,0.0,0.0,-0.3962,-0.4819,0.0,0.0,0.0,0.0,0.0,0.0,0.0,0.0,0.0,0.0,0.0,0.0,0.0,0.0,0.0,0.0,0.0,0.0,0.0,0.0,0.0,0.0,0.0,0.0,0.0,0.0,0.0,0.0,0.0,0.0,0.0,0.0,0.0,0.0,0.0,0.0,0.0,0.0,0.0,0.0,0.0,0.0,0.0,0.0,0.0,0.0,0.0,0.0,0.0,0.0,0.0,0.0,0.0,0.0,0.0,0.0,0.0,2.3658,2.5408,2.5118,2.2729,2.0242,1.8133,1.6231,0.3487,0.0,0.0,0.0,0.0,0.0,0.0,0.0,0.0,0.0,0.0,0.0,0.0,0.0,0.0,0.0,0.0,0.0,0.0,0.0,0.0,0.0,0.0,0.0,0.0,0.0,0.0,0.0,0.0897,0.0,0.0,0.0,0.0,0.0,0.0,0.0,0.0,0.0,0.0,0.0,0.0,0.0,0.0,0.4773,0.5514,0.287,-0.0457,0.0,0.0,-0.3406,-0.4102,-0.5094,-0.693,0.0,0.0,0.0,0.0,0.0,0.0,0.0,0.0,0.0,0.0,0.0,0.0,0.0,0.0,0.0,0.0,0.0,0.0,0.0,0.0,0.0,0.0,0.0,0.0,0.0,0.0,0.0,0.0,0.0,0.0,0.0,0.0,0.0,0.0,0.0,0.0,0.0,0.0,0.0,0.0,0.0,0.0,0.0,0.0,0.0,0.0,0.0,0.0,0.0,0.0,0.0,0.0,0.0,0.0,0.0,2.3403,2.5435,2.5283,2.2901,2.039,1.8668,1.7574,0.4471,-0.3432,0.0,0.0,0.0,0.0,0.0,0.0,0.0,0.0,0.0,0.0,0.0,0.0,0.0,0.0,0.0,0.0,0.0,0.0,0.0,0.0,0.0,0.0,0.0,0.0,0.0,0.0,0.0,0.0,0.0,0.0,0.0,0.0,0.0,0.0,0.0,0.0,0.0,0.0,0.0,0.0,0.0,0.545,0.584,0.4113,0.1572,0.0,0.0,-0.2622,-0.3598,-0.4085,-0.5785,-0.9934,0.0,0.0,0.0,0.0,0.0,0.0,0.0,0.0,0.0,0.0,0.0,0.0,0.0,0.0,0.0,0.0,0.0,0.0,0.0,0.0,0.0,0.0,0.0,0.0,0.0,0.0,0.0,0.0,0.0,0.0,0.0,0.0,0.0,0.0,0.0,0.0,0.0,0.0,0.0,0.0,0.0,0.0,0.0,0.0,0.0,0.0,0.0,0.0,0.0,0.0,0.0,0.0,0.0,2.0253,2.1676,2.4419,2.4373,2.1384,1.9381,1.7669,1.6197,0.4013,-0.3358,0.0,0.0,0.0,0.0,0.0,0.0,0.0,0.0,0.0,0.0,0.0,0.0,0.0,0.0,0.0,0.0,0.0,0.0,0.0,0.0,0.0,0.0,0.0,0.0,0.0,0.0,0.0,0.0,-0.229,-0.3461,-0.6249,0.0,0.0,0.0,0.0,0.0,0.0,0.0,0.0,0.0,0.0,0.6553,0.6294,0.5396,0.0,0.0,-0.1991,-0.2625,-0.2426,-0.4281,-0.6474,-0.8602,-0.9236,0.0,0.0,0.0,0.0,0.0,0.0,0.0,0.0,0.0,0.0,0.0,0.0,0.0,0.0,0.0,0.0,0.0,0.0,0.0,0.0,0.0,0.0,0.0,0.0,0.0,0.0,0.0,0.0,0.0,0.0,0.0,0.0,0.0,0.0,0.0,0.0,0.0,0.0,0.0,0.0,0.0,0.0,0.0,0.0,0.0,0.0,0.0,0.0,0.0,0.0,0.0,0.0,1.9708,2.1307,2.3724,2.3581,2.0726,1.8866,1.6893,1.4559,0.3544,-0.3036,0.0,0.0,0.0,0.0,0.0,0.0,0.0,0.0,0.0,0.0,0.0,0.0,0.0,0.0,0.0,0.0,0.0,0.0,0.0,0.0,0.0,0.0,0.0,0.0,0.0,0.0,0.0,0.0,-0.2715,-0.3947,-0.6913,0.0,0.0,0.0,0.0,0.0,0.0,0.0,0.0,0.0,0.0,0.7028,0.6504,0.6015,0.4229,0.0112,-0.2359,-0.3612,-0.3274,-0.5212,-0.6999,-0.7693,0.0,0.0,0.0,0.0,0.0,0.0,0.0,0.0,0.0,0.0,0.0,0.0,0.0,0.0,0.0,0.0,0.0,0.0,0.0,0.0,0.0,0.0,0.0,0.0,0.0,0.0,0.0,0.2485,0.0,0.0,-0.553,0.0,0.0,0.0,0.0,0.0,0.0,0.0,0.0,0.0,0.0,0.0,0.0,0.0,0.0,0.0,0.0,0.0,0.0,0.0,0.0,0.0,0.0,1.9605,2.285,2.356,2.3176,2.1455,1.9149,1.6597,1.3764,0.3297,-0.233,-0.2218,0.0,0.0,0.0,0.0,0.0,0.0,0.0,0.0,0.0,0.0,0.0,0.0,0.0,0.0,0.0,0.0,0.0,0.0,0.0,0.0,0.0,0.0,0.0,0.0,0.0,0.0,-0.2341,-0.3662,-0.5427,0.0,0.0,0.0,0.0,0.0,0.0,0.0,0.0,0.0,0.0,0.6864,0.669,0.6311,0.5835,0.4015,-0.0067,-0.3375,-0.5752,-0.6672,-0.6859,-0.7056,0.0,0.0,0.0,0.0,0.0,0.0,0.0,0.0,0.0,0.0,0.0,0.0,0.0,0.0,0.0,0.0,0.0,0.0,0.0,0.0,0.0,0.0,0.0,0.0,0.0,0.0,0.0,0.2496,0.1174,0.0,0.0,0.0,0.0,0.0,0.0,0.0,0.0,0.0,0.0,0.0,0.8165,0.4724,0.0,0.0,0.0,0.0,0.0,0.0,0.0,0.0,0.0,0.0,0.0,0.0,1.7443,1.9758,2.1614,2.0834,1.7401,1.7031,1.4452,0.9371,0.2175,-0.5326,-1.3106,0.0,0.0,0.0,0.0,0.0,0.0,0.0,0.0,0.0,0.0,0.0,0.0,0.0,0.0,0.0,0.0,0.0,0.0,0.0,0.0,0.0,0.0,0.0,0.0,0.0,-0.3406,0.0,0.0,0.0,0.0,0.0,0.0,0.0,0.0,0.0,0.0,0.0,0.3689,0.5507,0.6375,0.6311,0.4783,0.4763,0.366,0.0,0.0,0.0,0.0,0.0,0.0,0.0,0.0,0.0,0.0,0.0,0.0,0.0,0.0,-0.1953,-0.1509,-0.1307,-0.0923,-0.0049,0.0,0.0,0.0,0.0,0.0,0.0,0.0,0.0,0.0,0.0,0.0,0.0,0.0,0.0,0.1994,0.0,-0.0677,0.0,0.0,0.0,0.0,0.0,0.0,0.0,0.0,1.2718,1.3756,1.1324,0.7536,0.1857,0.0,-1.0579,-1.5576,0.0,0.0,0.0,0.0,0.0,0.0,0.0,0.0,1.3831,1.7204,1.947,1.8798,1.5399,1.5761,1.3585,0.8327,0.0471,-0.8335,-1.8088,-1.8753,-1.8529,0.0,0.0,0.0,0.0,0.0,0.0,0.0,0.0,0.0,0.0,0.0,0.0,0.0,0.0,0.0,0.0,0.0,0.0,0.0,0.0,0.0,0.0,0.0,-0.3882,0.0,0.0,0.0,0.0,0.0,0.0,0.0,0.0,0.0,-0.1179,0.1409,0.3547,0.4627,0.504,0.4599,0.2865,0.0,0.0,0.0,0.0,0.0,0.0,0.0,-0.7603,-0.6695,-0.6202,-0.556,-0.4493,-0.3959,-0.3324,-0.2297,0.0,0.0,-0.167,-0.158,-0.124,-0.0425,0.0381,0.1202,0.2154,0.3149,0.4025,0.0,0.0,0.0,0.0,0.0,0.0,0.0,0.0,0.0394,0.1094,0.0,-0.1202,0.0,0.0,0.0,0.0,0.0,0.4819,0.0,0.0,1.4465,1.5188,1.3585,0.8737,0.3114,-0.2972,-0.8122,-1.3868,-1.998,-2.1394,0.0,0.0,0.0,0.0,0.0,0.0,0.9124,1.5238,1.7203,1.71,1.4958,1.5128,1.3637,0.9979,-0.1977,-1.1174,-1.6578,-1.6503,-1.6063,-1.5783,-1.7069,0.0,0.0,0.0,0.0,0.0,0.0,0.0,0.0,0.0,0.0,0.0,0.0,0.0,0.0,0.0,0.0,0.0,0.0,0.0,0.0,-0.3312,0.0,0.0,0.0,0.0,0.0,0.0,0.0,0.0,0.0,0.0,-0.1022,0.1245,0.3053,0.3708,0.0,0.0,0.0,0.0,0.0945,-0.1342,-0.4675,-0.7694,-0.9805,-0.9427,-0.8559,-0.7708,0.0,0.0,-0.306,-0.2554,-0.2599,-0.3177,-0.221,-0.1355,-0.1209,-0.1255,-0.1029,-0.0221,0.0611,0.1639,0.2723,0.3273,0.3974,-0.9108,0.0,0.0,0.0,0.0,-0.2589,-0.1074,-0.0247,0.2043,0.1875,-0.0103,-0.1563,0.0,0.0,0.0,0.0,0.0,0.0,0.8074,1.1508,1.2996,1.3297,1.2565,0.8479,0.3112,-0.3262,-0.8201,-1.3649,-1.9391,-2.1677,-2.2219,-2.1247,0.0,0.0,0.0,0.0,0.8144,1.2003,1.368,1.2478,0.8479,1.0104,0.7711,0.0892,-0.7401,-1.3127,-1.5892,-1.573,-1.5782,-1.6257,-1.7388,0.0,0.0,0.0,0.0,0.0,0.0,0.0,0.0,0.0,0.0,0.0,0.0,0.0,0.0,0.0,0.0,0.0,0.0,0.0,-0.2114,-0.2678,-0.3564,0.0,0.0,0.0,0.0,0.0,0.0,0.0,0.0,0.0,-0.0115,0.0383,0.0215,0.0,0.0,-0.1569,-0.1855,-0.124,-0.1334,-0.3073,-0.5334,0.0,0.0,-0.8664,-0.8254,-0.7377,-0.4947,-0.265,-0.1389,-0.0917,-0.0894,-0.1447,-0.1476,-0.1284,-0.0935,-0.1015,-0.0979,-0.0624,-0.0334,0.0428,0.2084,0.3219,0.4162,-0.9701,-0.9575,-0.8164,-0.7022,-0.5824,-0.2604,-0.1166,-0.0863,0.227,0.274,0.1236,-0.0457,-0.2745,-0.5371,-0.635,0.0,0.0,0.0,0.8415,1.1488,1.2401,1.2595,1.1892,0.9116,0.4144,-0.2571,-0.6776,-1.1939,-1.7936,-2.0445,-2.1318,-2.0636,0.0,0.0,-1.1204,-0.2428,0.4128,0.8122,0.9258,0.8174,0.4951,0.5542,0.2494,-0.4503,-0.8123,-1.1268,-1.4084,-1.4088,-1.4283,-1.4862,-1.6152,-1.7148,0.0,0.0,0.0,0.0,0.0,0.0,0.0,0.0,0.0,0.0,0.0,-0.7605,0.0,0.0,0.0,0.0,-0.4083,-0.3222,-0.1964,-0.24,0.0,0.0,0.0,0.0,0.0,0.0,0.0,-0.0215,-0.1122,-0.1365,0.0079,-0.058,-0.1625,-0.2729,-0.3145,-0.3523,-0.4061,0.0,-0.2797,-0.4131,-0.5376,-0.6691,-0.7993,-0.8,-0.7446,-0.622,-0.4131,-0.1987,-0.0513,-0.0113,0.0092,0.0431,0.1084,0.1384,0.0588,0.034,-0.0014,-0.0519,-0.0206,0.0625,0.1857,0.3349,0.4719,-1.0594,-1.0183,-0.8514,-0.7451,-0.6502,-0.3196,-0.1619,-0.1164,0.1648,0.3576,0.4452,0.1472,-0.0644,-0.2,-0.2388,0.0,0.397,0.7048,0.9502,1.1513,1.2546,1.2611,1.1792,1.016,0.5752,-0.1089,-0.4403,-0.9211,-1.5278,-1.8121,-1.9154,-1.8673,-1.9886,-1.6767,-0.9542,-0.5922,-0.1489,0.3955,0.4387,0.403,0.3014,0.1019,-0.2359,-0.706,-0.6117,-0.7639,-1.1898,-1.2068,-1.2109,-1.2367,-1.3994,-1.5443,-1.6523,0.0,0.0,0.0,0.0,0.0,0.0,0.0,0.0,0.0,0.0,0.0,0.0,0.0,0.0,0.0,-0.2675,0.0,-0.2354,-0.2477,0.0,0.0,0.0,-0.566,-0.7362,-0.3159,-0.0109,-0.0018,0.0,0.0,-0.0575,-0.1768,-0.2803,-0.3024,-0.3703,-0.4663,-0.5958,-0.4578,-0.3746,-0.4754,-0.5161,-0.5989,-0.7589,-0.7407,-0.647,-0.4941,-0.3792,-0.2451,-0.0478,0.0267,0.0795,0.1964,0.4341,0.5446,0.3101,0.3104,0.2477,0.0829,0.1175,0.1908,0.2315,0.3977,0.5522,-1.0386,-1.0208,-0.9254,-0.8086,-0.6616,-0.3603,-0.1567,-0.0163,0.2435,0.3327,0.2847,0.1676,0.0104,-0.16,0.0323,0.2259,0.4251,0.7358,0.9746,1.1406,1.1962,1.1943,1.1431,0.9629,0.6478,0.208,-0.3308,-0.7623,-1.1005,-1.5732,-1.7737,-1.7065,-1.6778,-1.4657,-1.0731,-0.6445,-0.279,0.0187,0.0415,-0.0581,-0.2846,-0.6231,-0.8432,-0.9247,-1.0249,-1.1273,-1.2353,-1.1702,-1.1423,-1.1687,-1.3503,-1.4846,-1.5538,-1.6893,0.0,0.0,0.0,0.0,0.0,0.0,0.0,0.0,0.0,-0.7553,-0.178,0.0,-0.2373,0.0,-0.234,-0.1974,-0.2229,-0.2983,0.0,0.0,-0.4496,-0.4746,-0.4479,-0.2677,-0.1068,-0.0095,-0.1343,-0.2766,-0.4033,-0.3895,-0.4282,-0.5848,-0.5856,-0.6094,-0.7156,-0.6569,-0.5799,-0.5581,-0.5737,-0.6145,-0.6804,-0.6715,-0.6186,-0.5182,-0.3794,-0.2346,-0.0899,0.0847,0.2142,0.256,0.3403,0.4858,0.6917,0.8537,0.8513,0.6567,0.4793,0.384,0.4704,0.5819,0.6553,-1.0223,-1.0045,-0.9564,-0.858,-0.7092,-0.4481,-0.2684,-0.1384,0.1593,0.2442,0.1619,0.1313,0.0443,-0.0604,0.1666,0.3508,0.5086,0.8115,1.0222,1.1474,1.24,1.2615,1.2211,1.1022,0.8396,0.4472,0.1836,-0.1996,-0.7049,-1.3255,-1.5541,-1.4051,-1.4937,-1.4293,-1.2084,-0.8522,-0.5862,-0.4214,-0.4222,-0.5818,-0.8971,-1.0621,-1.1707,-1.2344,-1.2849,-1.3183,-1.3267,-1.2874,-1.2505,-1.2226,-1.3735,-1.4381,-1.3915,-1.503,-1.5354,0.0,0.0,0.0,0.0,0.0,0.0,0.0,0.0,0.0,0.0,0.0,-0.2671,-0.3711,-0.2139,-0.149,-0.2591,-0.3433,-0.3916,-0.3898,-0.4178,-0.4295,-0.4118,-0.3195,-0.2134,-0.1074,-0.2424,-0.3955,-0.5225,-0.5251,-0.5986,-0.8251,-0.7911,-0.7655,-0.8074,-0.7497,-0.6815,-0.6781,-0.6441,-0.6129,-0.6223,-0.6149,-0.5716,-0.4674,-0.3639,-0.2409,-0.0853,0.1074,0.2565,0.3143,0.3949,0.5334,0.8023,1.0201,1.0878,0.9229,0.7897,0.7261,0.7333,0.7696,0.7884,-0.9957,-0.9679,-0.9495,-0.8805,-0.7699,-0.5689,-0.4393,-0.347,-0.0228,0.0999,0.0664,0.0771,0.07,0.0567,0.2377,0.4204,0.607,0.9023,1.0831,1.1706,1.3263,1.3767,1.3351,1.3005,1.063,0.6647,0.7635,0.4141,-0.366,-1.0603,-1.2957,-1.1228,-1.4039,-1.4787,-1.3328,-1.1529,-0.997,-0.8643,-0.8936,-1.0824,-1.4322,-1.3241,-1.3488,-1.5208,-1.4454,-1.4095,-1.438,-1.4487,-1.4157,-1.3344,-1.4271,-1.4051,-1.2316,-1.2842,-1.2395,0.0,-0.946,0.0,0.0,0.0,0.0,0.0,0.0,0.0,0.0,-0.2656,-0.3569,-0.4382,-0.1792,-0.0871,-0.2855,-0.3642,-0.4037,-0.396,-0.3987,-0.4248,-0.4844,-0.4148,-0.3285,-0.2488,-0.3748,-0.4832,-0.5343,-0.6023,-0.7376,-0.9305,-0.9266,-0.8923,-0.9029,-0.8218,-0.7684,-0.8047,-0.6956,-0.6014,-0.5687,-0.5575,-0.5128,-0.3883,-0.3235,-0.2382,-0.051,0.1145,0.2561,0.3761,0.4964,0.6367,0.7885,1.0264,1.1494,1.0492,1.0562,1.047,0.9483,0.9266,0.917,-0.9167,-0.9033,-0.8578,-0.8319,-0.8113,-0.7329,-0.5916,-0.4072,-0.2688,-0.1339,-0.0048,0.0715,0.1295,0.1867,0.3539,0.5124,0.668,0.9554,1.1387,1.2353,1.3409,1.3805,1.3603,1.3011,1.1641,0.9518,0.675,0.2926,-0.1795,-0.7346,-1.0667,-1.1828,-1.4332,-1.4885,-1.3698,0.0,0.0,0.0,-1.2447,-1.3532,-1.5028,-1.4964,-1.5126,-1.56,-1.5178,0.0,-1.5279,-1.4623,-1.4141,-1.4016,-1.4415,0.0,0.0,0.0,0.0,0.0,0.0,0.0,0.0,0.0,0.0,0.0,-0.2214,-0.2318,-0.1774,-0.1856,-0.1677,-0.1039,-0.0614,-0.0731,-0.1528,-0.2957,-0.3944,-0.4217,-0.4645,-0.4917,-0.487,-0.4725,-0.4513,-0.4115,-0.4079,-0.452,-0.5618,-0.611,-0.6941,-0.8535,-0.8886,-0.9213,-0.9755,-0.9796,-0.9371,-0.7983,-0.668,-0.5779,-0.5198,-0.5055,-0.4595,-0.3467,-0.2668,-0.1763,-0.0367,0.1129,0.2709,0.4071,0.5427,0.7131,0.9798,1.281,1.4445,1.3523,1.2932,1.2007,1.0186,1.0165,1.0178,-0.8959,0.0,-0.8506,-0.8246,0.0,-0.7957,-0.7315,-0.6127,-0.4565,-0.3087,-0.1717,-0.148,-0.0741,0.0406,0.2042,0.3881,0.5976,0.9115,1.1156,1.2323,1.3843,1.4734,1.5057,1.4175,1.3296,1.2297,0.7922,0.425,0.1136,-0.4321,-0.8095,-1.0194,-1.2722,-1.4048,-1.427,-1.6375,-1.6516,-1.4598,-1.4652,-1.5209,-1.6237,-1.6225,-1.6553,-1.73,0.0,0.0,0.0,0.0,0.0,0.0,0.0,0.0,0.0,0.0,0.0,-0.6403,-0.5415,-0.4658,-0.4047,-0.32,-0.2529,-0.2185,-0.208,-0.1985,-0.1813,-0.2034,-0.1801,-0.0882,-0.0803,-0.1106,-0.188,-0.2954,-0.3765,-0.4171,-0.4609,-0.4837,-0.4762,-0.5022,-0.5092,-0.4856,-0.5168,-0.5659,-0.5905,-0.6871,-0.7821,-0.8782,-0.9476,-0.9953,-1.0106,-0.9994,-0.9189,-0.7311,-0.638,-0.5597,-0.5019,-0.4638,-0.4093,-0.3057,-0.2295,-0.1442,-0.0274,0.1148,0.2619,0.3978,0.5137,0.7038,1.0867,1.3987,1.571,1.4922,1.4371,1.3576,1.1951,1.1307,1.0628,-0.8762,-0.8334,-0.8461,-0.8096,-0.7528,-0.8049,-0.8277,-0.8138,0.0,0.0,0.0,-0.4087,-0.3407,-0.1982,-0.0614,0.1342,0.3819,0.6861,0.9214,1.101,1.2934,1.4612,1.5936,1.5085,1.4546,1.4119,0.9731,0.6208,0.3497,-0.2086,-0.6108,-0.8574,-1.1384,-1.365,-1.5386,-1.7034,-1.7514,-1.6782,-1.6291,-1.6499,-1.7403,-1.7117,-1.7683,-1.9178,-1.9404,-1.9547,-1.9735,-1.9823,-1.9195,-1.7723,-1.6456,-1.3971,-1.0005,-0.8328,-0.6338,-0.3857,-0.3127,-0.2754,-0.2567,-0.2651,-0.2898,-0.3272,-0.3075,-0.2718,-0.2221,-0.242,-0.2374,-0.1886,-0.1497,-0.1623,-0.2535,-0.3059,-0.3548,-0.4046,-0.4547,-0.4845,-0.487,-0.5295,-0.5552,-0.5397,-0.6242,-0.6837,-0.6307,-0.7642,-0.895,-0.9573,-1.0232,-1.0607,-1.0146,-0.9355,-0.8253,-0.6543,-0.5823,-0.5356,-0.471,-0.4236,-0.3568,-0.2507,-0.1862,-0.1183,-0.0082,0.1253,0.2573,0.3738,0.4871,0.7534,1.1308,1.4362,1.591,1.5439,1.5205,1.4887,1.3867,1.2473,1.1099,-0.8165,-0.795,-0.7576,-0.7429,-0.7439,-0.768,-0.8098,-0.853,-0.7538,-0.6843,-0.6338,-0.5585,-0.4894,-0.4217,-0.3704,-0.262,-0.1064,0.04,0.315,0.6839,0.805,1.0573,1.4093,1.4071,1.3913,1.353,1.0929,0.7243,0.2628,-0.2015,-0.5961,-0.9473,-1.2939,-1.5651,-1.745,-1.7505,-1.752,-1.7769,-1.7765,-1.7812,-1.799,-1.7385,-1.8028,-1.9889,-1.9371,-1.9657,-2.0956,-2.024,-1.9582,-1.9009,-1.7429,-1.5003,-1.1654,-0.9889,-0.7612,-0.4509,-0.4149,-0.3822,-0.316,-0.3404,-0.3991,-0.4807,-0.5417,-0.5015,-0.3336,-0.231,-0.2043,-0.2672,-0.221,-0.1974,-0.2264,-0.283,-0.3425,-0.4081,-0.5074,-0.5699,-0.5694,-0.6003,-0.6236,-0.6343,-0.6647,-0.6904,-0.6931,-0.8172,-0.9303,-0.9765,-1.0234,-1.0398,-0.9477,-0.8425,-0.7258,-0.593,-0.5356,-0.4768,-0.407,-0.3612,-0.3078,-0.1914,-0.1333,-0.0742,0.0092,0.1453,0.2705,0.3559,0.562,0.8357,1.1249,1.4327,1.5751,1.5761,1.5416,1.4981,1.4522,1.3206,1.1773,-0.8037,-0.7686,-0.7561,-0.7411,-0.7286,-0.7894,-0.8424,-0.8889,-0.8725,-0.8483,-0.8195,-0.7896,-0.7505,-0.7023,-0.6638,-0.5692,-0.4241,-0.2759,-0.0669,0.1854,0.3407,0.5657,0.8226,0.8277,0.8402,0.8595,0.6252,0.3039,-0.0741,-0.3778,-0.7068,-1.0662,-1.3976,-1.623,-1.7417,-1.8075,-1.8516,-1.8787,-1.8642,-1.832,-1.792,-1.8589,-1.9151,-1.9573,-2.042,-2.0763,-2.0487,-2.0253,-1.9658,-1.8653,-1.7349,-1.5089,-1.1778,-0.9525,-0.7271,-0.5035,-0.4708,-0.4632,-0.4612,-0.549,-0.5898,-0.5636,-0.5995,-0.5829,-0.4751,-0.3813,-0.3177,-0.2979,-0.2661,-0.2437,-0.2398,-0.2988,-0.3634,-0.4205,-0.5061,-0.5784,-0.6307,-0.6552,-0.6666,-0.6686,-0.721,-0.7495,-0.7306,-0.8625,-0.9563,-0.9658,-0.9885,-0.9765,-0.9375,-0.8028,-0.6684,-0.5636,-0.5449,-0.5015,-0.4066,-0.3767,-0.3199,-0.2012,-0.124,-0.054,0.0147,0.1261,0.2107,0.2978,0.5077,0.7834,1.0746,1.3017,1.4365,1.4993,1.4807,1.4424,1.3913,1.2811,1.1639,-0.7976,-0.7519,-0.7588,-0.7508,-0.7396,-0.8164,-0.8739,-0.9167,-0.9405,-0.9488,-0.9464,-0.9681,-0.9703,-0.953,-0.9192,-0.8524,-0.7528,-0.6131,-0.4624,-0.3027,-0.1392,0.053,0.25,0.2525,0.2921,0.3375,0.1222,-0.1321,-0.3853,-0.5952,-0.8849,-1.2434,-1.5117,-1.6761,-1.751,-1.8815,-1.964,-1.9861,-1.9737,-1.9268,-1.8501,-1.9422,-1.9747,-1.9717,-2.1078,-2.129,-1.99,-1.9858,-1.9246,-1.7851,-1.667,-1.4671,-1.1782,-0.9163,-0.7112,-0.5884,-0.5441,-0.5592,-0.6304,-0.7327,-0.7628,-0.6875,-0.6686,-0.652,-0.6145,-0.5454,-0.4461,-0.3288,-0.2921,-0.2769,-0.2636,-0.3188,-0.3845,-0.4296,-0.4853,-0.5663,-0.6687,-0.6929,-0.695,-0.6849,-0.7582,-0.8058,-0.8006,-0.8883,-0.9711,-0.977,-0.9494,-0.9429,-0.9317,-0.798,-0.6696,-0.5716,-0.5555,-0.5243,-0.4363,-0.4031,-0.3414,-0.2208,-0.1382,-0.0714,-0.005,0.0626,0.1325,0.2256,0.3829,0.6246,0.942,1.1388,1.2563,1.3452,1.3889,1.3864,1.3402,1.2497,1.1423,-0.7722,-0.7474,-0.727,-0.7508,-0.8008,-0.8367,-0.8807,-0.9258,-0.9323,-0.9502,-0.9749,-0.9956,-1.0495,-1.1102,-1.1038,-1.1272,-1.1834,-1.1558,-0.9921,-0.758,-0.673,-0.4545,-0.1429,-0.0654,0.0109,0.0284,-0.1531,-0.3668,-0.5643,-0.8319,-1.1563,-1.5148,-1.6864,-1.8101,-1.9175,-1.9825,-2.0424,-2.1068,-2.1646,-2.1534,-2.0559,-1.8923,-1.9024,-2.1132,-2.0264,-1.982,-1.973,-1.8845,-1.7956,-1.7121,-1.5335,-1.3678,-1.2264,-1.0006,-0.8196,-0.7153,-0.6861,-0.7069,-0.789,-0.8112,-0.8589,-0.9265,-0.8489,-0.7846,-0.7475,-0.6541,-0.5264,-0.3861,-0.3103,-0.2815,-0.2565,-0.3203,-0.377,-0.4066,-0.4651,-0.5482,-0.6723,-0.7043,-0.7069,-0.7303,-0.7739,-0.7877,-0.7986,-0.8929,-0.9836,-1.0128,-0.9832,-0.9453,-0.9167,-0.8371,-0.7192,-0.5843,-0.5332,-0.509,-0.4496,-0.4088,-0.3459,-0.2293,-0.1562,-0.1062,-0.0472,0.0255,0.1126,0.1515,0.2528,0.4486,0.6437,0.8692,1.0879,1.1921,1.2777,1.3704,1.3465,1.2691,1.1741,-0.7433,-0.7134,-0.6947,-0.7316,-0.8061,-0.8618,-0.8991,-0.9239,-0.9484,-0.9682,-0.9894,-1.0502,-1.1292,-1.2093,-1.1964,-1.2861,-1.4504,-1.4139,-1.3479,-1.2581,-1.2055,-1.0556,-0.8489,-0.7982,-0.7647,-0.7491,-0.8551,-0.9855,-1.1517,-1.3535,-1.5337,-1.6651,-1.7792,-1.8919,-1.9989,-2.0684,-2.1487,-2.2438,-2.3051,-2.3151,-2.2589,-2.1045,-2.003,-1.9838,-1.9939,-1.9726,-1.9039,-1.746,-1.6569,-1.6618,-1.528,-1.4073,-1.3204,-1.1666,-1.043,-0.964,-0.9417,-0.9634,-1.0343,-1.0167,-1.0152,-1.0504,-0.9697,-0.8905,-0.8174,-0.7267,-0.617,-0.4945,-0.4106,-0.3478,-0.3059,-0.3676,-0.4177,-0.4268,-0.4762,-0.5565,-0.6579,-0.7199,-0.7536,-0.752,-0.7978,-0.8269,-0.8287,-0.8998,-0.962,-0.9789,-0.9524,-0.9186,-0.8778,-0.799,-0.7031,-0.61,-0.5748,-0.5418,-0.4807,-0.446,-0.3778,-0.2828,-0.2211,-0.1751,-0.1089,-0.0585,0.0052,0.0767,0.153,0.2394,0.349,0.5533,0.761,0.9293,1.0938,1.1875,1.2104,1.1912,1.1405,-0.7188,-0.6944,-0.6827,-0.7239,-0.795,-0.8404,-0.8835,-0.9151,-0.9368,-0.9576,-0.9937,-1.0822,-1.1686,-1.2407,-1.2579,-1.3801,-1.5503,-1.516,-1.5262,-1.5798,-1.5247,-1.4554,-1.3922,-1.3874,-1.3927,-1.4114,-1.4582,-1.5618,-1.6974,-1.8114,-1.8648,-1.8643,-1.9322,-2.0241,-2.1215,-2.1893,-2.266,-2.3695,-2.4157,-2.4204,-2.3803,-2.2628,-2.1162,-1.9722,-1.9984,-1.9777,-1.8739,-1.7236,-1.6413,-1.6535,-1.5518,-1.4694,-1.4153,-1.3017,-1.2066,-1.1541,-1.1369,-1.162,-1.2343,-1.2123,-1.1915,-1.1757,-1.11,-1.0066,-0.8889,-0.8088,-0.7136,-0.5882,-0.5462,-0.4913,-0.3806,-0.4156,-0.4523,-0.4578,-0.5161,-0.5858,-0.6569,-0.7327,-0.7611,-0.7664,-0.8172,-0.8588,-0.8588,-0.8978,-0.9361,-0.9329,-0.9043,-0.879,-0.8444,-0.7681,-0.682,-0.6282,-0.6114,-0.5815,-0.5238,-0.4835,-0.4171,-0.3403,-0.2839,-0.2393,-0.1788,-0.1471,-0.1133,-0.0428,0.0105,0.0303,0.0536,0.212,0.4367,0.6624,0.8423,0.9888,1.1134,1.0978,1.0656,-0.6955,-0.7002,-0.7065,-0.7301,-0.7709,-0.7636,-0.8153,-0.908,-0.8741,-0.9078,-1.0003,-1.0756,-1.1471,-1.2253,-1.3021,-1.4045,-1.5016,-1.4641,-1.5068,-1.6079,-1.5314,-1.535,-1.6249,-1.6399,-1.6628,-1.6913,-1.7729,-1.8826,-2.0,-2.0689,-2.1199,-2.1463,-2.1689,-2.2402,-2.3107,-2.33,-2.3945,-2.4626,-2.4737,-2.4486,-2.3765,-2.2775,-2.1956,-2.129,-2.0474,-1.9599,-1.8908,-1.8885,-1.8225,-1.6749,-1.5879,-1.5312,-1.5112,-1.3705,-1.2717,-1.2345,-1.2182,-1.2553,-1.3454,-1.3554,-1.3561,-1.3615,-1.2843,-1.1581,-0.9772,-0.9186,-0.8215,-0.6386,-0.7055,-0.6727,-0.51,-0.4824,-0.4913,-0.5265,-0.5846,-0.6436,-0.6923,-0.7134,-0.7394,-0.7833,-0.8244,-0.8601,-0.8832,-0.8891,-0.9063,-0.904,-0.8687,-0.8429,-0.8451,-0.7729,-0.6928,-0.6445,-0.6228,-0.6109,-0.5814,-0.5261,-0.456,-0.3956,-0.3458,-0.3074,-0.2681,-0.2341,-0.2068,-0.1616,-0.1035,-0.1136,-0.2063,-0.1115,0.1296,0.3667,0.6002,0.7724,0.9632,0.9628,0.9389,-0.6848,-0.6591,-0.6907,-0.7256,-0.7607,-0.8072,-0.8586,-0.9052,-0.9228,-0.9538,-1.0094,-1.1165,-1.1819,-1.2076,-1.3128,-1.4329,-1.5396,-1.4635,-1.4977,-1.6155,-1.5884,-1.597,-1.6391,-1.6877,-1.7693,-1.8632,-1.9351,-2.0465,-2.1904,-2.2194,-2.2318,-2.2332,-2.217,-2.2597,-2.3455,-2.37,-2.3945,-2.4273,-2.4378,-2.4049,-2.3211,-2.2307,-2.1743,-2.1515,-2.0525,-1.9665,-1.9001,-1.9065,-1.8617,-1.7584,-1.7155,-1.6973,-1.6895,-1.6297,-1.5754,-1.5386,-1.4815,-1.4568,-1.4723,-1.4553,-1.4192,-1.3769,-1.363,-1.2847,-1.1409,-1.0511,-0.9463,-0.8229,-0.8045,-0.7775,-0.7065,-0.6379,-0.6085,-0.6169,-0.6476,-0.6892,-0.7291,-0.7357,-0.7558,-0.8217,-0.8585,-0.8806,-0.9021,-0.9234,-0.9229,-0.912,-0.9011,-0.872,-0.8232,-0.7574,-0.6982,-0.6766,-0.6445,-0.6173,-0.6119,-0.5555,-0.5003,-0.4677,-0.4346,-0.4187,-0.3907,-0.3968,-0.3747,-0.2938,-0.2247,-0.2866,-0.3918,-0.2995,-0.0827,0.0822,0.3135,0.5311,0.7897,0.7549,0.7659,-0.6591,-0.6361,-0.6718,-0.6976,-0.7243,-0.7932,-0.8404,-0.868,-0.9147,-0.9661,-1.0357,-1.1469,-1.1983,-1.2127,-1.3085,-1.402,-1.4846,-1.4399,-1.489,-1.6092,-1.6113,-1.6254,-1.6691,-1.7434,-1.8371,-1.9535,-2.101,-2.2359,-2.3321,-2.3549,-2.356,-2.3419,-2.298,-2.3171,-2.3966,-2.4157,-2.4139,-2.4055,-2.4122,-2.3789,-2.2917,-2.209,-2.1632,-2.1454,-2.066,-1.9959,-1.9521,-1.9537,-1.9191,-1.8526,-1.8341,-1.8177,-1.7883,-1.7973,-1.7792,-1.7229,-1.6574,-1.6079,-1.5775,-1.5653,-1.5262,-1.4417,-1.4333,-1.3856,-1.2497,-1.1541,-1.0478,-0.9529,-0.9231,-0.9076,-0.8611,-0.8047,-0.7508,-0.7171,-0.7218,-0.7487,-0.7841,-0.7871,-0.8136,-0.8598,-0.88,-0.8937,-0.9105,-0.9192,-0.918,-0.9021,-0.8981,-0.8576,-0.7956,-0.7361,-0.6982,-0.682,-0.6495,-0.6282,-0.6228,-0.5837,-0.5504,-0.523,-0.5146,-0.5083,-0.5294,-0.5349,-0.5144,-0.4313,-0.44,-0.5123,-0.5107,-0.4365,-0.3192,-0.178,-0.0052,0.1981,0.3862,0.5309,0.5686,-0.6191,-0.6337,-0.651,-0.6624,-0.6742,-0.7181,-0.7486,-0.8075,-0.8416,-0.9426,-1.0663,-1.1489,-1.1883,-1.222,-1.2969,-1.3298,-1.3381,-1.391,-1.479,-1.5829,-1.5828,-1.6237,-1.705,-1.8068,-1.892,-1.9674,-2.2945,-2.4421,-2.4309,-2.4631,-2.4739,-2.4653,-2.4155,-2.4036,-2.4766,-2.4586,-2.4473,-2.3987,-2.385,-2.3636,-2.3073,-2.2088,-2.1647,-2.1603,-2.0865,-2.041,-2.0337,-2.039,-2.0013,-1.9321,-1.9204,-1.8727,-1.8165,-1.8622,-1.845,-1.7615,-1.7218,-1.694,-1.6581,-1.6939,-1.6676,-1.583,-1.5452,-1.4576,-1.3258,-1.2174,-1.1312,-1.0652,-1.042,-1.0342,-0.9828,-0.9332,-0.8691,-0.8023,-0.7977,-0.8146,-0.8358,-0.8633,-0.886,-0.9008,-0.9021,-0.8807,-0.8835,-0.8964,-0.9,-0.8845,-0.8577,-0.8164,-0.7766,-0.7228,-0.6737,-0.6391,-0.6337,-0.6386,-0.6282,-0.6178,-0.5955,-0.5804,-0.5828,-0.5836,-0.6318,-0.6477,-0.6377,-0.5791,-0.6812,-0.7505,-0.8018,-0.7238,-0.607,-0.4662,-0.2978,-0.1346,0.0407,0.2137,0.3679,-0.5922,-0.6388,-0.6341,-0.6668,-0.72,-0.7656,-0.8134,-0.8615,-0.8974,-0.9768,-1.0721,-1.1341,-1.1786,-1.2216,-1.2895,-1.3073,-1.2909,-1.3714,-1.462,-1.5354,-1.5542,-1.6271,-1.7437,-1.795,-1.9002,-2.0766,-2.2946,-2.4248,-2.4547,-2.4654,-2.4704,-2.4626,-2.38,-2.3471,-2.3665,-2.335,-2.2871,-2.2288,-2.2323,-2.2041,-2.1362,-2.106,-2.0898,-2.0872,-2.0644,-2.0464,-2.0424,-2.0467,-2.034,-2.0011,-2.0017,-1.9819,-1.9643,-2.0572,-2.0505,-1.9145,-1.8851,-1.8421,-1.7687,-1.7534,-1.7294,-1.6585,-1.5957,-1.5198,-1.4202,-1.2884,-1.2052,-1.1671,-1.1309,-1.0828,-1.0473,-0.9878,-0.9173,-0.8431,-0.8276,-0.837,-0.8673,-0.9126,-0.9512,-0.9609,-0.9506,-0.9384,-0.9215,-0.9215,-0.9151,-0.8965,-0.865,-0.8316,-0.7852,-0.7165,-0.6657,-0.6277,-0.6386,-0.6495,-0.6495,-0.6505,-0.6405,-0.6509,-0.6646,-0.6847,-0.7306,-0.7779,-0.76,-0.7853,-0.8869,-0.9719,-1.0223,-0.9731,-0.8409,-0.7445,-0.5918,-0.4174,-0.2434,-0.0604,0.1282,-0.5874,-0.6359,-0.6111,-0.6485,-0.727,-0.7737,-0.8182,-0.8645,-0.9216,-0.9879,-1.0532,-1.1194,-1.1541,-1.1908,-1.2795,-1.2941,-1.2622,-1.3534,-1.4501,-1.5257,-1.5594,-1.6506,-1.7877,-1.8508,-1.9558,-2.1397,-2.3222,-2.4096,-2.4126,-2.4173,-2.4177,-2.3946,-2.307,-2.2669,-2.2775,-2.2558,-2.2089,-2.1463,-2.1234,-2.0923,-2.05,-2.017,-2.0155,-2.0435,-2.0488,-2.0452,-2.0388,-2.0404,-2.038,-2.0421,-2.0598,-2.057,-2.026,-2.14,-2.1582,-2.0169,-1.9819,-1.9467,-1.8306,-1.8097,-1.7772,-1.7045,-1.6422,-1.5807,-1.5069,-1.3755,-1.3031,-1.2574,-1.2233,-1.177,-1.1354,-1.0545,-0.9759,-0.8947,-0.8614,-0.8693,-0.9141,-0.9733,-0.9918,-0.992,-0.9818,-0.9685,-0.96,-0.9536,-0.9424,-0.9046,-0.878,-0.8393,-0.7808,-0.7099,-0.6629,-0.6223,-0.6114,-0.6327,-0.6756,-0.6825,-0.6851,-0.717,-0.7522,-0.7902,-0.8317,-0.9058,-0.9312,-0.9602,-1.0434,-1.1572,-1.2115,-1.1147,-1.0031,-0.9236,-0.8292,-0.6327,-0.4276,-0.2325,-0.0397,-0.5954,-0.613,-0.5882,-0.6241,-0.692,-0.7428,-0.7906,-0.8303,-0.9029,-0.9698,-1.029,-1.1038,-1.1286,-1.1493,-1.2629,-1.2856,-1.2459,-1.3347,-1.4404,-1.5223,-1.5837,-1.6777,-1.8068,-1.9353,-2.048,-2.1645,-2.3464,-2.3954,-2.3378,-2.3462,-2.3391,-2.2977,-2.2378,-2.2032,-2.2136,-2.2312,-2.1914,-2.1301,-2.0693,-2.0414,-2.0371,-1.9765,-1.9692,-2.0429,-2.0392,-2.0366,-2.0373,-2.0248,-2.0219,-2.0357,-2.1007,-2.1091,-2.0582,-2.1616,-2.1884,-2.0281,-2.0555,-2.003,-1.8898,-1.8799,-1.8646,-1.7719,-1.7024,-1.6555,-1.5973,-1.4944,-1.4031,-1.3633,-1.3332,-1.297,-1.2303,-1.1468,-1.0498,-0.9573,-0.9091,-0.923,-1.0026,-1.0334,-1.0265,-1.0039,-0.9904,-0.9786,-0.9779,-0.9798,-0.9548,-0.9013,-0.8686,-0.8264,-0.7567,-0.6971,-0.6484,-0.6114,-0.5673,-0.6,-0.6317,-0.6598,-0.6732,-0.7649,-0.8184,-0.8773,-0.9542,-1.0387,-1.1146,-1.1489,-1.2106,-1.3212,-1.3499,-1.26,-1.1764,-1.0952,-0.9588,-0.7851,-0.6007,-0.3965,-0.1855,-0.5907,-0.5875,-0.6365,-0.6786,-0.719,-0.7856,-0.8392,-0.8768,-0.9138,-0.9614,-1.019,-1.086,-1.1134,-1.1227,-1.2269,-1.2547,-1.2494,-1.3315,-1.4232,-1.5028,-1.5737,-1.6741,-1.8089,-1.9668,-2.0749,-2.147,-2.257,-2.2998,-2.2935,-2.2685,-2.2496,-2.2413,-2.1777,-2.1434,-2.1393,-2.1124,-2.0855,-2.0701,-2.0525,-2.0385,-2.0408,-2.0141,-2.0104,-2.0283,-2.0199,-2.0153,-2.0238,-2.0069,-2.0031,-2.0252,-2.1493,-2.1795,-2.118,-2.2841,-2.3182,-2.1749,-2.1977,-2.2031,-2.0857,-2.0083,-1.9686,-1.9486,-1.7784,-1.7013,-1.7494,-1.5684,-1.5114,-1.5105,-1.4596,-1.3605,-1.3162,-1.2332,-1.1368,-1.0472,-0.9823,-0.9684,-1.0246,-1.0432,-1.0409,-1.0242,-1.012,-1.0141,-1.0059,-1.0098,-0.9876,-0.9174,-0.8752,-0.8317,-0.751,-0.693,-0.649,-0.5449,-0.5014,-0.5504,-0.5887,-0.6164,-0.682,-0.7961,-0.879,-0.9622,-1.0701,-1.1931,-1.2618,-1.3195,-1.415,-1.5219,-1.4929,-1.4306,-1.3482,-1.256,-1.1185,-0.9529,-0.7551,-0.5525,-0.3229,-0.6064,-0.6061,-0.6498,-0.7041,-0.7615,-0.7983,-0.8443,-0.8968,-0.9188,-0.9334,-0.9738,-1.0629,-1.0863,-1.0749,-1.1977,-1.2413,-1.2293,-1.3361,-1.4314,-1.5145,-1.6133,-1.7166,-1.8405,-2.0058,-2.1062,-2.1161,-2.2129,-2.2539,-2.2434,-2.1996,-2.1811,-2.1696,-2.1187,-2.0869,-2.0771,-2.0561,-2.0383,-2.0328,-2.0136,-2.0028,-2.0331,-1.9959,-1.9935,-2.0033,-2.0001,-1.9998,-2.0,-1.9881,-2.0002,-2.0636,-2.1692,-2.2173,-2.184,-2.3506,-2.3827,-2.2197,-2.2691,-2.2664,-2.1716,-2.0753,-2.0082,-1.9645,-1.8209,-1.7748,-1.7373,-1.5963,-1.5392,-1.5941,-1.5201,-1.4669,-1.4193,-1.3299,-1.2403,-1.1672,-1.0992,-1.0685,-1.0845,-1.1018,-1.1161,-1.1145,-1.1115,-1.1012,-1.0787,-1.0863,-1.0276,-0.9506,-0.9096,-0.8274,-0.7375,-0.6885,-0.6372,-0.5445,-0.4959,-0.5399,-0.5778,-0.6105,-0.7058,-0.8199,-0.985,-1.0616,-1.1873,-1.3277,-1.4019,-1.4816,-1.6006,-1.6607,-1.6025,-1.5496,-1.4856,-1.3783,-1.2583,-1.097,-0.8909,-0.6722,-0.4412,-0.6263,-0.6298,-0.6391,-0.6972,-0.7677,-0.7764,-0.8159,-0.8808,-0.9116,-0.9073,-0.9182,-1.0366,-1.0638,-1.0088,-1.1758,-1.2375,-1.2223,-1.3464,-1.4584,-1.5606,-1.6707,-1.7729,-1.8469,-2.0218,-2.0947,-2.0965,-2.2173,-2.2296,-2.1929,-2.1392,-2.1154,-2.1079,-2.0607,-2.0376,-2.0419,-2.0433,-2.0447,-2.025,-1.9829,-1.9744,-1.9954,-1.96,-1.9486,-1.9781,-1.9869,-1.98,-1.9801,-1.9911,-2.0335,-2.1033,-2.1894,-2.2215,-2.2324,-2.3729,-2.3719,-2.2745,-2.283,-2.2795,-2.1916,-2.1149,-2.0099,-1.9349,-1.8868,-1.8208,-1.7291,-1.6232,-1.5801,-1.6253,-1.6031,-1.5609,-1.5162,-1.4236,-1.3622,-1.3097,-1.2614,-1.2041,-1.1757,-1.1952,-1.2234,-1.2307,-1.2397,-1.2303,-1.2035,-1.171,-1.1229,-0.982,-0.9313,-0.8504,-0.7415,-0.6543,-0.6164,-0.5719,-0.5454,-0.5403,-0.5727,-0.5996,-0.7279,-0.859,-1.0724,-1.2054,-1.3195,-1.4375,-1.518,-1.6074,-1.6871,-1.7055,-1.6673,-1.6188,-1.5731,-1.4797,-1.3459,-1.1834,-1.0048,-0.7695,-0.5382,-0.5924,-0.5105,-0.6132,-0.6256,-0.6033,-0.7125,-0.7861,-0.8219,-0.8942,-0.9054,-0.9201,-1.0319,-1.0667,-1.041,-1.1556,-1.2224,-1.2487,-1.3535,-1.4852,-1.662,-1.7248,-1.7867,-1.8481,-1.9734,-2.0263,-2.0629,-2.1277,-2.1575,-2.132,-2.089,-2.0545,-2.0576,-2.0555,-2.0429,-2.0391,-2.0377,-2.0331,-2.0153,-1.9935,-1.9807,-1.9745,-1.9541,-1.9413,-1.9588,-1.9663,-1.9577,-1.9704,-2.0649,-2.1336,-2.149,-2.1745,-2.2218,-2.2896,-2.3766,-2.3934,-2.3563,-2.3449,-2.3474,-2.3009,-2.2093,-2.1167,-2.002,-1.9021,-1.8296,-1.7597,-1.6976,-1.6596,-1.6528,-1.6258,-1.598,-1.5757,-1.5247,-1.4863,-1.4616,-1.4009,-1.3552,-1.3641,-1.3223,-1.2779,-1.2621,-1.2753,-1.2789,-1.2472,-1.2158,-1.1479,-1.03,-0.9479,-0.8724,-0.7571,-0.6404,-0.5986,-0.5711,-0.5449,-0.5403,-0.5996,-0.6505,-0.7835,-0.9153,-1.1193,-1.2979,-1.4099,-1.5369,-1.6181,-1.6852,-1.7471,-1.7429,-1.7247,-1.6703,-1.622,-1.5222,-1.4287,-1.2764,-1.1019,-0.8678,-0.6298,-0.5175,-0.4856,-0.5718,-0.5889,-0.5778,-0.6716,-0.7498,-0.7995,-0.8468,-0.8806,-0.9183,-1.0115,-1.0508,-1.0575,-1.1377,-1.1984,-1.2573,-1.3546,-1.5018,-1.6586,-1.7352,-1.7957,-1.8663,-1.9289,-1.9874,-2.0257,-2.1001,-2.1177,-2.0845,-2.056,-2.0405,-2.0418,-2.0424,-2.0396,-2.037,-2.0274,-2.0153,-2.005,-1.9917,-1.9774,-1.9613,-1.9484,-1.9306,-1.9228,-1.9274,-1.9292,-1.9648,-2.0299,-2.1146,-2.1668,-2.1862,-2.2265,-2.3157,-2.3781,-2.3883,-2.3774,-2.3728,-2.3703,-2.3307,-2.262,-2.1715,-2.0829,-1.9321,-1.8229,-1.7595,-1.7199,-1.6975,-1.6712,-1.6476,-1.6278,-1.6536,-1.6532,-1.6341,-1.5849,-1.5241,-1.4878,-1.4792,-1.421,-1.3959,-1.3968,-1.4268,-1.3929,-1.3545,-1.2915,-1.1874,-1.0798,-1.0144,-0.9363,-0.7673,-0.6562,-0.6034,-0.5665,-0.5262,-0.5399,-0.6154,-0.7128,-0.8475,-0.9871,-1.1486,-1.312,-1.443,-1.5767,-1.7115,-1.7512,-1.7799,-1.8032,-1.7837,-1.725,-1.6625,-1.5976,-1.5017,-1.3729,-1.2018,-0.9659,-0.7235,-0.4401,-0.4783,-0.5186,-0.5513,-0.5837,-0.6243,-0.6978,-0.7829,-0.8049,-0.8576,-0.9194,-0.987,-1.0316,-1.0602,-1.1215,-1.1838,-1.2701,-1.3616,-1.5074,-1.6444,-1.7293,-1.8005,-1.8804,-1.9444,-1.9857,-1.9897,-2.0696,-2.0856,-2.0594,-2.0421,-2.0409,-2.0438,-2.0371,-2.0308,-2.026,-2.0108,-1.9915,-1.9766,-1.9599,-1.9351,-1.9191,-1.9073,-1.8961,-1.8986,-1.9109,-1.9372,-1.9858,-2.0381,-2.0893,-2.2034,-2.2013,-2.2465,-2.3087,-2.3584,-2.3646,-2.3495,-2.3463,-2.3389,-2.3206,-2.2617,-2.1972,-2.1435,-1.9665,-1.8121,-1.75,-1.7173,-1.7039,-1.6943,-1.6802,-1.6953,-1.7518,-1.7581,-1.7356,-1.6938,-1.6386,-1.5996,-1.5593,-1.5213,-1.5502,-1.5808,-1.5592,-1.5235,-1.4477,-1.3749,-1.2492,-1.1412,-1.0752,-0.9801,-0.8109,-0.682,-0.6295,-0.5613,-0.5211,-0.5714,-0.647,-0.7505,-0.8912,-1.0405,-1.1904,-1.3103,-1.4464,-1.5504,-1.6645,-1.7575,-1.7909,-1.7965,-1.77,-1.6917,-1.6461,-1.6386,-1.5639,-1.4261,-1.2503,-1.0618,-0.8228,-0.4348,-0.411,-0.4501,-0.4537,-0.4508,-0.5293,-0.6268,-0.7233,-0.7961,-0.8759,-0.9465,-0.996,-1.0233,-1.0574,-1.1189,-1.2191,-1.3248,-1.4022,-1.4896,-1.6221,-1.7188,-1.8142,-1.8731,-1.963,-2.0081,-2.0227,-2.0538,-2.0539,-2.0502,-2.0488,-2.0405,-2.034,-2.0277,-2.0218,-2.0038,-1.9904,-1.9606,-1.93,-1.9143,-1.8854,-1.8517,-1.834,-1.8519,-1.8753,-1.9061,-1.9549,-2.0216,-2.1173,-2.1781,-2.1592,-2.2185,-2.2392,-2.2582,-2.296,-2.3084,-2.3147,-2.3157,-2.3142,-2.2928,-2.2617,-2.2022,-2.1298,-2.0305,-1.8816,-1.7689,-1.7247,-1.7251,-1.718,-1.743,-1.7753,-1.7605,-1.7949,-1.8092,-1.7841,-1.7611,-1.7269,-1.6947,-1.6648,-1.6476,-1.657,-1.6494,-1.6322,-1.5438,-1.4415,-1.3246,-1.2036,-1.1085,-1.0017,-0.8515,-0.7395,-0.6619,-0.5863,-0.5136,-0.5928,-0.6886,-0.8001,-0.9243,-1.0782,-1.2118,-1.2886,-1.4087,-1.4974,-1.5928,-1.6677,-1.7133,-1.7179,-1.6786,-1.645,-1.6348,-1.6312,-1.556,-1.4744,-1.3077,-1.1266,-0.9026,-0.3208,-0.3243,-0.3473,-0.3781,-0.4111,-0.4551,-0.5482,-0.6612,-0.7432,-0.8254,-0.9037,-0.9634,-1.0087,-1.0521,-1.12,-1.2334,-1.3447,-1.3988,-1.4759,-1.585,-1.699,-1.8042,-1.8669,-1.9721,-2.0157,-2.0293,-2.0331,-2.035,-2.0387,-2.0351,-2.0307,-2.0227,-2.0098,-1.9926,-1.9738,-1.9448,-1.921,-1.8873,-1.8609,-1.8323,-1.798,-1.7766,-1.7916,-1.8516,-1.8768,-1.9218,-2.0254,-2.07,-2.1266,-2.1423,-2.1747,-2.2132,-2.2358,-2.2423,-2.2562,-2.2986,-2.3148,-2.3165,-2.2907,-2.2609,-2.1902,-2.0945,-2.0507,-1.9545,-1.8251,-1.7718,-1.7593,-1.7466,-1.749,-1.7904,-1.7861,-1.8187,-1.8316,-1.8254,-1.8189,-1.8069,-1.7814,-1.7434,-1.7188,-1.6931,-1.6809,-1.6645,-1.6234,-1.5174,-1.4007,-1.2793,-1.1566,-1.0285,-0.8877,-0.8043,-0.7246,-0.6201,-0.5559,-0.6336,-0.7301,-0.8241,-0.9372,-1.0862,-1.2118,-1.2889,-1.358,-1.4372,-1.4912,-1.5488,-1.584,-1.6086,-1.6527,-1.6411,-1.63,-1.6163,-1.5576,-1.4812,-1.358,-1.1883,-0.9591,-0.2116,-0.2617,-0.2743,-0.3285,-0.4048,-0.4191,-0.5102,-0.6358,-0.7055,-0.7957,-0.8878,-0.9436,-0.9909,-1.039,-1.1141,-1.2131,-1.3418,-1.3721,-1.4392,-1.5451,-1.6802,-1.7889,-1.8632,-1.9635,-2.0261,-2.0216,-2.0162,-2.0221,-2.0226,-2.0147,-2.0109,-2.0,-1.9786,-1.9563,-1.9383,-1.9073,-1.877,-1.8383,-1.8101,-1.7832,-1.7729,-1.7493,-1.7599,-1.8459,-1.8239,-1.8853,-2.0076,-2.0362,-2.0635,-2.0971,-2.1245,-2.1583,-2.2295,-2.2115,-2.2324,-2.3102,-2.3257,-2.3127,-2.2878,-2.2379,-2.1616,-2.0809,-2.0492,-1.9573,-1.8486,-1.7745,-1.764,-1.7555,-1.7678,-1.7699,-1.781,-1.8161,-1.8293,-1.8333,-1.8386,-1.8439,-1.8189,-1.7909,-1.7591,-1.7383,-1.7147,-1.6837,-1.6483,-1.5889,-1.4707,-1.3368,-1.2125,-1.0816,-0.9544,-0.8864,-0.7967,-0.6673,-0.6188,-0.6869,-0.7665,-0.8375,-0.9434,-1.0696,-1.1733,-1.2555,-1.3041,-1.3624,-1.4086,-1.456,-1.4549,-1.4901,-1.5614,-1.6264,-1.6041,-1.5768,-1.5546,-1.4869,-1.3716,-1.2085,-0.9964,-0.1966,-0.2629,-0.291,-0.3505,-0.4161,-0.443,-0.5579,-0.7091,-0.7376,-0.8369,-0.9614,-0.9822,-0.9906,-1.0186,-1.0601,-1.168,-1.2764,-1.3393,-1.4026,-1.5091,-1.6735,-1.7688,-1.8105,-1.9523,-2.0031,-2.0046,-1.9915,-1.9991,-1.996,-1.9841,-1.9798,-1.97,-1.9443,-1.9176,-1.8855,-1.8627,-1.836,-1.7793,-1.7664,-1.7593,-1.7511,-1.756,-1.7991,-1.8527,-1.8805,-1.905,-1.9774,-2.003,-2.0299,-2.0265,-2.0613,-2.0991,-2.1432,-2.2327,-2.2828,-2.2909,-2.2587,-2.2019,-2.2065,-2.1798,-2.1401,-2.0845,-2.0524,-1.929,-1.8219,-1.7519,-1.7246,-1.6797,-1.7297,-1.7571,-1.7517,-1.7787,-1.8042,-1.8254,-1.8425,-1.8347,-1.8189,-1.7909,-1.7661,-1.7499,-1.7231,-1.6954,-1.6604,-1.6105,-1.5423,-1.4064,-1.2671,-1.1366,-1.0023,-0.9228,-0.854,-0.7261,-0.6615,-0.725,-0.7971,-0.8699,-0.9503,-1.0636,-1.1449,-1.2182,-1.2603,-1.3013,-1.3264,-1.361,-1.3636,-1.414,-1.52,-1.568,-1.5605,-1.5468,-1.5322,-1.4698,-1.3841,-1.2055,-1.0112,-0.1072,-0.2385,-0.26,-0.3312,-0.4286,-0.4767,-0.5673,-0.6815,-0.7797,-0.8612,-0.9362,-0.9859,-1.0201,-1.0499,-1.0831,-1.1751,-1.3008,-1.3391,-1.4015,-1.5086,-1.6667,-1.7649,-1.8026,-1.9169,-1.9943,-1.9796,-1.9575,-1.9359,-1.9404,-1.9481,-1.9447,-1.9243,-1.9006,-1.8646,-1.8385,-1.8056,-1.7826,-1.7613,-1.7547,-1.7449,-1.7285,-1.721,-1.7466,-1.8153,-1.8276,-1.8678,-1.9185,-1.9685,-1.993,-2.0019,-2.0378,-2.109,-2.1696,-2.2156,-2.237,-2.3126,-2.2473,-2.2115,-2.2104,-2.1706,-2.1256,-2.0726,-2.0291,-1.9506,-1.8176,-1.7502,-1.721,-1.701,-1.7222,-1.7365,-1.728,-1.7516,-1.772,-1.7975,-1.8416,-1.8285,-1.8085,-1.7747,-1.7514,-1.7424,-1.7321,-1.7183,-1.6994,-1.6625,-1.5848,-1.445,-1.3286,-1.2192,-1.0501,-0.8944,-0.8373,-0.7834,-0.7454,-0.7485,-0.8248,-0.9015,-0.9595,-1.0525,-1.13,-1.1936,-1.2176,-1.252,-1.2841,-1.3055,-1.3233,-1.3931,-1.4926,-1.5164,-1.5106,-1.5141,-1.5142,-1.4297,-1.3375,-1.1738,-0.9436,0.0029,-0.1358,-0.1875,-0.2821,-0.4034,-0.4876,-0.5835,-0.6875,-0.7987,-0.875,-0.9226,-0.981,-1.0376,-1.0754,-1.089,-1.1617,-1.3223,-1.3393,-1.4137,-1.531,-1.6602,-1.7458,-1.7972,-1.8954,-1.9738,-1.9583,-1.9201,-1.9051,-1.9004,-1.8968,-1.9004,-1.8913,-1.8676,-1.8448,-1.8131,-1.7889,-1.7647,-1.7285,-1.7347,-1.7325,-1.7206,-1.6903,-1.7228,-1.758,-1.7786,-1.7963,-1.8576,-1.9107,-1.9539,-1.9904,-2.0228,-2.0936,-2.1766,-2.1831,-2.1884,-2.2461,-2.226,-2.2028,-2.1759,-2.1354,-2.1013,-2.0542,-1.9782,-1.9073,-1.8126,-1.7609,-1.7308,-1.7155,-1.7275,-1.7332,-1.726,-1.7394,-1.7731,-1.8042,-1.8423,-1.8289,-1.8167,-1.7904,-1.7922,-1.8053,-1.797,-1.768,-1.7485,-1.7241,-1.633,-1.4899,-1.3802,-1.2797,-1.1162,-0.9221,-0.8515,-0.8218,-0.806,-0.7887,-0.8398,-0.9142,-0.9723,-1.0309,-1.1137,-1.149,-1.16,-1.2035,-1.2517,-1.2702,-1.289,-1.3256,-1.3963,-1.4315,-1.4643,-1.4597,-1.4402,-1.3803,-1.2743,-1.099,-0.8545,0.1292,0.0917,-0.0587,-0.1915,-0.3211,-0.4532,-0.6135,-0.7695,-0.8063,-0.8832,-0.9636,-0.9977,-1.0229,-1.0374,-1.0709,-1.1455,-1.2818,-1.2768,-1.3922,-1.5324,-1.661,-1.7329,-1.7887,-1.8683,-1.9546,-1.9595,-1.916,-1.8953,-1.8927,-1.8676,-1.8785,-1.8887,-1.8483,-1.8536,-1.8319,-1.7877,-1.7345,-1.7011,-1.6959,-1.7134,-1.7116,-1.7113,-1.7319,-1.7805,-1.7811,-1.7812,-1.8246,-1.8768,-1.9239,-1.9683,-2.0078,-2.0576,-2.1302,-2.1465,-2.1582,-2.1742,-2.2308,-2.1903,-2.1197,-2.1079,-2.098,-2.0451,-1.9587,-1.8385,-1.7557,-1.7389,-1.7263,-1.7181,-1.7309,-1.7372,-1.7333,-1.7387,-1.7702,-1.814,-1.8497,-1.8582,-1.8438,-1.8256,-1.8306,-1.8681,-1.8608,-1.8292,-1.7666,-1.7345,-1.6622,-1.5199,-1.3922,-1.2915,-1.1623,-0.9896,-0.9137,-0.8652,-0.8523,-0.8421,-0.851,-0.9108,-0.9646,-1.0075,-1.0716,-1.0796,-1.0786,-1.1377,-1.2295,-1.2487,-1.2716,-1.2825,-1.2863,-1.302,-1.3289,-1.3736,-1.3575,-1.2733,-1.0939,-0.873,-0.6369,0.3094,0.3686,0.236,0.0063,-0.2743,-0.3543,-0.5399,-0.7725,-0.8548,-0.9182,-0.9875,-1.0445,-1.0747,-1.0882,-1.1433,-1.2169,-1.3277,-1.3849,-1.4661,-1.5776,-1.6933,-1.7545,-1.8033,-1.8491,-1.9213,-1.9026,-1.8846,-1.8591,-1.8268,-1.8454,-1.8485,-1.8444,-1.8255,-1.7988,-1.7803,-1.751,-1.6876,-1.6552,-1.6527,-1.6751,-1.6539,-1.686,-1.6981,-1.6818,-1.7505,-1.7555,-1.7987,-1.8688,-1.9205,-1.9621,-1.9993,-2.0448,-2.0921,-2.1103,-2.1197,-2.1291,-2.1862,-2.156,-2.1093,-2.0997,-2.1095,-2.016,-1.9118,-1.7989,-1.7138,-1.7051,-1.7219,-1.7219,-1.7325,-1.7458,-1.7485,-1.7423,-1.7562,-1.8152,-1.852,-1.8726,-1.8818,-1.865,-1.8571,-1.8858,-1.8965,-1.8846,-1.8118,-1.737,-1.6483,-1.5491,-1.4289,-1.3032,-1.1841,-1.076,-0.9985,-0.9408,-0.9207,-0.8926,-0.8999,-0.9248,-0.9538,-0.9923,-1.0391,-1.0477,-1.0621,-1.1422,-1.2212,-1.2363,-1.255,-1.2705,-1.2535,-1.183,-1.1995,-1.2785,-1.2388,-1.1423,-0.9217,-0.6559,-0.4317,0.4695,0.5608,0.5008,0.2532,-0.0891,-0.2095,-0.4118,-0.6622,-0.7817,-0.8922,-0.9659,-1.0442,-1.0983,-1.1276,-1.1736,-1.2553,-1.3329,-1.4073,-1.4907,-1.5871,-1.679,-1.7413,-1.7808,-1.8235,-1.8663,-1.8437,-1.8609,-1.854,-1.8242,-1.8438,-1.821,-1.7954,-1.787,-1.7673,-1.752,-1.69,-1.6386,-1.6132,-1.6161,-1.6326,-1.608,-1.6369,-1.67,-1.6376,-1.6848,-1.7231,-1.7739,-1.8474,-1.9107,-1.9408,-1.9724,-2.0168,-2.0484,-2.0733,-2.0752,-2.0895,-2.1129,-2.1232,-2.0988,-2.0982,-2.0848,-1.9898,-1.8805,-1.7783,-1.7099,-1.7012,-1.7243,-1.7282,-1.7424,-1.7618,-1.7695,-1.7547,-1.7932,-1.856,-1.8643,-1.8814,-1.9195,-1.9264,-1.909,-1.9032,-1.9057,-1.8943,-1.8137,-1.7314,-1.6363,-1.5481,-1.4336,-1.3362,-1.257,-1.1596,-1.0823,-1.0343,-1.0031,-0.9713,-0.9492,-0.963,-0.9826,-1.0127,-1.0524,-1.0643,-1.0943,-1.1654,-1.1968,-1.1999,-1.2236,-1.253,-1.2059,-1.1103,-1.144,-1.2082,-1.0994,-0.9452,-0.7007,-0.4403,-0.2614,0.6025,0.6515,0.6888,0.5246,0.2264,-0.017,-0.2421,-0.4653,-0.6066,-0.7547,-0.906,-0.9747,-1.0584,-1.1239,-1.1721,-1.2397,-1.3202,-1.3864,-1.4562,-1.5465,-1.6536,-1.6799,-1.7151,-1.767,-1.8244,-1.8455,-1.8523,-1.8517,-1.8395,-1.8436,-1.7949,-1.7498,-1.7489,-1.7491,-1.7733,-1.7316,-1.6715,-1.6197,-1.6105,-1.6023,-1.5823,-1.5997,-1.6247,-1.6317,-1.6582,-1.694,-1.7468,-1.8246,-1.8815,-1.8992,-1.9325,-1.9643,-1.985,-2.0067,-1.9965,-1.9618,-2.0437,-2.0384,-1.9603,-1.9962,-1.9872,-1.9509,-1.8511,-1.7612,-1.7299,-1.7261,-1.7242,-1.7122,-1.7679,-1.7986,-1.7917,-1.7744,-1.827,-1.8702,-1.8734,-1.8907,-1.9309,-1.9419,-1.918,-1.916,-1.902,-1.8786,-1.8007,-1.7203,-1.629,-1.5319,-1.4261,-1.3522,-1.305,-1.2462,-1.1711,-1.1158,-1.0797,-1.0319,-1.0064,-1.0005,-1.0191,-1.0447,-1.0674,-1.0813,-1.0971,-1.1335,-1.1551,-1.1642,-1.1642,-1.1742,-1.1074,-1.0273,-1.0155,-0.9772,-0.8552,-0.6864,-0.4532,-0.2507,-0.087,0.7089,0.7612,0.7528,0.677,0.5287,0.2599,-0.0534,-0.3807,-0.5993,-0.7619,-0.8771,-0.9923,-1.0993,-1.1712,-1.2238,-1.2697,-1.3362,-1.4576,-1.5245,-1.5256,-1.6395,-1.7014,-1.7329,-1.7518,-1.7843,-1.7927,-1.8041,-1.8076,-1.7734,-1.8162,-1.8193,-1.7776,-1.7169,-1.6904,-1.6706,-1.6456,-1.6177,-1.5517,-1.5478,-1.5477,-1.4901,-1.5468,-1.5938,-1.581,-1.631,-1.6765,-1.707,-1.7872,-1.8232,-1.8501,-1.8792,-1.9133,-1.9251,-1.942,-1.9322,-1.9113,-1.967,-1.9414,-1.8839,-1.8867,-1.8871,-1.8657,-1.8298,-1.729,-1.6599,-1.677,-1.6781,-1.6834,-1.7123,-1.7412,-1.7577,-1.7664,-1.8097,-1.8631,-1.8842,-1.8998,-1.9218,-1.9137,-1.9069,-1.9226,-1.9265,-1.8769,-1.8102,-1.7322,-1.6406,-1.5811,-1.4897,-1.4119,-1.3543,-1.3156,-1.2504,-1.1977,-1.1483,-1.1018,-1.0654,-1.0568,-1.0559,-1.0773,-1.0924,-1.0988,-1.1175,-1.1267,-1.1209,-1.1301,-1.1049,-1.0744,-0.9681,-0.8619,-0.7805,-0.7004,-0.6014,-0.4952,-0.3128,-0.1169,0.0578,0.8116,0.8657,0.831,0.7841,0.6957,0.4435,0.0946,-0.2821,-0.5296,-0.6901,-0.8014,-0.9315,-1.0567,-1.1498,-1.2187,-1.2836,-1.3282,-1.4295,-1.5243,-1.5193,-1.6166,-1.675,-1.7152,-1.7411,-1.7344,-1.7398,-1.7721,-1.7862,-1.7598,-1.8123,-1.8053,-1.7568,-1.6973,-1.645,-1.6165,-1.6056,-1.5888,-1.5425,-1.5488,-1.5451,-1.5246,-1.5499,-1.5965,-1.5877,-1.6126,-1.6606,-1.6775,-1.7157,-1.7611,-1.7952,-1.8302,-1.8649,-1.8714,-1.8833,-1.8797,-1.8738,-1.8614,-1.8536,-1.8298,-1.8038,-1.8058,-1.785,-1.7556,-1.6832,-1.6036,-1.6167,-1.6291,-1.6332,-1.6296,-1.6684,-1.7123,-1.7312,-1.792,-1.8452,-1.8721,-1.8869,-1.9167,-1.915,-1.9245,-1.9409,-1.9456,-1.8907,-1.8203,-1.7391,-1.6581,-1.6074,-1.5594,-1.4875,-1.4141,-1.3699,-1.3159,-1.2573,-1.2008,-1.1462,-1.1164,-1.1081,-1.1073,-1.1133,-1.1175,-1.1217,-1.1074,-1.1116,-1.1015,-1.0863,-1.0549,-0.9799,-0.8047,-0.6876,-0.6288,-0.5219,-0.3918,-0.2779,-0.1583,0.0127,0.1981,0.915,0.9635,0.9362,0.858,0.7374,0.5232,0.2079,-0.1492,-0.3445,-0.5207,-0.6794,-0.7678,-0.9177,-1.0713,-1.113,-1.1788,-1.2649,-1.3415,-1.4124,-1.4848,-1.5397,-1.5998,-1.6388,-1.655,-1.6729,-1.698,-1.7208,-1.7505,-1.7562,-1.7881,-1.7793,-1.7359,-1.6788,-1.631,-1.6125,-1.6011,-1.5756,-1.5588,-1.5625,-1.5566,-1.5403,-1.5999,-1.6068,-1.5989,-1.6108,-1.6173,-1.6355,-1.6702,-1.7045,-1.7364,-1.7723,-1.7978,-1.8258,-1.8588,-1.8416,-1.8189,-1.8032,-1.7977,-1.7788,-1.7523,-1.7067,-1.6821,-1.6616,-1.6046,-1.57,-1.5584,-1.5633,-1.569,-1.5642,-1.6056,-1.6457,-1.7134,-1.781,-1.8127,-1.8398,-1.8713,-1.9202,-1.9337,-1.9506,-1.9669,-1.9756,-1.9258,-1.8342,-1.751,-1.6903,-1.6533,-1.6168,-1.5858,-1.5103,-1.429,-1.3733,-1.2954,-1.2392,-1.1876,-1.161,-1.1418,-1.1318,-1.1326,-1.1418,-1.1418,-1.1217,-1.0972,-1.0812,-1.0506,-1.0028,-0.8856,-0.6929,-0.5714,-0.5033,-0.3778,-0.2353,-0.1206,-0.0185,0.1623,0.3318,1.0229,1.0541,0.9771,0.909,0.82,0.5497,0.272,0.0231,-0.1935,-0.3765,-0.5334,-0.694,-0.8315,-0.9587,-1.0535,-1.1287,-1.2017,-1.2675,-1.3068,-1.37,-1.439,-1.4888,-1.5332,-1.571,-1.616,-1.6572,-1.6834,-1.688,-1.7087,-1.7436,-1.7629,-1.7334,-1.7019,-1.6691,-1.6333,-1.6277,-1.589,-1.5633,-1.578,-1.5685,-1.5657,-1.5976,-1.5918,-1.5856,-1.5899,-1.593,-1.6017,-1.6618,-1.699,-1.7293,-1.8003,-1.839,-1.8493,-1.8581,-1.8449,-1.7882,-1.7726,-1.7639,-1.722,-1.7032,-1.6684,-1.6104,-1.5941,-1.5488,-1.5079,-1.4893,-1.4991,-1.505,-1.5059,-1.5352,-1.5941,-1.6684,-1.7301,-1.7689,-1.792,-1.8276,-1.8786,-1.9247,-1.9412,-1.9516,-1.961,-1.926,-1.8324,-1.782,-1.7258,-1.6994,-1.6743,-1.6461,-1.6008,-1.5151,-1.4461,-1.37,-1.2867,-1.2332,-1.1909,-1.1669,-1.1578,-1.1477,-1.1519,-1.1469,-1.1167,-1.0863,-1.0608,-0.9917,-0.8908,-0.7405,-0.5584,-0.4625,-0.3863,-0.2371,-0.0953,0.0122,0.1388,0.299,0.4375,1.097,1.0993,1.033,0.9635,0.8607,0.6193,0.4034,0.2128,-0.0454,-0.2479,-0.3946,-0.5777,-0.7279,-0.848,-0.968,-1.0638,-1.1274,-1.1968,-1.2552,-1.324,-1.3444,-1.4149,-1.4618,-1.4856,-1.5186,-1.5694,-1.5997,-1.6051,-1.6452,-1.7087,-1.7362,-1.7503,-1.7499,-1.6849,-1.625,-1.5918,-1.5694,-1.5549,-1.5595,-1.5725,-1.5818,-1.5956,-1.59,-1.5771,-1.5864,-1.5807,-1.571,-1.6524,-1.6941,-1.7264,-1.7945,-1.8445,-1.8434,-1.8434,-1.8451,-1.7995,-1.7556,-1.7424,-1.7148,-1.6892,-1.6327,-1.5884,-1.5594,-1.5196,-1.4852,-1.4616,-1.4656,-1.4706,-1.4588,-1.4647,-1.542,-1.6066,-1.6627,-1.7145,-1.7467,-1.7734,-1.8306,-1.892,-1.9159,-1.9279,-1.9145,-1.8907,-1.846,-1.7991,-1.76,-1.7324,-1.7124,-1.6938,-1.6454,-1.5752,-1.5236,-1.4664,-1.37,-1.288,-1.2403,-1.1918,-1.1828,-1.1678,-1.1528,-1.1427,-1.1065,-1.0659,-1.0249,-0.896,-0.7458,-0.5846,-0.4161,-0.3448,-0.2581,-0.1049,0.0424,0.1618,0.2718,0.4029,0.5262,1.1487,1.1363,1.0963,1.0059,0.8845,0.7211,0.5765,0.4306,0.1241,-0.1059,-0.2498,-0.4327,-0.5882,-0.7106,-0.8573,-0.9776,-1.046,-1.1172,-1.1888,-1.2979,-1.2914,-1.3346,-1.3716,-1.4111,-1.4301,-1.4387,-1.4822,-1.5556,-1.5935,-1.6564,-1.7231,-1.7573,-1.6981,-1.6455,-1.6192,-1.5771,-1.553,-1.5446,-1.5578,-1.5764,-1.6154,-1.6391,-1.6515,-1.6154,-1.6042,-1.5905,-1.5826,-1.6213,-1.6724,-1.7113,-1.7583,-1.8217,-1.8311,-1.8415,-1.8407,-1.8207,-1.7666,-1.7361,-1.7174,-1.6869,-1.6337,-1.5894,-1.5604,-1.5254,-1.4911,-1.4506,-1.4497,-1.4359,-1.43,-1.4538,-1.5128,-1.5778,-1.6306,-1.6694,-1.6998,-1.7333,-1.7755,-1.8418,-1.8872,-1.8969,-1.91,-1.886,-1.8737,-1.8282,-1.7975,-1.7633,-1.7261,-1.7094,-1.6706,-1.6067,-1.5679,-1.5284,-1.4272,-1.3256,-1.2696,-1.2264,-1.2126,-1.1927,-1.1678,-1.1326,-1.0972,-1.0403,-0.9792,-0.8495,-0.7095,-0.4696,-0.295,-0.2298,-0.1258,0.0357,0.1789,0.3046,0.418,0.524,0.6172,1.2009,1.2112,1.1198,1.0153,0.9113,0.8326,0.708,0.5548,0.3898,0.1623,-0.0709,-0.278,-0.4375,-0.5573,-0.7532,-0.885,-0.9712,-1.0299,-1.091,-1.1553,-1.1895,-1.2232,-1.25,-1.2938,-1.3249,-1.4017,-1.4613,-1.5245,-1.5992,-1.6537,-1.6845,-1.7037,-1.6715,-1.6644,-1.6213,-1.5846,-1.5613,-1.5369,-1.5308,-1.5609,-1.6025,-1.612,-1.6094,-1.5859,-1.5745,-1.5694,-1.5869,-1.6413,-1.6919,-1.7418,-1.8029,-1.837,-1.8436,-1.8537,-1.8479,-1.8222,-1.777,-1.7491,-1.7137,-1.6784,-1.6352,-1.5951,-1.5652,-1.5381,-1.5039,-1.4565,-1.4327,-1.4189,-1.4181,-1.4478,-1.4893,-1.5488,-1.5972,-1.6306,-1.6581,-1.6928,-1.7286,-1.7887,-1.8471,-1.869,-1.892,-1.8862,-1.8759,-1.8608,-1.8308,-1.7825,-1.7214,-1.6842,-1.6477,-1.5978,-1.58,-1.5334,-1.4493,-1.3627,-1.2977,-1.2461,-1.2224,-1.1927,-1.1628,-1.1226,-1.0804,-1.0062,-0.9336,-0.8273,-0.6827,-0.4239,-0.2232,-0.126,-0.0059,0.1578,0.3005,0.4243,0.5386,0.6514,0.7287,1.3374,1.3056,1.1749,1.0731,0.9966,0.9243,0.8044,0.6566,0.5457,0.3546,0.0967,-0.1287,-0.3115,-0.4424,-0.6458,-0.796,-0.8884,-0.9493,-1.02,-1.0687,-1.0979,-1.1215,-1.155,-1.1852,-1.212,-1.2811,-1.3873,-1.4775,-1.5899,-1.6313,-1.644,-1.6494,-1.6655,-1.6596,-1.6174,-1.5878,-1.5592,-1.535,-1.5051,-1.5188,-1.5568,-1.5675,-1.5781,-1.5678,-1.5608,-1.5547,-1.5625,-1.6166,-1.6618,-1.7226,-1.7872,-1.8355,-1.8459,-1.8526,-1.8522,-1.8289,-1.7978,-1.7593,-1.7195,-1.6775,-1.6396,-1.6052,-1.5758,-1.5536,-1.5254,-1.4902,-1.4743,-1.4556,-1.4079,-1.4258,-1.4834,-1.543,-1.5672,-1.5904,-1.6296,-1.6726,-1.7244,-1.7812,-1.8182,-1.8396,-1.8619,-1.8794,-1.8733,-1.8764,-1.856,-1.8619,-1.7882,-1.6936,-1.6487,-1.615,-1.5923,-1.5513,-1.4709,-1.3721,-1.2793,-1.2421,-1.2224,-1.1927,-1.1669,-1.0923,-1.0358,-0.9645,-0.884,-0.7973,-0.6359,-0.3525,-0.177,-0.0517,0.1004,0.2613,0.4026,0.5335,0.6499,0.754,0.8148,1.471,1.3899,1.2407,1.156,1.1131,1.0098,0.8862,0.7546,0.6568,0.4923,0.267,0.0306,-0.1955,-0.3939,-0.552,-0.6852,-0.7895,-0.8574,-0.9375,-0.9988,-1.0461,-1.0547,-1.0747,-1.1089,-1.1402,-1.1988,-1.2934,-1.4141,-1.5328,-1.5664,-1.5895,-1.6031,-1.6034,-1.5936,-1.5791,-1.5323,-1.4874,-1.4993,-1.4848,-1.4641,-1.4864,-1.515,-1.5338,-1.5488,-1.5505,-1.5275,-1.5267,-1.5621,-1.6044,-1.6742,-1.7579,-1.8056,-1.8337,-1.8405,-1.8472,-1.8282,-1.8036,-1.7728,-1.7365,-1.7103,-1.6644,-1.6222,-1.6012,-1.5748,-1.5459,-1.5167,-1.501,-1.4798,-1.4328,-1.435,-1.4932,-1.542,-1.5604,-1.572,-1.6181,-1.6637,-1.7234,-1.7776,-1.7986,-1.8164,-1.8426,-1.8672,-1.8768,-1.881,-1.8886,-1.8964,-1.8476,-1.7528,-1.6824,-1.6608,-1.639,-1.5888,-1.522,-1.4097,-1.2987,-1.2657,-1.2559,-1.2353,-1.2061,-1.0927,-0.9962,-0.9437,-0.8783,-0.7963,-0.5975,-0.3232,-0.1055,0.0463,0.2021,0.3535,0.4893,0.6172,0.7282,0.8217,0.8812,1.4542,1.3901,1.2564,1.22,1.2287,1.1165,0.9974,0.8829,0.8061,0.6462,0.4174,0.2642,0.0387,-0.2985,-0.4668,-0.5961,-0.6866,-0.7576,-0.8214,-0.8851,-0.9498,-0.974,-0.9976,-1.0422,-1.1024,-1.1718,-1.2497,-1.3412,-1.441,-1.5005,-1.5362,-1.5337,-1.5573,-1.5624,-1.5658,-1.5176,-1.4672,-1.4633,-1.4274,-1.4,-1.4281,-1.4497,-1.4649,-1.4721,-1.4713,-1.4713,-1.4919,-1.5409,-1.5912,-1.6542,-1.7235,-1.7716,-1.7998,-1.8144,-1.8212,-1.821,-1.7979,-1.781,-1.7483,-1.7236,-1.6797,-1.655,-1.6318,-1.6016,-1.5651,-1.5206,-1.5138,-1.5163,-1.4885,-1.5003,-1.5476,-1.5921,-1.6192,-1.6056,-1.6275,-1.674,-1.7301,-1.7689,-1.7986,-1.8271,-1.8541,-1.8756,-1.8851,-1.8999,-1.9198,-1.916,-1.8904,-1.8031,-1.7702,-1.7338,-1.6903,-1.6175,-1.5558,-1.4812,-1.3884,-1.3324,-1.3132,-1.2929,-1.2484,-1.1488,-1.048,-0.9525,-0.8791,-0.7864,-0.5775,-0.3116,-0.1008,0.1037,0.2626,0.4069,0.5621,0.6937,0.7981,0.8744,0.926]}]]